[[{"header":{"parameterUnit":"m.s-1","parameterCategory":1,"la1":31.0,"la2":29.5877,"lo1":-88.7671,"lo2":-86.6584,"dy":0.0162,"dx":0.0185,"nx":115,"ny":88,"refTime":"2023-02-22T18:00:00:Z","depth":0,"parameterNumber":2,"parameterNumberName":"U-component_of_WINDS"},"data":[0.0,0.0,0.0,0.0,0.0,0.0,0.0,0.0,0.0,0.0,0.0,0.0,0.0,0.0,0.0,0.0,0.0,0.0,0.0,0.0,0.0,0.0,0.0,0.0,0.0,0.0,0.0,0.0,0.0,0.0,0.0,0.0,0.0,0.0,0.0,0.0,0.0,0.0,0.0,0.0,0.0,0.0,0.0,0.0,0.0,0.0,0.0,0.0,0.0,0.0,0.0,0.0,0.0,0.0,0.0,0.0,0.0,0.0,0.0,0.0,0.0,0.0,0.0,0.0,0.0,0.0,0.0,0.0,0.0,0.0,0.0,0.0,0.0,0.0,0.0,0.0,0.0,0.0,0.0,0.0,0.0,0.0,0.0,0.0,0.0,0.0,0.0,0.0,0.0,0.0,0.0,0.0,0.0,0.0,0.0,0.0,0.0,0.0,0.0,0.0,0.0,0.0,0.0,0.0,0.0,0.0,0.0,0.0,0.0,0.0,0.0,0.0,0.0,0.0,0.0,0.0,0.0,0.0,0.0,0.0,0.0,0.0,0.0,0.0,0.0,0.0,0.0,0.0,0.0,0.0,0.0,0.0,0.0,0.0,0.0,0.0,0.0,0.0,0.0,0.0,0.0,0.0,0.0,0.0,0.0,0.0,0.0,0.0,0.0,0.0,0.0,0.0,0.0,0.0,0.0,0.0,0.0,0.0,0.0,0.0,0.0,0.0,0.0,0.0,0.0,0.0,0.0,0.0,0.0,0.0,0.0,0.0,0.0,0.0,0.0,0.0,0.0,0.0,0.0,0.0,0.0,0.0,0.0,0.0,0.0,0.0,0.0,0.0,0.0,0.0,0.0,0.0,0.0,0.0,0.0,0.0,0.0,0.0,0.0,0.0,0.0,0.0,0.0,0.0,0.0,0.0,0.0,0.0,0.0,0.0,0.0,0.0,0.0,0.0,0.0,0.0,0.0,0.0,0.0,0.0,0.0,0.0,0.0,0.0,0.0,0.0,0.0,0.0,0.0,0.0,0.0,0.0,0.0,0.0,0.0,0.0,0.0,0.0,0.0,0.0,0.0,0.0,0.0,0.0,0.0,0.0,0.0,0.0,0.0,0.0,0.0,0.0,0.0,0.0,0.0,0.0,0.0,0.0,0.0,0.0,0.0,0.0,0.0,0.0,0.0,0.0,0.0,0.0,0.0,0.0,0.0,0.0,0.0,0.0,0.0,0.0,0.0,0.0,0.0,0.0,0.0,0.0,0.0,0.0,0.0,0.0,0.0,0.0,0.0,0.0,0.0,0.0,0.0,0.0,0.0,0.0,0.0,0.0,0.0,0.0,0.0,0.0,0.0,0.0,0.0,0.0,0.0,0.0,0.0,0.0,0.0,0.0,0.0,0.0,0.0,0.0,0.0,0.0,0.0,0.0,0.0,0.0,0.0,0.0,0.0,0.0,0.0,0.0,0.0,0.0,0.0,0.0,0.0,0.0,0.0,0.0,0.0,0.0,0.0,0.0,0.0,0.0,0.0,0.0,0.0,0.0,0.0,0.0,0.0,0.0,0.0,0.0,0.0,0.0,0.0,0.0,0.0,0.0,0.0,0.0,0.0,0.0,0.0,0.0,0.0,0.0,0.0,0.0,0.0,0.0,0.0,0.0,0.0,0.0,0.0,0.0,0.0,0.0,0.0,0.0,0.0,0.0,0.0,0.0,0.0,0.0,0.0,0.0,0.0,0.0,0.0,0.0,0.0,0.0,0.0,0.0,0.0,0.0,0.0,0.0,0.0,0.0,0.0,0.0,0.0,0.0,0.0,0.0,0.0,0.0,0.0,0.0,0.0,0.0,0.0,0.0,0.0,0.0,0.0,0.0,0.0,0.0,0.0,0.0,0.0,0.0,0.0,0.0,0.0,0.0,0.0,0.0,0.0,0.0,0.0,0.0,0.0,0.0,0.0,0.0,0.0,0.0,0.0,0.0,0.0,0.0,0.0,0.0,0.0,0.0,0.0,0.0,0.0,0.0,0.0,0.0,0.0,0.0,0.0,0.0,0.0,0.0,0.0,0.0,0.0,0.0,0.0,0.0,0.0,0.0,0.0,0.0,0.0,0.0,0.0,0.0,0.0,0.0,0.0,0.0,0.0,0.0,0.0,0.0,0.0,0.0,0.0,0.0,0.0,0.0,0.0,0.0,0.0,0.0,0.0,0.0,0.0,0.0,0.0,0.0,0.0,0.0,0.0,0.0,0.0,0.0,0.0,0.0,0.0,0.0,0.0,0.0,0.0,0.0,0.0,0.0,0.0,0.0,0.0,0.0,0.0,0.0,0.0,0.0,0.0,0.0,0.0,0.0,0.0,0.0,0.0,0.0,0.0,0.0,0.0,0.0,0.0,0.0,0.0,0.0,0.0,0.0,0.0,0.0,0.0,0.0,0.0,0.0,0.0,0.0,0.0,0.0,0.0,0.0,0.0,0.0,0.0,0.0,0.0,0.0,0.0,0.0,0.0,0.0,0.0,0.0,0.0,0.0,0.0,0.0,0.0,0.0,0.0,0.0,0.0,0.0,0.0,0.0,0.0,0.0,0.0,0.0,0.0,0.0,0.0,0.0,0.0,0.0,0.0,0.0,0.0,0.0,0.0,0.0,0.0,0.0,0.0,0.0,0.0,0.0,0.0,0.0,0.0,0.0,0.0,0.0,0.0,0.0,0.0,0.0,0.0,0.0,0.0,0.0,0.0,0.0,0.0,0.0,0.0,0.0,0.0,0.0,0.0,0.0,0.0,0.0,0.0,0.0,0.0,0.0,0.0,0.0,0.0,0.0,0.0,0.0,0.0,0.0,0.0,0.0,0.0,0.0,0.0,0.0,0.0,0.0,0.0,0.0,0.0,0.0,0.0,0.0,0.0,0.0,0.0,0.0,0.0,0.0,0.0,0.0,0.0,0.0,0.0,0.0,0.0,0.0,0.0,0.0,0.0,0.0,0.0,0.0,0.0,0.0,0.0,0.0,0.0,0.0,0.0,0.0,0.0,0.0,0.0,0.0,0.0,0.0,0.0,0.0,0.0,0.0,0.0,0.0,0.0,0.0,0.0,0.0,0.0,0.0,0.0,0.0,0.0,0.0,0.0,0.0,0.0,0.0,0.0,0.0,0.0,0.0,0.0,0.0,0.0,0.0,0.0,0.0,0.0,0.0,0.0,0.0,0.0,0.0,0.0,0.0,0.0,0.0,0.0,0.0,0.0,0.0,0.0,0.0,0.0,0.0,0.0,0.0,0.0,0.0,0.0,0.0,0.0,0.0,0.0,0.0,0.0,0.0,0.0,0.0,0.0,0.0,0.0,0.0,0.0,0.0,0.0,0.0,0.0,0.0,0.0,0.0,0.0,0.0,0.0,0.0,0.0,0.0,0.0,0.0,0.0,0.0,0.0,0.0,0.0,0.0,0.0,0.0,0.0,0.0,0.0,0.0,0.0,0.0,0.0,0.0,0.0,0.0,0.0,0.0,0.0,0.0,0.0,0.0,0.0,0.0,0.0,0.0,0.0,0.0,0.0,0.0,0.0,0.0,0.0,0.0,0.0,0.0,0.0,0.0,0.0,0.0,0.0,0.0,0.0,0.0,0.0,0.0,0.0,0.0,0.0,0.0,0.0,0.0,0.0,0.0,0.0,0.0,0.0,0.0,0.0,0.0,0.0,0.0,0.0,0.0,0.0,0.0,0.0,0.0,0.0,0.0,0.0,0.0,0.0,0.0,0.0,0.0,0.0,0.0,0.0,0.0,0.0,0.0,0.0,0.0,0.0,0.0,0.0,0.0,0.0,0.0,0.0,0.0,0.0,0.0,0.0,0.0,0.0,0.0,0.0,0.0,0.0,0.0,0.0,0.0,0.0,0.0,0.0,0.0,0.0,0.0,0.0,0.0,0.0,0.0,0.0,0.0,0.0,0.0,0.0,0.0,0.0,0.0,0.0,0.0,0.0,0.0,0.0,0.0,0.0,0.0,0.0,0.0,0.0,0.0,0.0,0.0,0.0,0.0,0.0,0.0,0.0,0.0,0.0,0.0,0.0,0.0,0.0,0.0,0.0,0.0,0.0,0.0,0.0,0.0,0.0,0.0,0.0,0.0,0.0,0.0,0.0,0.0,0.0,0.0,0.0,0.0,0.0,0.0,0.0,0.0,0.0,0.0,0.0,0.0,0.0,0.0,0.0,0.0,0.0,0.0,0.0,0.0,0.0,0.0,0.0,0.0,0.0,0.0,0.0,0.0,0.0,0.0,0.0,0.0,0.0,0.0,-2.7315,0.0,0.0,0.0,0.0,0.0,0.0,0.0,0.0,0.0,0.0,0.0,0.0,0.0,0.0,0.0,0.0,0.0,0.0,0.0,0.0,0.0,0.0,0.0,0.0,0.0,0.0,0.0,0.0,0.0,0.0,0.0,0.0,0.0,0.0,0.0,0.0,0.0,0.0,0.0,0.0,0.0,0.0,0.0,0.0,0.0,0.0,0.0,0.0,0.0,0.0,0.0,0.0,0.0,0.0,0.0,0.0,0.0,0.0,0.0,0.0,0.0,0.0,0.0,0.0,0.0,0.0,0.0,0.0,0.0,0.0,0.0,0.0,0.0,0.0,0.0,0.0,0.0,0.0,0.0,0.0,0.0,0.0,0.0,0.0,0.0,0.0,0.0,0.0,0.0,0.0,0.0,0.0,0.0,0.0,0.0,0.0,0.0,0.0,0.0,0.0,0.0,0.0,0.0,0.0,0.0,0.0,0.0,0.0,0.0,0.0,-2.7315,-2.7315,-2.7315,-2.7315,-2.7315,0.0,0.0,0.0,0.0,0.0,0.0,0.0,0.0,0.0,0.0,0.0,0.0,0.0,0.0,0.0,0.0,0.0,0.0,0.0,0.0,0.0,0.0,0.0,0.0,0.0,0.0,0.0,0.0,0.0,0.0,0.0,0.0,0.0,0.0,0.0,0.0,0.0,0.0,0.0,0.0,0.0,0.0,0.0,0.0,0.0,0.0,0.0,0.0,0.0,0.0,0.0,0.0,0.0,0.0,0.0,0.0,0.0,0.0,0.0,0.0,0.0,0.0,0.0,0.0,0.0,0.0,0.0,0.0,0.0,0.0,0.0,0.0,0.0,0.0,0.0,0.0,0.0,0.0,0.0,0.0,0.0,0.0,0.0,0.0,0.0,0.0,0.0,0.0,0.0,0.0,0.0,0.0,0.0,0.0,0.0,0.0,0.0,0.0,0.0,0.0,0.0,0.0,0.0,0.0,0.0,0.0,0.0,0.0,0.0,0.0,0.0,0.0,-2.7315,-2.7315,-2.7315,0.0,0.0,0.0,0.0,0.0,0.0,0.0,0.0,0.0,0.0,0.0,0.0,0.0,0.0,0.0,0.0,0.0,0.0,0.0,0.0,0.0,0.0,0.0,0.0,0.0,0.0,0.0,0.0,0.0,0.0,0.0,0.0,0.0,0.0,0.0,0.0,0.0,0.0,0.0,0.0,0.0,0.0,0.0,0.0,0.0,0.0,0.0,0.0,0.0,0.0,0.0,0.0,0.0,0.0,0.0,0.0,0.0,0.0,0.0,0.0,0.0,0.0,0.0,0.0,0.0,0.0,0.0,0.0,0.0,0.0,0.0,0.0,0.0,0.0,0.0,0.0,0.0,0.0,0.0,0.0,0.0,0.0,0.0,0.0,0.0,0.0,0.0,0.0,0.0,0.0,0.0,0.0,0.0,0.0,0.0,0.0,0.0,0.0,0.0,0.0,0.0,0.0,0.0,0.0,0.0,0.0,0.0,0.0,0.0,0.0,-2.7315,-2.7315,-2.7315,0.0,-2.7315,0.0,0.0,0.0,0.0,0.0,0.0,0.0,0.0,0.0,0.0,0.0,0.0,0.0,0.0,0.0,0.0,0.0,0.0,0.0,0.0,0.0,0.0,0.0,0.0,0.0,0.0,0.0,0.0,0.0,0.0,0.0,0.0,0.0,0.0,0.0,0.0,0.0,0.0,0.0,0.0,0.0,0.0,0.0,0.0,0.0,0.0,0.0,0.0,0.0,0.0,0.0,0.0,0.0,0.0,0.0,0.0,0.0,0.0,0.0,0.0,0.0,0.0,0.0,0.0,0.0,0.0,0.0,0.0,0.0,0.0,0.0,0.0,0.0,0.0,0.0,0.0,0.0,0.0,0.0,0.0,0.0,0.0,0.0,0.0,0.0,0.0,0.0,0.0,0.0,0.0,0.0,0.0,0.0,0.0,0.0,0.0,0.0,0.0,0.0,0.0,0.0,0.0,0.0,0.0,0.0,0.0,0.0,0.0,0.0,0.0,-2.7315,-2.7315,-2.7315,-2.7315,0.0,0.0,0.0,0.0,0.0,0.0,0.0,0.0,0.0,0.0,0.0,0.0,0.0,0.0,0.0,0.0,0.0,0.0,0.0,0.0,0.0,0.0,0.0,0.0,0.0,0.0,0.0,0.0,0.0,0.0,0.0,0.0,0.0,0.0,0.0,0.0,0.0,0.0,0.0,0.0,0.0,0.0,0.0,0.0,0.0,0.0,0.0,0.0,0.0,0.0,0.0,0.0,0.0,0.0,0.0,0.0,0.0,0.0,0.0,0.0,0.0,0.0,0.0,0.0,0.0,0.0,0.0,0.0,0.0,0.0,0.0,0.0,0.0,0.0,0.0,0.0,0.0,0.0,0.0,0.0,0.0,0.0,0.0,0.0,0.0,0.0,0.0,0.0,0.0,0.0,0.0,0.0,0.0,0.0,0.0,0.0,0.0,0.0,0.0,0.0,0.0,0.0,0.0,0.0,0.0,0.0,0.0,0.0,0.0,0.0,-2.7315,-2.7315,-2.7315,-2.7315,-2.7315,-2.7315,0.0,0.0,0.0,0.0,0.0,0.0,0.0,0.0,0.0,0.0,0.0,0.0,0.0,0.0,0.0,0.0,0.0,0.0,0.0,0.0,0.0,0.0,0.0,0.0,0.0,0.0,0.0,0.0,0.0,0.0,0.0,0.0,0.0,0.0,0.0,0.0,0.0,0.0,0.0,0.0,0.0,0.0,0.0,0.0,0.0,0.0,0.0,0.0,0.0,0.0,0.0,0.0,0.0,0.0,0.0,0.0,0.0,0.0,0.0,0.0,0.0,0.0,0.0,0.0,0.0,0.0,0.0,0.0,0.0,0.0,0.0,0.0,0.0,0.0,0.0,0.0,0.0,0.0,0.0,0.0,0.0,0.0,0.0,0.0,0.0,0.0,0.0,0.0,0.0,0.0,0.0,0.0,0.0,0.0,0.0,0.0,0.0,0.0,0.0,0.0,0.0,0.0,0.0,0.0,0.0,0.0,0.0,0.0,-2.7315,-2.7282,-2.7282,-2.728,-2.7315,-2.7315,0.0,0.0,0.0,0.0,0.0,0.0,0.0,0.0,0.0,0.0,0.0,0.0,0.0,0.0,0.0,0.0,0.0,0.0,0.0,0.0,0.0,0.0,0.0,0.0,0.0,0.0,0.0,0.0,0.0,0.0,0.0,0.0,0.0,0.0,0.0,0.0,0.0,0.0,0.0,0.0,0.0,0.0,0.0,0.0,0.0,0.0,0.0,0.0,0.0,0.0,0.0,0.0,0.0,0.0,0.0,0.0,0.0,0.0,0.0,0.0,0.0,0.0,0.0,0.0,0.0,0.0,0.0,0.0,0.0,0.0,0.0,0.0,0.0,0.0,0.0,0.0,0.0,0.0,0.0,0.0,0.0,0.0,0.0,0.0,0.0,0.0,0.0,0.0,0.0,0.0,0.0,0.0,0.0,0.0,0.0,0.0,0.0,0.0,0.0,0.0,0.0,0.0,0.0,0.0,0.0,0.0,0.0,0.0,0.0,-2.7297,-2.6799,-2.6283,-2.585,-2.5816,-2.5816,0.0,0.0,0.0,0.0,0.0,0.0,0.0,0.0,0.0,0.0,0.0,0.0,0.0,0.0,0.0,0.0,0.0,0.0,0.0,0.0,0.0,0.0,0.0,0.0,0.0,0.0,0.0,0.0,0.0,0.0,0.0,0.0,0.0,0.0,0.0,0.0,0.0,0.0,0.0,0.0,0.0,0.0,0.0,0.0,0.0,0.0,0.0,0.0,0.0,0.0,0.0,0.0,0.0,0.0,0.0,0.0,0.0,0.0,0.0,0.0,0.0,0.0,0.0,0.0,0.0,0.0,0.0,0.0,0.0,0.0,0.0,0.0,0.0,0.0,0.0,0.0,0.0,0.0,0.0,0.0,0.0,0.0,0.0,0.0,0.0,0.0,0.0,0.0,0.0,0.0,0.0,0.0,0.0,0.0,0.0,0.0,0.0,0.0,0.0,0.0,0.0,0.0,0.0,0.0,0.0,0.0,0.0,0.0,0.0,-2.654,0.0,-2.5491,-2.504,-2.5005,-2.5005,0.0,0.0,0.0,0.0,0.0,0.0,0.0,0.0,0.0,0.0,0.0,0.0,0.0,0.0,0.0,0.0,0.0,0.0,0.0,0.0,0.0,0.0,0.0,0.0,0.0,0.0,0.0,0.0,0.0,0.0,0.0,0.0,0.0,0.0,0.0,0.0,0.0,0.0,0.0,0.0,0.0,0.0,0.0,0.0,0.0,0.0,0.0,0.0,0.0,0.0,0.0,0.0,0.0,0.0,0.0,0.0,0.0,0.0,0.0,0.0,0.0,0.0,0.0,0.0,0.0,0.0,0.0,0.0,0.0,0.0,0.0,0.0,0.0,0.0,0.0,0.0,0.0,0.0,0.0,0.0,0.0,0.0,0.0,0.0,0.0,0.0,0.0,0.0,0.0,0.0,0.0,0.0,0.0,0.0,0.0,0.0,0.0,0.0,0.0,0.0,0.0,0.0,0.0,0.0,0.0,0.0,0.0,0.0,-2.5697,-2.504,-2.5005,-2.4954,-2.4971,-2.4919,-2.4922,0.0,0.0,0.0,0.0,0.0,0.0,0.0,0.0,0.0,0.0,0.0,0.0,0.0,0.0,0.0,0.0,0.0,0.0,0.0,0.0,0.0,0.0,0.0,0.0,0.0,0.0,0.0,0.0,0.0,0.0,0.0,0.0,0.0,0.0,0.0,0.0,0.0,0.0,0.0,0.0,0.0,0.0,0.0,0.0,0.0,0.0,0.0,0.0,0.0,0.0,0.0,0.0,0.0,0.0,0.0,0.0,0.0,0.0,0.0,0.0,0.0,0.0,0.0,0.0,0.0,0.0,0.0,0.0,0.0,0.0,0.0,0.0,0.0,0.0,0.0,0.0,0.0,0.0,0.0,0.0,0.0,0.0,0.0,0.0,0.0,0.0,0.0,0.0,0.0,0.0,0.0,0.0,0.0,0.0,0.0,0.0,0.0,0.0,0.0,0.0,0.0,0.0,0.0,0.0,0.0,0.0,0.0,0.0,0.0,-2.4181,-2.4181,-2.3922,-2.344,-2.3405,-2.3405,0.0,0.0,0.0,0.0,0.0,0.0,0.0,0.0,0.0,0.0,0.0,0.0,0.0,0.0,0.0,0.0,0.0,0.0,0.0,0.0,0.0,0.0,0.0,0.0,0.0,0.0,0.0,0.0,0.0,0.0,0.0,0.0,0.0,0.0,0.0,0.0,0.0,0.0,0.0,0.0,0.0,0.0,0.0,0.0,0.0,0.0,0.0,0.0,0.0,0.0,0.0,0.0,0.0,0.0,0.0,0.0,0.0,0.0,0.0,0.0,0.0,0.0,0.0,0.0,0.0,0.0,0.0,0.0,0.0,0.0,0.0,0.0,0.0,0.0,0.0,0.0,0.0,0.0,0.0,0.0,0.0,0.0,0.0,0.0,0.0,0.0,0.0,0.0,0.0,0.0,0.0,0.0,0.0,0.0,0.0,0.0,0.0,0.0,0.0,0.0,0.0,0.0,0.0,0.0,0.0,0.0,0.0,0.0,0.0,-2.3784,-2.3802,-2.3578,-2.3112,-2.3095,-2.2974,-2.2716,0.0,0.0,0.0,0.0,0.0,0.0,0.0,0.0,0.0,0.0,0.0,0.0,0.0,0.0,0.0,0.0,0.0,0.0,0.0,0.0,0.0,0.0,0.0,0.0,0.0,0.0,0.0,0.0,0.0,0.0,0.0,0.0,0.0,0.0,0.0,0.0,0.0,0.0,0.0,0.0,0.0,0.0,0.0,0.0,0.0,0.0,0.0,0.0,0.0,0.0,0.0,0.0,0.0,0.0,0.0,0.0,0.0,0.0,0.0,0.0,0.0,0.0,0.0,0.0,0.0,0.0,0.0,0.0,0.0,0.0,0.0,0.0,0.0,0.0,0.0,0.0,0.0,0.0,0.0,0.0,0.0,0.0,0.0,0.0,0.0,0.0,0.0,0.0,0.0,0.0,0.0,0.0,0.0,0.0,0.0,0.0,0.0,0.0,0.0,0.0,0.0,0.0,0.0,0.0,0.0,0.0,0.0,0.0,-2.3871,-2.3905,-2.3922,-2.3871,-2.3819,-2.3474,0.0,0.0,0.0,0.0,0.0,0.0,0.0,0.0,0.0,0.0,0.0,0.0,0.0,0.0,0.0,0.0,0.0,0.0,0.0,0.0,0.0,0.0,0.0,0.0,0.0,0.0,0.0,0.0,0.0,0.0,0.0,0.0,0.0,0.0,0.0,0.0,0.0,0.0,0.0,0.0,0.0,0.0,0.0,0.0,0.0,0.0,0.0,0.0,0.0,0.0,0.0,0.0,0.0,0.0,0.0,0.0,0.0,0.0,0.0,0.0,0.0,0.0,0.0,0.0,0.0,0.0,0.0,0.0,0.0,0.0,0.0,0.0,0.0,0.0,0.0,0.0,0.0,0.0,0.0,0.0,0.0,0.0,0.0,0.0,0.0,0.0,0.0,0.0,0.0,0.0,0.0,0.0,0.0,0.0,0.0,0.0,0.0,0.0,0.0,0.0,0.0,0.0,0.0,0.0,0.0,0.0,0.0,0.0,0.0,-2.4678,-2.5215,-2.5232,-2.4712,-2.4112,-2.3715,0.0,0.0,0.0,0.0,0.0,0.0,0.0,0.0,0.0,0.0,0.0,0.0,0.0,0.0,0.0,0.0,0.0,0.0,0.0,0.0,0.0,0.0,0.0,0.0,0.0,0.0,0.0,0.0,0.0,0.0,0.0,0.0,0.0,0.0,0.0,0.0,0.0,0.0,0.0,0.0,0.0,0.0,0.0,0.0,0.0,0.0,0.0,0.0,0.0,0.0,0.0,0.0,0.0,0.0,0.0,0.0,0.0,0.0,0.0,0.0,0.0,0.0,0.0,0.0,0.0,0.0,0.0,0.0,0.0,0.0,0.0,0.0,0.0,0.0,0.0,0.0,0.0,0.0,0.0,0.0,0.0,0.0,0.0,0.0,0.0,0.0,0.0,0.0,0.0,0.0,0.0,0.0,0.0,0.0,0.0,0.0,0.0,0.0,0.0,0.0,0.0,0.0,0.0,0.0,0.0,0.0,0.0,0.0,-2.4508,-2.5005,-2.6057,-2.6385,-2.5988,-2.4902,-2.4146,0.0,0.0,0.0,0.0,0.0,0.0,0.0,0.0,0.0,0.0,0.0,0.0,0.0,0.0,0.0,0.0,0.0,0.0,0.0,0.0,0.0,0.0,0.0,0.0,0.0,0.0,0.0,0.0,0.0,0.0,0.0,0.0,0.0,0.0,0.0,0.0,0.0,0.0,0.0,0.0,0.0,0.0,0.0,0.0,0.0,0.0,0.0,0.0,0.0,0.0,0.0,0.0,0.0,0.0,0.0,0.0,0.0,0.0,0.0,0.0,0.0,0.0,0.0,0.0,0.0,0.0,0.0,0.0,0.0,0.0,0.0,0.0,0.0,0.0,0.0,0.0,0.0,0.0,0.0,0.0,0.0,0.0,0.0,0.0,0.0,0.0,0.0,0.0,0.0,0.0,0.0,0.0,0.0,0.0,0.0,0.0,0.0,0.0,0.0,0.0,0.0,0.0,0.0,0.0,0.0,0.0,0.0,0.0,-2.5005,-2.5023,-2.6506,-2.7315,-2.728,-2.5799,-2.4663,0.0,0.0,0.0,0.0,0.0,0.0,0.0,0.0,0.0,0.0,0.0,0.0,0.0,0.0,0.0,0.0,0.0,0.0,0.0,0.0,0.0,0.0,0.0,0.0,0.0,0.0,0.0,0.0,0.0,0.0,0.0,0.0,0.0,0.0,0.0,0.0,0.0,0.0,0.0,0.0,0.0,0.0,0.0,0.0,0.0,0.0,0.0,0.0,0.0,0.0,0.0,0.0,0.0,0.0,0.0,0.0,0.0,0.0,0.0,0.0,0.0,0.0,0.0,0.0,0.0,0.0,0.0,0.0,0.0,0.0,0.0,0.0,0.0,0.0,0.0,0.0,0.0,0.0,0.0,0.0,0.0,0.0,0.0,0.0,0.0,0.0,0.0,0.0,0.0,0.0,0.0,0.0,0.0,0.0,0.0,0.0,0.0,0.0,0.0,0.0,0.0,0.0,0.0,0.0,0.0,0.0,0.0,0.0,-2.5005,-2.5023,-2.6506,-2.7315,-2.7282,-2.5754,-2.4849,0.0,0.0,0.0,0.0,0.0,0.0,0.0,0.0,0.0,0.0,0.0,0.0,0.0,0.0,0.0,0.0,0.0,0.0,0.0,0.0,0.0,0.0,0.0,0.0,0.0,0.0,0.0,0.0,0.0,0.0,0.0,0.0,0.0,0.0,0.0,0.0,0.0,0.0,0.0,0.0,0.0,0.0,0.0,0.0,0.0,0.0,0.0,0.0,-1.7212,0.0,0.0,0.0,0.0,0.0,0.0,0.0,0.0,0.0,0.0,0.0,0.0,0.0,0.0,0.0,0.0,0.0,0.0,0.0,0.0,0.0,0.0,0.0,0.0,0.0,0.0,0.0,0.0,0.0,0.0,0.0,0.0,0.0,0.0,0.0,0.0,0.0,0.0,0.0,0.0,0.0,0.0,0.0,0.0,0.0,0.0,0.0,0.0,0.0,0.0,0.0,0.0,0.0,0.0,0.0,0.0,0.0,0.0,0.0,-2.5178,-2.554,-2.6695,-2.7315,-2.7247,-2.5725,-2.4876,0.0,0.0,0.0,0.0,0.0,0.0,0.0,0.0,0.0,0.0,0.0,0.0,0.0,0.0,0.0,0.0,0.0,0.0,0.0,0.0,0.0,0.0,0.0,0.0,0.0,0.0,0.0,0.0,0.0,0.0,0.0,0.0,0.0,0.0,0.0,0.0,0.0,0.0,0.0,0.0,0.0,0.0,0.0,0.0,0.0,0.0,0.0,0.0,0.0,0.0,0.0,0.0,0.0,0.0,0.0,0.0,0.0,0.0,0.0,0.0,0.0,0.0,0.0,0.0,0.0,0.0,0.0,0.0,0.0,0.0,0.0,0.0,0.0,0.0,0.0,0.0,0.0,0.0,0.0,0.0,0.0,0.0,0.0,0.0,0.0,0.0,0.0,0.0,0.0,0.0,0.0,0.0,0.0,0.0,0.0,0.0,0.0,0.0,0.0,0.0,0.0,0.0,0.0,0.0,0.0,0.0,0.0,-2.452,-2.5321,-2.6061,-2.6854,-2.725,-2.7233,-2.5632,-2.4799,-2.4824,0.0,0.0,0.0,0.0,0.0,0.0,0.0,0.0,0.0,0.0,0.0,0.0,0.0,0.0,0.0,0.0,0.0,0.0,0.0,0.0,0.0,0.0,0.0,0.0,0.0,0.0,0.0,0.0,0.0,0.0,0.0,0.0,0.0,0.0,0.0,0.0,0.0,0.0,-1.7212,-1.7212,0.0,0.0,0.0,0.0,0.0,0.0,0.0,0.0,-1.7212,0.0,0.0,0.0,0.0,0.0,0.0,0.0,0.0,0.0,0.0,0.0,0.0,0.0,0.0,0.0,0.0,0.0,0.0,0.0,0.0,0.0,0.0,0.0,0.0,0.0,0.0,0.0,0.0,0.0,0.0,0.0,0.0,0.0,0.0,0.0,0.0,0.0,0.0,0.0,0.0,0.0,0.0,0.0,0.0,0.0,0.0,0.0,0.0,0.0,0.0,0.0,0.0,0.0,0.0,0.0,0.0,-2.3707,-2.4401,-2.517,-2.6002,-2.6694,-2.7057,-2.7006,-2.5492,-2.4645,-2.4592,0.0,0.0,0.0,0.0,0.0,0.0,0.0,0.0,0.0,0.0,0.0,0.0,0.0,0.0,0.0,0.0,0.0,0.0,0.0,0.0,0.0,0.0,0.0,0.0,0.0,0.0,0.0,0.0,0.0,0.0,0.0,0.0,0.0,0.0,0.0,0.0,0.0,0.0,0.0,-1.7212,-1.7212,0.0,0.0,0.0,0.0,0.0,0.0,0.0,0.0,-1.7212,0.0,0.0,0.0,0.0,0.0,0.0,0.0,0.0,0.0,0.0,0.0,0.0,0.0,0.0,0.0,0.0,0.0,0.0,0.0,0.0,0.0,0.0,0.0,0.0,0.0,0.0,0.0,0.0,0.0,0.0,0.0,0.0,0.0,0.0,0.0,0.0,0.0,0.0,0.0,0.0,0.0,0.0,0.0,0.0,0.0,0.0,0.0,0.0,0.0,0.0,0.0,0.0,0.0,0.0,0.0,-2.4137,-2.4592,-2.536,-2.6474,-2.6836,-2.7008,-2.6974,-2.5444,-2.4596,0.0,0.0,0.0,0.0,0.0,0.0,0.0,0.0,0.0,0.0,0.0,0.0,0.0,0.0,0.0,0.0,0.0,0.0,0.0,0.0,0.0,0.0,0.0,0.0,0.0,0.0,0.0,0.0,0.0,0.0,0.0,0.0,0.0,0.0,0.0,0.0,0.0,0.0,0.0,0.0,-1.7212,-1.7212,-1.7212,0.0,0.0,0.0,0.0,0.0,0.0,-1.7212,-1.7212,0.0,0.0,0.0,0.0,0.0,0.0,0.0,0.0,0.0,0.0,0.0,0.0,0.0,0.0,0.0,0.0,0.0,0.0,0.0,0.0,0.0,0.0,0.0,0.0,0.0,0.0,0.0,0.0,0.0,0.0,0.0,0.0,0.0,0.0,0.0,0.0,0.0,0.0,0.0,0.0,0.0,0.0,0.0,0.0,0.0,0.0,0.0,0.0,0.0,0.0,0.0,0.0,0.0,0.0,0.0,-2.4575,-2.4889,-2.5673,-2.6906,-2.6958,-2.6942,-2.6908,-2.5395,-2.4582,0.0,0.0,0.0,0.0,0.0,0.0,0.0,0.0,0.0,0.0,0.0,0.0,0.0,0.0,0.0,0.0,0.0,0.0,0.0,0.0,0.0,0.0,0.0,0.0,0.0,0.0,0.0,0.0,0.0,0.0,0.0,0.0,0.0,0.0,0.0,0.0,0.0,0.0,0.0,0.0,0.0,-1.7212,-1.7212,-1.7212,0.0,0.0,0.0,0.0,-1.7356,-1.7277,0.0,0.0,0.0,0.0,0.0,0.0,0.0,0.0,0.0,0.0,0.0,0.0,0.0,0.0,0.0,0.0,0.0,0.0,0.0,0.0,0.0,0.0,0.0,0.0,0.0,0.0,0.0,0.0,0.0,0.0,0.0,0.0,0.0,0.0,0.0,0.0,0.0,0.0,0.0,0.0,0.0,0.0,0.0,0.0,0.0,0.0,0.0,0.0,0.0,0.0,0.0,0.0,0.0,0.0,0.0,0.0,-2.4669,-2.5229,-2.5961,-2.6858,-2.6792,-2.6742,-2.6708,-2.5285,-2.4506,0.0,0.0,0.0,0.0,0.0,0.0,0.0,0.0,0.0,0.0,0.0,0.0,0.0,0.0,0.0,0.0,0.0,0.0,0.0,0.0,0.0,0.0,0.0,0.0,0.0,0.0,0.0,0.0,0.0,0.0,0.0,0.0,0.0,0.0,0.0,0.0,0.0,0.0,0.0,0.0,0.0,-1.7212,-1.7212,-1.7212,-1.7212,0.0,0.0,-1.7382,-1.7904,-1.7552,0.0,0.0,0.0,0.0,0.0,0.0,0.0,0.0,0.0,0.0,0.0,0.0,0.0,0.0,0.0,0.0,0.0,0.0,0.0,0.0,0.0,0.0,0.0,0.0,0.0,0.0,0.0,0.0,0.0,0.0,0.0,0.0,0.0,0.0,0.0,0.0,0.0,0.0,0.0,0.0,0.0,0.0,0.0,0.0,0.0,0.0,0.0,0.0,0.0,0.0,0.0,0.0,0.0,0.0,0.0,-2.3894,-2.4582,-2.5299,-2.6013,-2.6741,-2.6742,-2.6708,-2.6691,-2.5269,-2.4508,0.0,0.0,0.0,0.0,0.0,0.0,0.0,0.0,0.0,0.0,0.0,0.0,0.0,0.0,0.0,0.0,0.0,0.0,0.0,0.0,0.0,0.0,0.0,0.0,0.0,0.0,0.0,0.0,0.0,0.0,0.0,0.0,0.0,0.0,0.0,0.0,0.0,0.0,0.0,0.0,0.0,0.0,-1.7557,-1.7315,0.0,0.0,0.0,-1.77,-1.7948,0.0,0.0,0.0,0.0,0.0,0.0,0.0,0.0,0.0,0.0,0.0,0.0,0.0,0.0,0.0,0.0,0.0,0.0,0.0,0.0,0.0,0.0,0.0,0.0,0.0,0.0,0.0,0.0,0.0,0.0,0.0,0.0,0.0,0.0,0.0,0.0,0.0,0.0,0.0,0.0,0.0,0.0,0.0,0.0,0.0,0.0,0.0,0.0,0.0,0.0,0.0,0.0,0.0,0.0,0.0,0.0,0.0,-2.4506,-2.5452,-2.6182,-2.6674,-2.6708,-2.6708,-2.6674,-2.5455,0.0,0.0,0.0,0.0,0.0,0.0,0.0,0.0,0.0,0.0,0.0,0.0,0.0,0.0,0.0,0.0,0.0,0.0,0.0,0.0,0.0,0.0,0.0,0.0,0.0,0.0,0.0,-1.9176,0.0,0.0,0.0,0.0,0.0,0.0,0.0,0.0,0.0,0.0,0.0,0.0,0.0,0.0,-1.7407,-1.79,-1.7579,-1.7463,0.0,0.0,-1.8004,-1.8146,-1.8137,-1.8093,0.0,0.0,0.0,0.0,0.0,0.0,0.0,0.0,0.0,0.0,0.0,0.0,0.0,0.0,0.0,0.0,0.0,0.0,0.0,0.0,0.0,0.0,0.0,0.0,0.0,0.0,0.0,0.0,0.0,0.0,0.0,0.0,0.0,0.0,0.0,0.0,0.0,0.0,0.0,0.0,0.0,0.0,0.0,0.0,0.0,0.0,0.0,0.0,0.0,0.0,0.0,0.0,0.0,0.0,0.0,-2.4541,-2.5912,-2.664,-2.6708,-2.6708,-2.6708,-2.6674,-2.593,-2.5203,0.0,0.0,0.0,0.0,0.0,0.0,0.0,0.0,0.0,0.0,0.0,0.0,0.0,0.0,0.0,0.0,0.0,0.0,0.0,0.0,0.0,0.0,0.0,0.0,0.0,0.0,0.0,0.0,0.0,0.0,0.0,0.0,0.0,0.0,0.0,0.0,0.0,0.0,0.0,0.0,0.0,-1.7891,-1.8065,-1.8061,-1.8048,0.0,0.0,-1.8248,-1.8744,-1.8809,-1.8767,-1.856,0.0,0.0,0.0,0.0,0.0,0.0,0.0,0.0,0.0,0.0,0.0,0.0,0.0,0.0,0.0,0.0,0.0,0.0,0.0,0.0,0.0,0.0,0.0,0.0,0.0,0.0,0.0,0.0,0.0,0.0,0.0,0.0,0.0,0.0,0.0,0.0,0.0,0.0,0.0,0.0,0.0,0.0,0.0,0.0,0.0,0.0,0.0,0.0,0.0,0.0,0.0,0.0,0.0,-2.4554,-2.4584,-2.6045,-2.6809,-2.6825,-2.6809,-2.6792,-2.6708,-2.5998,-2.5253,0.0,0.0,0.0,0.0,0.0,0.0,0.0,0.0,0.0,0.0,0.0,0.0,0.0,0.0,0.0,0.0,0.0,0.0,0.0,0.0,0.0,0.0,0.0,0.0,0.0,0.0,0.0,0.0,-1.7861,-1.7578,-1.7227,0.0,0.0,0.0,0.0,0.0,0.0,0.0,0.0,0.0,0.0,-1.8072,-1.8471,-1.8234,0.0,0.0,-1.8211,-1.7985,-1.8023,-1.8119,-1.8225,-1.8353,-1.8078,0.0,0.0,0.0,0.0,0.0,0.0,0.0,0.0,0.0,0.0,0.0,0.0,0.0,0.0,0.0,0.0,0.0,0.0,0.0,0.0,0.0,0.0,0.0,0.0,0.0,0.0,0.0,0.0,0.0,0.0,0.0,0.0,0.0,0.0,0.0,0.0,0.0,0.0,0.0,0.0,0.0,0.0,0.0,0.0,0.0,0.0,0.0,0.0,0.0,0.0,0.0,0.0,-2.463,-2.4613,-2.6111,-2.6876,-2.6876,-2.6859,-2.6792,-2.6691,-2.6201,-2.5592,0.0,0.0,0.0,0.0,0.0,0.0,0.0,0.0,0.0,0.0,0.0,0.0,0.0,0.0,0.0,0.0,0.0,0.0,0.0,0.0,0.0,0.0,0.0,0.0,0.0,0.0,0.0,0.0,-1.755,-1.7178,-1.7136,0.0,0.0,0.0,0.0,0.0,0.0,0.0,0.0,0.0,0.0,-1.8063,-1.8536,-1.8202,-1.8063,-1.8465,-1.8135,-1.7797,-1.7584,-1.791,-1.8242,-1.8261,0.0,0.0,0.0,0.0,0.0,0.0,0.0,0.0,0.0,0.0,0.0,0.0,0.0,0.0,0.0,0.0,0.0,0.0,0.0,0.0,0.0,0.0,0.0,0.0,0.0,0.0,0.0,0.0,0.0,0.0,0.0,0.0,0.0,0.0,0.0,0.0,0.0,0.0,0.0,0.0,0.0,0.0,0.0,0.0,0.0,0.0,0.0,0.0,0.0,0.0,0.0,0.0,0.0,-2.4673,-2.463,-2.6111,-2.6876,-2.6876,-2.6775,-2.6708,-2.6691,-2.6674,-2.6336,-2.5592,0.0,0.0,0.0,0.0,0.0,0.0,0.0,0.0,0.0,0.0,0.0,0.0,0.0,0.0,0.0,0.0,0.0,0.0,0.0,0.0,0.0,0.0,0.0,0.0,0.0,0.0,-1.8422,-1.772,-1.7136,0.0,0.0,0.0,0.0,0.0,0.0,0.0,0.0,0.0,0.0,-1.7609,-1.7943,-1.8092,-1.8,-1.7898,-1.7933,-1.781,-1.7686,-1.7699,-1.8605,-1.9121,0.0,0.0,0.0,0.0,0.0,0.0,0.0,0.0,0.0,0.0,0.0,0.0,0.0,0.0,0.0,0.0,0.0,0.0,0.0,0.0,0.0,0.0,0.0,0.0,0.0,0.0,0.0,0.0,-2.4609,0.0,0.0,0.0,0.0,0.0,0.0,0.0,0.0,0.0,0.0,0.0,-2.4215,-2.4215,0.0,0.0,0.0,0.0,0.0,0.0,0.0,0.0,0.0,0.0,0.0,0.0,-2.463,-2.4664,-2.6127,-2.6876,-2.6876,-2.6859,-2.6792,-2.6691,-2.6708,-2.6353,-2.5626,0.0,0.0,0.0,0.0,0.0,0.0,0.0,0.0,0.0,0.0,0.0,0.0,0.0,0.0,0.0,0.0,0.0,0.0,0.0,0.0,0.0,0.0,0.0,0.0,0.0,-1.7639,0.0,0.0,0.0,0.0,0.0,0.0,0.0,0.0,0.0,0.0,0.0,-1.7023,-1.7052,-1.7635,-1.7978,-1.7867,-1.7863,-1.7863,0.0,0.0,0.0,0.0,0.0,0.0,0.0,0.0,0.0,0.0,0.0,0.0,0.0,0.0,-1.9462,-1.9267,-1.8765,-1.8402,-1.839,0.0,0.0,0.0,0.0,0.0,0.0,0.0,0.0,0.0,0.0,0.0,0.0,0.0,0.0,0.0,0.0,-2.5385,0.0,0.0,0.0,0.0,0.0,0.0,0.0,0.0,-2.5005,-2.5005,-2.5005,-2.5005,-2.5005,0.0,-2.5005,-2.4488,0.0,0.0,0.0,0.0,0.0,0.0,0.0,0.0,-2.4737,-2.4756,-2.6175,-2.6942,-2.6909,-2.6876,-2.6792,-2.6691,-2.6708,-2.6471,-2.5998,-2.5157,-2.4375,0.0,0.0,0.0,0.0,0.0,0.0,0.0,0.0,0.0,0.0,0.0,0.0,0.0,0.0,0.0,0.0,0.0,0.0,0.0,0.0,0.0,0.0,0.0,-1.7598,0.0,0.0,0.0,0.0,0.0,0.0,0.0,0.0,0.0,-1.7052,-1.7086,-1.7065,-1.7065,-1.7445,-1.7657,-1.7557,0.0,0.0,0.0,0.0,0.0,0.0,0.0,-1.838,-1.9017,-1.9384,-1.9773,-2.03,-2.0388,-2.0388,-2.0388,0.0,0.0,-2.0137,-1.9664,-1.927,-1.9219,-1.8716,-1.8143,-1.7618,-1.7211,-1.6856,0.0,0.0,0.0,0.0,0.0,0.0,0.0,0.0,-2.6156,-2.6143,0.0,-2.6143,0.0,0.0,0.0,0.0,0.0,0.0,0.0,0.0,-2.5109,-2.5092,-2.5077,-2.5109,-2.5092,-2.5074,-2.5126,-2.5092,-2.5025,-2.4196,0.0,0.0,0.0,0.0,0.0,0.0,-2.4962,-2.4976,-2.6289,-2.7008,-2.6975,-2.6792,-2.6708,-2.6708,-2.6708,-2.6691,-2.6657,-2.5698,-2.5146,-2.5079,-2.3139,0.0,0.0,0.0,0.0,0.0,0.0,0.0,0.0,0.0,0.0,0.0,0.0,0.0,0.0,0.0,0.0,0.0,0.0,0.0,0.0,-1.8988,0.0,0.0,0.0,0.0,0.0,0.0,0.0,0.0,0.0,0.0,-1.723,-1.7204,-1.7212,-1.7178,0.0,0.0,0.0,0.0,-1.7587,-1.7702,-1.8002,-1.8228,-1.829,-1.8694,-1.9045,-1.9096,0.0,0.0,-2.138,-2.1481,-2.1455,-2.1468,-2.143,-2.1345,-2.0855,-2.0296,-1.9865,-1.9703,-1.9233,-1.8583,-1.7976,-1.7819,-1.7697,-2.6917,0.0,0.0,0.0,0.0,-2.6095,-2.6457,-2.7045,-2.7032,-2.7001,-2.6954,-2.6954,0.0,0.0,0.0,0.0,0.0,0.0,-2.6626,-2.6644,-2.6642,-2.6626,-2.6659,-2.6644,-2.6626,-2.6644,-2.6642,-2.6644,-2.6592,-2.5803,-2.4873,-2.3822,0.0,0.0,0.0,0.0,-2.5007,-2.551,-2.6448,-2.6875,-2.6775,-2.6725,-2.6708,-2.6708,-2.6708,-2.6708,-2.6708,-2.6404,-2.5883,-2.5129,-2.4512,0.0,0.0,0.0,0.0,0.0,0.0,0.0,0.0,0.0,0.0,0.0,0.0,0.0,0.0,0.0,0.0,0.0,0.0,0.0,-1.9107,-1.9121,-1.8657,0.0,0.0,0.0,0.0,0.0,0.0,0.0,0.0,0.0,-1.7653,-1.7333,-1.7044,0.0,0.0,-1.7565,-1.7381,-1.7965,-1.8382,-1.8231,0.0,0.0,0.0,-1.9674,-1.9977,-2.0813,-2.1123,-2.1317,-2.1455,-2.1481,-2.1481,-2.1493,-2.1481,-2.1584,-2.1782,-2.1394,-2.1023,-2.0925,-2.0435,-1.9954,-1.9719,-1.8996,-1.8353,-2.8403,-2.7932,-2.7271,-2.6994,-2.6962,-2.6894,-2.7081,-2.7438,-2.7393,-2.7346,-2.7315,-2.7315,-2.7023,-2.6575,-2.6575,0.0,0.0,0.0,-2.7315,-2.7315,-2.7315,-2.7315,-2.7315,-2.7315,-2.7315,-2.7315,-2.7315,-2.7315,-2.7282,-2.6816,-2.5954,-2.4749,0.0,0.0,-2.4227,-2.4923,-2.5446,-2.5863,-2.6583,-2.6909,-2.6808,-2.6758,-2.6708,-2.6708,-2.6708,-2.6708,-2.6708,-2.6708,-2.6387,-2.5765,-2.5313,-2.4414,0.0,0.0,0.0,0.0,0.0,0.0,0.0,0.0,0.0,0.0,0.0,-1.9955,0.0,0.0,0.0,0.0,-2.0082,-2.0025,-1.9299,-1.9333,0.0,0.0,0.0,0.0,0.0,0.0,0.0,-1.7878,-1.7813,-1.7878,-1.8224,-1.7915,-1.7621,-1.7542,-1.7904,-1.81,-1.7954,0.0,-1.9185,-1.9124,-1.947,-1.9978,-2.0613,-2.0648,-2.0898,-2.1797,-2.1864,-2.192,-2.2108,-2.2146,-2.2146,-2.2133,-2.2146,-2.2246,-2.2543,-2.233,-2.1931,-2.1453,-2.0801,-2.0277,-2.0003,-1.9315,-1.8795,-3.009,-2.9967,-2.8434,-2.7855,-2.7864,-2.7672,-2.7627,-2.7672,-2.7551,-2.7487,-2.7489,-2.7487,-2.7437,-2.7385,-2.7385,0.0,0.0,-2.7315,-2.7315,-2.7315,-2.7315,-2.7315,-2.7315,-2.7315,-2.7315,-2.7315,-2.7315,-2.7315,-2.7315,-2.7315,-2.6919,-2.6195,-2.5523,-2.5126,-2.5025,-2.573,-2.6094,-2.6111,-2.6694,-2.7024,-2.6975,-2.6792,-2.6708,-2.6708,-2.6708,-2.6708,-2.6708,-2.6708,-2.6708,-2.6674,-2.5732,-2.4678,-2.3601,0.0,0.0,0.0,0.0,0.0,0.0,0.0,0.0,0.0,0.0,0.0,0.0,0.0,0.0,0.0,-2.0438,0.0,-2.0121,-1.976,0.0,0.0,0.0,-1.8349,-1.8845,-1.8898,-1.8898,-1.8898,0.0,0.0,0.0,0.0,-1.8734,-1.8712,-1.8723,-1.8757,-1.8799,-1.9495,-2.0066,-2.0258,-2.0964,-2.1496,-2.1509,-2.1597,-2.1794,-2.2284,-2.2343,-2.2506,-2.2932,-2.3045,-2.3083,-2.3032,-2.3083,-2.307,-2.3095,-2.2942,-2.2567,-2.133,-2.0643,-2.0009,-1.9553,-1.9246,-1.9071,-3.009,-3.0071,-2.9671,-2.9464,-2.9379,-2.9333,-2.9202,-2.9105,-2.9073,-2.9039,-2.8989,-2.8989,-2.8661,-2.8144,-2.8144,-2.7816,-2.7315,-2.7315,-2.7315,-2.7315,-2.7315,-2.7315,-2.7315,-2.7315,-2.7315,-2.7315,-2.7315,-2.7315,-2.7315,-2.7315,-2.7195,-2.7023,-2.6833,-2.6161,-2.5074,-2.5747,-2.6096,-2.6018,-2.6725,-2.7023,-2.6926,-2.6775,-2.6708,-2.6708,-2.6708,-2.6708,-2.6708,-2.6708,-2.6708,-2.6691,-2.6166,-2.5242,-2.3951,-2.3115,0.0,0.0,0.0,0.0,0.0,0.0,0.0,0.0,0.0,-2.001,-1.9744,0.0,-1.9972,0.0,-2.153,-2.2025,-2.1545,-2.1119,0.0,0.0,-1.9061,-1.8754,-1.8898,-1.8898,-1.8898,-1.8898,-1.8898,-1.9034,-1.9396,-1.9885,-2.0265,-2.0438,-2.0117,-1.9861,-1.9749,-2.0783,-2.1446,-2.1268,-2.1456,-2.1772,-2.2058,-2.2456,-2.2719,-2.2895,-2.2907,-2.2957,-2.3083,-2.3095,-2.3095,-2.3095,-2.3095,-2.3095,-2.3095,-2.2322,-2.1553,-2.1155,-2.0976,-2.0848,-2.0645,-1.9813,-1.9098,-3.1124,-3.1142,-3.1124,-3.1039,-3.0869,-3.0154,-2.9776,-2.9693,-2.9591,-2.954,-2.9506,-2.9506,-2.9282,-2.8903,-2.8903,-2.8678,-2.8265,-2.7937,-2.7782,-2.7764,-2.747,-2.7315,-2.7315,-2.7315,-2.7315,-2.7315,-2.7315,-2.7315,-2.7315,-2.7315,-2.7315,-2.7315,-2.7315,-2.6695,-2.5574,-2.5904,-2.6079,-2.6065,-2.6756,-2.7039,-2.6909,-2.6825,-2.6775,-2.6691,-2.6387,-2.6218,-2.6201,-2.5879,-2.5644,-2.5497,-2.5279,-2.4596,-2.3358,-2.2758,-2.197,0.0,0.0,0.0,0.0,0.0,0.0,0.0,0.0,0.0,0.0,0.0,-2.0584,0.0,-2.2131,0.0,-2.201,-2.1737,-2.1353,-2.0743,-2.0057,-1.9731,-1.9984,-1.9824,-1.9706,-1.9706,-1.9706,-1.9893,-2.0393,-2.0744,-2.1147,-2.1601,-2.1559,-2.1376,-2.1117,-2.177,-2.2265,-2.2125,-2.223,-2.2396,-2.2648,-2.2895,-2.3095,-2.3095,-2.3095,-2.3095,-2.3095,-2.3095,-2.3095,-2.3095,-2.3095,-2.3095,-2.3065,-2.2567,-2.1908,-2.1585,-2.1313,-2.0901,-2.0323,-1.9627,-1.9098,-3.2406,-3.2406,-3.2406,-3.2336,-3.2127,-3.0697,-3.0089,-3.0089,-2.9902,-2.9834,-2.9799,-2.9799,-2.9748,-2.9661,-2.9661,-2.9592,-2.9472,-2.8834,-2.8541,-2.8506,-2.7868,-2.7575,-2.7575,-2.7592,-2.7523,-2.7437,-2.7437,-2.7385,-2.7315,-2.7315,-2.7315,-2.7315,-2.7315,-2.6902,-2.6126,-2.6092,-2.6128,-2.6249,-2.6824,-2.7039,-2.6926,-2.6909,-2.6808,-2.6572,-2.5963,-2.5558,-2.5456,-2.4846,-2.4367,-2.4097,-2.4099,-2.3671,-2.2671,-2.2355,-2.1912,0.0,-2.0811,0.0,0.0,0.0,0.0,0.0,0.0,0.0,0.0,-2.1171,-2.1449,-2.1966,-2.2482,-2.2625,-2.2149,-2.2127,-2.2098,-2.2019,-2.1237,-2.092,-2.1318,-2.1046,-2.0813,-2.0804,-2.0817,-2.1014,-2.1511,-2.1576,-2.1809,-2.2386,-2.2812,-2.287,-2.2546,-2.2606,-2.2783,-2.2869,-2.3001,-2.2995,-2.3032,-2.3083,-2.3095,-2.3095,-2.3095,-2.3095,-2.3095,-2.3095,-2.3095,-2.3095,-2.3095,-2.3095,-2.3095,-2.3017,-2.272,-2.2144,-2.1459,-2.0613,-1.9649,-1.9231,-1.9098,-3.2406,-3.2406,-3.2406,-3.2371,-3.2318,-3.1917,-3.1725,-3.1673,-3.162,-3.1549,-3.1443,-3.1388,-3.1059,-3.0472,-3.0455,-3.0127,-2.9489,-2.9368,-2.9299,-2.9282,-2.9161,-2.9075,-2.9092,-2.9092,-2.8765,-2.8213,-2.8196,-2.7885,-2.7315,-2.7315,-2.7315,-2.7315,-2.7315,-2.6885,0.0,0.0,0.0,0.0,-2.7082,-2.7071,-2.6975,-2.6975,-2.6636,-2.5909,-2.5757,0.0,-2.4823,-2.4591,-2.446,-2.4415,-2.4663,0.0,0.0,0.0,0.0,0.0,0.0,0.0,0.0,0.0,0.0,0.0,-2.1995,-2.1824,-2.1812,-2.2218,-2.2485,-2.2569,-2.3074,-2.3372,-2.3271,-2.2937,-2.2738,-2.2693,-2.2167,-2.1712,-2.1458,-2.1302,-2.128,-2.1354,-2.1355,-2.1564,-2.2152,-2.2569,-2.2895,-2.3039,-2.3535,-2.3819,-2.3715,-2.3505,-2.3361,-2.331,-2.3165,-2.3108,-2.3095,-2.3095,-2.3095,-2.3095,-2.3095,-2.3095,-2.3095,-2.3095,-2.3095,-2.3095,-2.3095,-2.3108,-2.312,-2.2677,-2.2365,-2.2156,-2.1198,-2.0226,-1.9944,-1.9462,-1.9098,-3.3301,0.0,-3.2932,-3.2739,0.0,-3.2336,-3.2267,-3.2232,-3.2073,-3.1965,-3.1839,-3.1801,-3.1593,-3.1248,-3.1231,-3.1007,-3.0627,-3.0265,-3.0093,-3.0075,-2.9679,-2.9506,-2.9506,-2.9506,-2.9299,-2.8954,-2.8954,-2.8765,-2.8403,-2.8385,-2.8213,-2.7833,-2.7833,-2.7454,-2.6713,-2.6695,-2.6713,-2.6713,-2.7027,-2.7152,-2.7055,-2.7039,-2.6818,-2.6363,0.0,0.0,0.0,0.0,0.0,0.0,0.0,0.0,0.0,0.0,0.0,-2.3482,-2.3119,-2.2954,-2.3077,-2.2891,-2.2909,-2.3236,-2.3262,-2.3024,-2.253,-2.2984,-2.3257,-2.3167,-2.343,-2.3595,-2.3573,-2.3377,-2.3246,-2.3224,-2.2807,-2.2418,-2.2201,-2.2005,-2.1862,-2.1944,-2.193,-2.2139,-2.2714,-2.3001,-2.3313,-2.3587,-2.3887,-2.4125,-2.4067,-2.3806,-2.3539,-2.3288,-2.318,-2.3108,-2.3095,-2.3095,-2.3095,-2.3095,-2.3095,-2.3095,-2.3095,-2.3095,-2.3095,-2.3095,-2.3095,-2.317,-2.3471,-2.3263,-2.3027,-2.2898,-2.238,-2.1793,-2.1484,-2.0386,-1.9575,-3.45,-3.3917,-3.39,-3.3564,-3.2998,-3.3015,-3.2947,-3.2809,0.0,0.0,0.0,-3.1801,-3.18,-3.18,-3.18,-3.18,-3.1765,-3.1162,-3.0904,-3.0869,-3.0213,-2.9903,-2.992,-2.9903,-2.9851,-2.9713,-2.9713,-2.9644,-2.9506,-2.9506,-2.9196,-2.8644,-2.8592,-2.823,-2.754,-2.7489,-2.7109,-2.6385,-2.6971,-2.7233,-2.7085,-2.7119,-2.7035,-2.6802,-2.6236,-2.5811,-2.5564,-2.4968,-2.4475,-2.4145,-2.4229,-2.4296,-2.428,-2.4149,-2.4046,-2.3977,-2.3665,-2.3544,-2.3768,-2.3654,-2.3798,-2.4271,-2.4281,-2.3968,-2.3213,-2.3564,-2.376,-2.3595,-2.3595,-2.3595,-2.3595,-2.3714,-2.3774,-2.3767,-2.3548,-2.3372,-2.3324,-2.2879,-2.2634,-2.2671,-2.2614,-2.2754,-2.3289,-2.3393,-2.3509,-2.3952,-2.407,-2.4096,-2.4024,-2.3776,-2.348,-2.3185,-2.3108,-2.3095,-2.3095,-2.3095,-2.3095,-2.3095,-2.3195,-2.3258,-2.3271,-2.3333,-2.3396,-2.3496,-2.3409,-2.3634,-2.4029,-2.4098,-2.4103,-2.4014,-2.3869,-2.3691,-2.3144,-2.1732,-2.0668,-3.558,-3.5471,-3.5471,-3.5433,-3.5325,-3.5325,-3.5014,-3.4412,-3.2791,-3.1984,-3.1893,-3.1837,-3.18,-3.18,-3.18,-3.18,-3.18,-3.1679,-3.1645,0.0,-3.1524,-3.1472,-3.1472,-3.1472,-3.1145,-3.0575,-3.0524,-3.0162,-2.9575,-2.9523,-2.9437,-2.9368,-2.9351,-2.8972,-2.8316,-2.8247,-2.7868,-2.7144,-2.723,-2.725,-2.7103,-2.72,-2.6907,-2.616,-2.6057,-2.568,-2.5047,-2.4868,-2.4692,-2.4538,-2.5133,-2.5439,-2.5409,-2.5899,-2.6253,-2.6219,-2.5859,-2.5679,-2.5671,-2.5074,-2.455,-2.4328,-2.4281,-2.4152,-2.3903,-2.3921,-2.3861,-2.3616,-2.361,-2.3595,-2.3625,-2.4111,-2.4455,-2.4485,-2.4917,-2.5071,-2.4602,-2.4085,-2.3739,-2.3771,-2.3399,-2.3315,-2.3812,-2.3913,-2.3968,-2.4086,-2.4125,-2.4067,-2.3949,-2.376,-2.348,-2.3198,-2.3095,-2.3095,-2.3095,-2.3095,-2.312,-2.3095,-2.3521,-2.3828,-2.3879,-2.4148,-2.4399,-2.4512,-2.4437,-2.4525,-2.4662,-2.4675,-2.4718,-2.4681,-2.4366,-2.4065,-2.4366,-2.3587,-2.2625,-3.6794,-3.6411,-3.6393,-3.6157,-3.5794,-3.5794,-3.5584,-3.5164,-3.4334,-3.3354,-3.2445,-3.1991,-3.18,-3.18,-3.18,-3.18,-3.18,-3.18,-3.18,-3.18,-3.18,-3.18,-3.18,-3.18,-3.1646,-3.13,-3.1282,-3.111,-3.0765,-3.0748,-3.0558,-3.0144,-2.9713,-2.9334,-2.9023,-2.9006,-2.8627,-2.7902,-2.7506,-2.7266,-2.7217,-2.7266,-2.7093,-2.6718,-2.67,-2.653,-2.6107,-2.6059,-2.6012,-2.5885,-2.6178,-2.6349,-2.6317,-2.6555,-2.6607,-2.6385,-2.621,-2.5998,-2.5781,-2.5237,-2.4739,-2.4343,-2.4281,-2.424,-2.4124,-2.4046,-2.3903,-2.3732,-2.3968,-2.4163,-2.4156,-2.4739,-2.5143,-2.5143,-2.545,-2.5401,-2.4995,-2.4697,-2.4387,-2.4129,-2.3866,-2.3783,-2.4057,-2.4125,-2.4125,-2.4125,-2.4125,-2.4067,-2.392,-2.3832,-2.3641,-2.3318,-2.318,-2.3108,-2.3095,-2.3095,-2.3233,-2.3509,-2.3816,-2.4117,-2.4356,-2.4707,-2.4775,-2.48,-2.48,-2.4913,-2.5126,-2.5247,-2.536,-2.5674,-2.5531,-2.5452,-2.5581,-2.5048,-2.4014,-3.7965,-3.7413,-3.7395,-3.7049,-3.6553,-3.6535,-3.6412,-3.6154,-3.5957,-3.5061,-3.3714,-3.2926,-3.2473,-3.2298,-3.2298,-3.2194,-3.2037,-3.2037,-3.2037,-3.202,-3.1947,-3.1911,-3.1893,-3.1838,-3.18,-3.18,-3.18,-3.18,-3.18,-3.18,-3.1507,-3.0938,-3.0317,-2.9937,-2.9782,-2.9765,-2.9403,-2.8661,-2.8092,-2.7627,-2.7332,-2.7315,-2.7315,-2.7315,-2.7315,-2.7266,-2.7151,-2.7135,-2.7104,-2.7023,-2.6975,-2.6926,-2.6876,-2.6775,-2.6556,-2.628,-2.6228,-2.6033,-2.554,-2.5198,-2.4823,-2.4343,-2.4456,-2.4506,-2.4459,-2.449,-2.434,-2.415,-2.4552,-2.4874,-2.4903,-2.5412,-2.5839,-2.5815,-2.5974,-2.5997,-2.5598,-2.5398,-2.517,-2.4754,-2.4578,-2.445,-2.4332,-2.4316,-2.4258,-2.4141,-2.4125,-2.4054,-2.3979,-2.392,-2.3772,-2.3552,-2.333,-2.318,-2.318,-2.3288,-2.3514,-2.3954,-2.4243,-2.4569,-2.4921,-2.5084,-2.5209,-2.5285,-2.5247,-2.541,-2.5711,-2.5787,-2.5984,-2.6298,-2.628,-2.6377,-2.6352,-2.5951,-2.5063,-3.8961,-3.892,-3.8836,-3.8864,-3.872,-3.872,-3.8449,-3.8005,-3.7356,-3.6725,-3.6058,-3.5257,-3.4475,-3.3854,-3.3784,-3.3411,-3.2791,-3.2716,-3.2736,-3.2705,-3.2386,-3.2249,-3.2249,-3.1965,-3.18,-3.1818,-3.18,-3.18,-3.18,-3.18,-3.1765,-3.1696,-3.161,-3.1214,-3.0662,-3.0575,-3.0196,-2.942,-2.9334,-2.8661,-2.7401,-2.7315,-2.7315,-2.7315,-2.7315,-2.7282,-2.7282,-2.7299,-2.7217,-2.7103,-2.7023,-2.6975,-2.6892,-2.6775,-2.6674,-2.6641,-2.6641,-2.6332,-2.5596,-2.5449,-2.5134,-2.4452,-2.4881,-2.5204,-2.5235,-2.5685,-2.5636,-2.5085,-2.5357,-2.5634,-2.5555,-2.6108,-2.6522,-2.6551,-2.6961,-2.7385,-2.7157,-2.6883,-2.6505,-2.6469,-2.5797,-2.5481,-2.4991,-2.4863,-2.4649,-2.4141,-2.4125,-2.4083,-2.4054,-2.3979,-2.392,-2.3802,-2.3582,-2.3441,-2.3444,-2.3707,-2.3935,-2.4092,-2.482,-2.5297,-2.5536,-2.59,-2.6311,-2.5988,-2.621,-2.6235,-2.6298,-2.6411,-2.6386,-2.6436,-2.6487,-2.6487,-2.6487,-2.6383,-2.5687,-3.9101,-3.9101,-3.9101,-3.9101,-3.9101,-3.9101,-3.897,-3.8711,-3.8402,-3.8135,-3.7896,-3.7536,-3.6413,-3.4736,-3.4702,-3.4522,-3.422,-3.4236,-3.422,-3.4166,-3.3608,-3.3294,-3.3224,-3.2459,-3.2091,-3.2073,-3.1893,-3.18,-3.18,-3.18,-3.18,-3.18,-3.18,-3.1645,-3.1369,-3.1334,-3.0955,-3.0248,-3.0196,-2.9679,-2.8678,-2.8161,-2.773,-2.7351,-2.7315,-2.7315,-2.7315,-2.7315,-2.7266,-2.7217,-2.7072,-2.6975,-2.6959,-2.6809,-2.6708,-2.6708,-2.6708,-2.6333,-2.5575,-2.5872,-2.5743,-2.4945,-2.5549,-2.5949,-2.598,-2.6535,-2.6704,-2.6344,-2.6387,-2.6468,-2.6387,-2.6919,-2.7285,-2.725,-2.745,-2.7458,-2.7074,-2.6867,-2.659,-2.6229,-2.596,-2.5742,-2.5481,-2.5188,-2.475,-2.4258,-2.4125,-2.4141,-2.4083,-2.4054,-2.4037,-2.4047,-2.4077,-2.4072,-2.3928,-2.4001,-2.4337,-2.484,-2.5272,-2.5636,-2.6097,-2.6273,-2.6474,-2.6487,-2.6487,-2.6487,-2.6449,-2.6487,-2.6487,-2.6487,-2.6487,-2.6487,-2.6487,-2.6487,-2.5978,-3.9101,-3.9101,-3.9101,-3.9101,-3.9101,-3.9101,-3.9073,-3.9036,-3.9007,-3.8983,-3.8939,-3.891,-3.7928,-3.6351,-3.5981,-3.575,-3.5517,-3.5501,-3.5501,-3.5429,-3.4792,-3.4458,-3.4372,-3.3541,-3.3088,-3.3019,-3.2634,-3.2318,-3.2126,-3.2073,-3.2037,-3.1965,-3.1947,-3.1893,-3.1818,-3.18,-3.1541,-3.1059,-3.0989,-3.061,-2.9868,-2.9317,-2.8661,-2.7971,-2.7696,-2.7592,-2.7592,-2.742,-2.7315,-2.7299,-2.7121,-2.7023,-2.7006,-2.6859,-2.6742,-2.6725,-2.6894,-2.6703,-2.6036,-2.6632,-2.6724,-2.6141,-2.6667,-2.7001,-2.6998,-2.7488,-2.7744,-2.7524,-2.7429,-2.7333,-2.7216,-2.7569,-2.7775,-2.7675,-2.765,-2.7433,-2.7063,-2.6945,-2.68,-2.6363,-2.6416,-2.6203,-2.6014,-2.5591,-2.5048,-2.452,-2.4374,-2.4229,-2.4181,-2.4243,-2.4374,-2.4374,-2.471,-2.4761,-2.4415,-2.4595,-2.4988,-2.5338,-2.5699,-2.6047,-2.6411,-2.6461,-2.6487,-2.6487,-2.6487,-2.6487,-2.6487,-2.6487,-2.6487,-2.6487,-2.6487,-2.6487,-2.6487,-2.6487,-2.6267,-3.9101,-3.9101,-3.9101,-3.9101,-3.9101,-3.9101,-3.9101,-3.9106,-3.9036,-3.9011,-3.8979,-3.8939,-3.8826,-3.8545,-3.7739,-3.7048,-3.6351,-3.6322,-3.6325,-3.6278,-3.5833,-3.5618,-3.5602,-3.5244,-3.5023,-3.4809,-3.4139,-3.3465,-3.2805,-3.2768,-3.2603,-3.2283,-3.2283,-3.2109,-3.1911,-3.1874,-3.1801,-3.1716,-3.1699,-3.1387,-3.0731,-3.061,-3.0179,-2.9437,-2.8713,-2.8351,-2.8282,-2.7696,-2.7349,-2.7332,-2.7237,-2.7137,-2.7104,-2.7009,-2.6927,-2.686,-2.7402,-2.758,-2.7267,-2.7841,-2.8079,-2.7802,-2.8183,-2.8496,-2.8098,-2.8523,-2.8654,-2.8383,-2.8258,-2.8143,-2.7947,-2.7929,-2.793,-2.779,-2.779,-2.7675,-2.7534,-2.7458,-2.7534,-2.7433,-2.7342,-2.7086,-2.6669,-2.6149,-2.5591,-2.5118,-2.4962,-2.4803,-2.4461,-2.4668,-2.4913,-2.507,-2.531,-2.5447,-2.4717,-2.502,-2.5552,-2.5816,-2.6109,-2.6399,-2.6449,-2.6487,-2.6487,-2.6487,-2.6487,-2.6487,-2.6487,-2.6487,-2.6487,-2.6487,-2.6487,-2.6487,-2.6487,-2.6487,-2.6349,-3.9101,-3.9101,-3.9101,-3.9101,-3.9101,-3.9101,-3.9101,-3.9101,-3.9073,-3.9059,-3.9064,-3.9031,-3.9007,-3.8931,-3.864,-3.8276,-3.7916,-3.7856,-3.7845,-3.7756,-3.7153,-3.6851,-3.6766,-3.596,-3.553,-3.5443,-3.5014,-3.4345,-3.365,-3.3578,-3.3246,-3.2705,-3.2601,-3.2553,-3.2453,-3.2436,-3.2335,-3.2126,-3.2126,-3.1881,-3.1458,-3.1403,-3.1248,-3.0938,-2.9748,-2.911,-2.9093,-2.8834,-2.8489,-2.8023,-2.7923,-2.7857,-2.7875,-2.8152,-2.8269,-2.8215,-2.8416,-2.8407,-2.812,-2.8624,-2.888,-2.8526,-2.9059,-2.9383,-2.9213,-2.9137,-2.902,-2.885,-2.8549,-2.8363,-2.8275,-2.8177,-2.8039,-2.7825,-2.779,-2.7765,-2.7625,-2.7585,-2.7585,-2.7585,-2.7585,-2.7357,-2.6893,-2.6525,-2.6149,-2.5647,-2.5517,-2.5449,-2.5293,-2.5391,-2.5541,-2.5589,-2.5981,-2.6244,-2.5833,-2.5807,-2.6065,-2.6186,-2.6386,-2.6436,-2.6487,-2.6487,-2.6487,-2.6487,-2.6487,-2.6487,-2.6487,-2.6487,-2.6487,-2.6487,-2.6487,-2.6487,-2.6487,-2.6487,-2.6487,-3.9101,-3.9101,-3.9101,-3.9101,-3.9101,-3.9101,-3.9101,-3.9101,-3.9101,-3.9101,-3.9101,-3.9101,-3.9073,-3.9036,-3.9007,-3.895,-3.8866,-3.8792,-3.875,-3.868,-3.8165,-3.7911,-3.7756,-3.7043,-3.6661,-3.6591,-3.6166,-3.5514,-3.4776,-3.4436,-3.3977,-3.3398,-3.3113,-3.2908,-3.2827,-3.2795,-3.2684,-3.2486,-3.2453,-3.2352,-3.2126,-3.2002,-3.1948,-3.1791,-3.0836,-3.011,-2.9903,-2.9661,-2.9299,-2.8834,-2.8697,-2.8681,-2.8699,-2.8938,-2.9086,-2.9065,-2.9265,-2.9254,-2.9094,-2.9585,-2.9882,-2.9622,-2.9971,-3.0204,-3.0032,-2.9595,-2.9303,-2.9067,-2.8677,-2.8411,-2.8372,-2.8323,-2.8162,-2.7965,-2.789,-2.7815,-2.7675,-2.7625,-2.7585,-2.7585,-2.7585,-2.7382,-2.713,-2.7243,-2.7026,-2.6516,-2.6582,-2.6674,-2.6493,-2.6435,-2.6431,-2.644,-2.6711,-2.685,-2.6641,-2.658,-2.6458,-2.6549,-2.6458,-2.6474,-2.6487,-2.6487,-2.6487,-2.6487,-2.6487,-2.6487,-2.6487,-2.6487,-2.6487,-2.6487,-2.6487,-2.6487,-2.6487,-2.6487,-2.6487,-3.9101,-3.9101,-3.9101,-3.9101,-3.9101,-3.9101,-3.9101,-3.9101,-3.9101,-3.9101,-3.9101,-3.9101,-3.9101,-3.9087,-3.9054,-3.8993,-3.8979,-3.8921,-3.8848,-3.8788,-3.8752,-3.867,-3.8594,-3.8469,-3.8401,-3.8383,-3.7811,-3.7059,-3.6212,-3.5524,-3.4933,-3.4398,-3.3719,-3.3274,-3.2842,-3.2905,-3.2842,-3.2795,-3.2795,-3.2797,-3.2747,-3.242,-3.2249,-3.2231,-3.1826,-3.1334,-3.0713,-3.0024,-2.9661,-2.9541,-2.9506,-2.9489,-2.9403,-2.9418,-2.9295,-2.941,-2.9793,-3.0074,-3.0156,-3.0678,-3.0993,-3.0917,-3.1098,-3.0878,-3.0514,-3.0059,-2.9661,-2.9303,-2.8865,-2.8493,-2.8493,-2.8468,-2.8356,-2.821,-2.8079,-2.7955,-2.779,-2.7675,-2.7585,-2.76,-2.766,-2.763,-2.7739,-2.8125,-2.8205,-2.7958,-2.8105,-2.8268,-2.785,-2.7715,-2.7734,-2.7683,-2.7699,-2.7708,-2.7492,-2.7276,-2.704,-2.6829,-2.6611,-2.6533,-2.6521,-2.6521,-2.6487,-2.6487,-2.6487,-2.6487,-2.6487,-2.6487,-2.6487,-2.6487,-2.6487,-2.6487,-2.6487,-2.6487,-2.6487,-3.9101,-3.9101,-3.9101,-3.9101,-3.9101,-3.9101,-3.9101,-3.9101,-3.9101,-3.9101,-3.9101,-3.9101,-3.9101,-3.9101,-3.9073,-3.9078,-3.9078,-3.9031,-3.8979,-3.8877,-3.8862,-3.8866,-3.8837,-3.8822,-3.8807,-3.8743,-3.8481,-3.79,-3.7217,-3.6831,-3.6135,-3.5019,-3.4607,-3.4108,-3.3549,-3.3494,-3.339,-3.3169,-3.3154,-3.3047,-3.2795,-3.2487,-3.2301,-3.2266,-3.1983,-3.1662,-3.1438,-3.1214,-3.0869,-3.0351,-3.0317,-3.0282,-3.0244,-3.0602,-3.0767,-3.067,-3.08,-3.0893,-3.0869,-3.1038,-3.119,-3.119,-3.119,-3.1151,-3.0975,-3.0518,-3.0208,-3.0016,-2.9639,-2.925,-2.8974,-2.8897,-2.8685,-2.8259,-2.8162,-2.8054,-2.784,-2.7705,-2.7585,-2.766,-2.8004,-2.8233,-2.8397,-2.8876,-2.917,-2.9025,-2.9181,-2.9175,-2.9029,-2.8923,-2.8931,-2.8938,-2.883,-2.8519,-2.8124,-2.7776,-2.7556,-2.7121,-2.6794,-2.6602,-2.6589,-2.6521,-2.6521,-2.6487,-2.6487,-2.6487,-2.6487,-2.6487,-2.6487,-2.6487,-2.6487,-2.6487,-2.6487,-2.6487,-2.6487,-3.9101,-3.9138,-3.9435,-3.9584,-3.964,-3.9881,-4.0011,-4.003,-4.003,-4.003,-4.0048,-4.003,-4.003,-4.003,-4.003,-3.9863,-3.9602,-3.9602,-3.9375,-3.9016,-3.8954,-3.8939,-3.891,-3.891,-3.8877,-3.8851,-3.881,-3.8523,-3.8041,-3.7676,-3.7014,-3.6135,-3.5404,-3.4839,-3.4288,-3.3949,-3.368,-3.3526,-3.348,-3.3394,-3.3136,-3.2827,-3.2668,-3.2636,-3.2352,-3.2144,-3.2002,-3.1983,-3.1704,-3.1232,-3.1111,-3.1057,-3.1037,-3.1359,-3.1542,-3.143,-3.1334,-3.1257,-3.1232,-3.1213,-3.119,-3.119,-3.119,-3.119,-3.1112,-3.076,-3.0497,-3.0435,-3.0054,-2.9661,-2.9416,-2.9166,-2.8912,-2.859,-2.8317,-2.8113,-2.7855,-2.7966,-2.8025,-2.8165,-2.8588,-2.8891,-2.9101,-2.9505,-2.9894,-2.9943,-3.0125,-3.0236,-3.0178,-3.0025,-2.9956,-2.9752,-2.9473,-2.9048,-2.8578,-2.8287,-2.8039,-2.751,-2.6964,-2.6794,-2.6658,-2.6555,-2.6487,-2.6487,-2.6487,-2.6487,-2.6487,-2.6487,-2.6487,-2.6487,-2.6487,-2.6487,-2.6487,-2.6487,-2.6487,-3.925,-3.9342,-4.0123,-4.0457,-4.055,-4.1163,-4.1386,-4.1516,-4.1479,-4.1404,-4.1456,-4.1349,-4.1441,-4.1512,-4.1311,-4.0996,-4.0564,-4.029,-3.9918,-3.937,-3.911,-3.8979,-3.8954,-3.8921,-3.8906,-3.8892,-3.8877,-3.8877,-3.8696,-3.8161,-3.7728,-3.7368,-3.6164,-3.5266,-3.5013,-3.4301,-3.393,-3.3793,-3.3775,-3.3762,-3.3707,-3.3422,-3.3243,-3.3214,-3.2908,-3.2602,-3.2369,-3.2266,-3.2091,-3.182,-3.1696,-3.1679,-3.1747,-3.169,-3.1617,-3.1579,-3.1428,-3.1334,-3.1276,-3.1252,-3.121,-3.119,-3.119,-3.119,-3.1131,-3.0858,-3.0621,-3.0601,-3.0246,-2.9946,-2.9815,-2.9663,-2.9416,-2.9201,-2.879,-2.8305,-2.8001,-2.849,-2.8759,-2.882,-2.9232,-2.9666,-2.9681,-3.0178,-3.0492,-3.0629,-3.099,-3.1171,-3.1174,-3.0837,-3.0615,-3.0389,-3.0163,-2.9797,-2.9376,-2.9188,-2.8935,-2.8306,-2.763,-2.7154,-2.6794,-2.6589,-2.6487,-2.6487,-2.6487,-2.6487,-2.6487,-2.6487,-2.6487,-2.6487,-2.6487,-2.6487,-2.6487,-2.6487,-2.6487,-4.094,-4.0977,-4.1181,-4.1293,-4.1326,-4.1534,-4.1623,-4.1609,-4.1642,-4.1702,-4.1642,-4.1605,-4.1683,-4.1623,-4.1646,-4.146,-4.12,-4.0698,-4.036,-3.9974,-3.9328,-3.9096,-3.9031,-3.8993,-3.8964,-3.8964,-3.8921,-3.891,-3.8892,-3.8666,-3.8278,-3.771,-3.7216,-3.6385,-3.5407,-3.5029,-3.4542,-3.3992,-3.3868,-3.3842,-3.3748,-3.348,-3.3306,-3.3258,-3.2983,-3.2779,-3.2651,-3.242,-3.2126,-3.1837,-3.18,-3.18,-3.18,-3.1746,-3.169,-3.1634,-3.156,-3.1449,-3.1315,-3.1293,-3.1271,-3.121,-3.119,-3.119,-3.119,-3.1075,-3.0998,-3.0995,-3.0875,-3.0692,-3.0471,-3.0674,-3.0784,-3.0545,-2.9685,-2.8991,-2.8926,-2.9305,-2.9626,-2.9569,-3.0084,-3.0346,-3.043,-3.0733,-3.1152,-3.1212,-3.1331,-3.1496,-3.1438,-3.138,-3.1058,-3.1175,-3.1029,-3.0614,-3.0283,-3.0117,-2.9766,-2.9174,-2.8454,-2.7676,-2.7188,-2.6658,-2.6555,-2.6487,-2.6487,-2.6487,-2.6487,-2.6487,-2.6487,-2.6487,-2.6487,-2.6487,-2.6487,-2.6487,-2.6487,-4.1605,-4.1642,-4.1962,-4.211,-4.2147,-4.2463,-4.2612,-4.2612,-4.2612,-4.2612,-4.2593,-4.2612,-4.2612,-4.2593,-4.2612,-4.2407,-4.2073,-4.1627,-4.127,-4.0787,-4.0048,-3.951,-3.9198,-3.9064,-3.9031,-3.905,-3.9007,-3.8993,-3.8974,-3.8993,-3.8715,-3.8308,-3.791,-3.7248,-3.6435,-3.5531,-3.5029,-3.4479,-3.4121,-3.3829,-3.3793,-3.3606,-3.3536,-3.348,-3.3302,-3.3166,-3.2983,-3.2684,-3.2352,-3.2073,-3.1874,-3.18,-3.18,-3.18,-3.1746,-3.169,-3.1653,-3.1524,-3.1447,-3.137,-3.1293,-3.1252,-3.123,-3.119,-3.119,-3.119,-3.119,-3.1171,-3.1464,-3.1513,-3.1411,-3.1736,-3.1839,-3.1493,-3.0876,-3.0242,-2.9746,-3.0136,-3.0354,-3.0446,-3.0772,-3.1153,-3.0941,-3.1271,-3.1436,-3.1481,-3.1436,-3.1496,-3.1496,-3.1496,-3.1496,-3.1496,-3.1438,-3.0999,-3.0644,-3.0419,-3.0117,-2.9566,-2.9237,-2.8403,-2.7564,-2.6952,-2.6726,-2.6624,-2.6555,-2.6487,-2.6487,-2.6487,-2.6487,-2.6487,-2.6487,-2.6487,-2.6487,-2.6487,-2.6487,-4.1865,-4.1906,-4.2612,-4.2927,-4.302,-4.3652,-4.3838,-4.3949,-4.3856,-4.3856,-4.3856,-4.3949,-4.3763,-4.4005,-4.3689,-4.354,-4.2909,-4.263,-4.2147,-4.1497,-4.0791,-4.0197,-3.9677,-3.9217,-3.9106,-3.9087,-3.9101,-3.9087,-3.9073,-3.9087,-3.9101,-3.8832,-3.8289,-3.791,-3.7345,-3.6269,-3.55,-3.5018,-3.4444,-3.3999,-3.3862,-3.3766,-3.3753,-3.3739,-3.3739,-3.3564,-3.3317,-3.3032,-3.2734,-3.2437,-3.2055,-3.1874,-3.1837,-3.18,-3.18,-3.1781,-3.169,-3.1617,-3.1579,-3.1428,-3.1332,-3.1293,-3.1232,-3.119,-3.119,-3.119,-3.1258,-3.1444,-3.1938,-3.2256,-3.2617,-3.2797,-3.2806,-3.2581,-3.2431,-3.1842,-3.1042,-3.1029,-3.1207,-3.0991,-3.1494,-3.1637,-3.1568,-3.1496,-3.1496,-3.1496,-3.1496,-3.1496,-3.1496,-3.1496,-3.1496,-3.1496,-3.1409,-3.1278,-3.0955,-3.0673,-3.0299,-2.9889,-2.9735,-2.9125,-2.8078,-2.7464,-2.7074,-2.6884,-2.6973,-2.6769,-2.6487,-2.6487,-2.6487,-2.6487,-2.6487,-2.6487,-2.6487,-2.6487,-2.6487,-4.3583,-4.3503,-4.367,-4.3745,-4.3763,-4.3931,-4.4005,-4.4005,-4.4005,-4.4005,-4.4005,-4.4005,-4.4005,-4.4005,-4.4005,-4.3875,-4.3596,-4.3095,-4.2352,-4.1646,-4.146,-4.1274,-4.0717,-3.9844,-3.9175,-3.9157,-3.9101,-3.9101,-3.9101,-3.9101,-3.9101,-3.9027,-3.8846,-3.847,-3.7803,-3.7355,-3.6491,-3.5436,-3.499,-3.4559,-3.4022,-3.3912,-3.3875,-3.3807,-3.3807,-3.378,-3.3652,-3.3379,-3.3154,-3.2952,-3.2554,-3.2126,-3.1893,-3.1837,-3.1818,-3.18,-3.1781,-3.1709,-3.1615,-3.1521,-3.1423,-3.1312,-3.1252,-3.119,-3.119,-3.1241,-3.1512,-3.1904,-3.2226,-3.2886,-3.3778,-3.4052,-3.4047,-3.4018,-3.4021,-3.3828,-3.3239,-3.2513,-3.205,-3.1838,-3.1832,-3.1826,-3.1553,-3.1496,-3.1496,-3.1496,-3.1496,-3.1496,-3.1496,-3.1496,-3.1496,-3.1496,-3.1467,-3.1365,-3.1278,-3.1014,-3.0763,-3.045,-3.0269,-3.0131,-2.9079,-2.8487,-2.8279,-2.7901,-2.7471,-2.7183,-2.6782,-2.6487,-2.6487,-2.6487,-2.6487,-2.6487,-2.6487,-2.6487,-2.6487,-4.4169,-4.4104,-4.402,-4.4005,-4.4005,-4.4005,-4.4005,-4.4005,-4.4005,-4.4005,-4.4005,-4.4005,-4.4005,-4.4005,-4.4005,-4.4005,-4.3931,-4.3578,-4.2927,-4.2333,-4.2129,-4.1943,-4.1534,-4.0773,-4.0123,-3.9751,-3.9268,-3.912,-3.9101,-3.9101,-3.9101,-3.9101,-3.9101,-3.8883,-3.8364,-3.8021,-3.7318,-3.6579,-3.5989,-3.5537,-3.5123,-3.4641,-3.4141,-3.3894,-3.3807,-3.3807,-3.378,-3.3652,-3.3465,-3.3243,-3.2954,-3.2537,-3.2144,-3.2037,-3.1965,-3.1837,-3.18,-3.1764,-3.169,-3.1596,-3.1483,-3.1423,-3.1327,-3.1469,-3.1599,-3.1698,-3.207,-3.2679,-3.3186,-3.385,-3.4861,-3.5013,-3.5088,-3.5057,-3.4927,-3.4673,-3.4284,-3.3433,-3.2695,-3.2453,-3.2203,-3.1925,-3.1712,-3.1582,-3.1496,-3.1496,-3.1496,-3.1496,-3.1496,-3.1496,-3.1496,-3.1496,-3.1496,-3.1467,-3.1467,-3.1365,-3.1278,-3.1087,-3.0955,-3.0881,-3.0404,-3.0025,-2.9704,-2.9002,-2.8149,-2.7571,-2.7162,-2.6837,-2.6589,-2.6521,-2.6521,-2.6487,-2.6487,-2.6487,-2.6487,-4.4214,-4.4184,-4.407,-4.402,-4.4005,-4.4005,-4.4005,-4.4005,-4.4005,-4.4005,-4.4005,-4.4005,-4.4005,-4.4005,-4.4005,-4.4005,-4.4005,-4.3968,-4.3466,-4.3039,-4.2983,-4.2686,-4.2203,-4.1813,-4.1386,-4.0698,-3.9844,-3.9398,-3.9138,-3.9101,-3.9101,-3.9101,-3.9101,-3.9031,-3.8869,-3.8419,-3.7863,-3.7484,-3.6962,-3.6491,-3.6269,-3.5661,-3.5036,-3.4582,-3.4156,-3.4119,-3.4064,-3.3895,-3.3648,-3.3375,-3.3379,-3.3032,-3.2636,-3.2386,-3.2231,-3.1929,-3.1911,-3.1874,-3.1816,-3.1809,-3.1835,-3.1707,-3.1762,-3.1936,-3.2351,-3.2513,-3.2848,-3.3508,-3.415,-3.4793,-3.5515,-3.5498,-3.5515,-3.5509,-3.5138,-3.4951,-3.4745,-3.4028,-3.3511,-3.3013,-3.2586,-3.2203,-3.1925,-3.1697,-3.1582,-3.1496,-3.1496,-3.1496,-3.1496,-3.1496,-3.1496,-3.1496,-3.1496,-3.1496,-3.1496,-3.1496,-3.1438,-3.1409,-3.1365,-3.1336,-3.1292,-3.097,-3.0404,-2.9518,-2.873,-2.8247,-2.7736,-2.733,-2.704,-2.676,-2.6533,-2.6487,-2.6487,-2.6487,-2.6487,-4.43,-4.4199,-4.4184,-4.4119,-4.4005,-4.4005,-4.4005,-4.4005,-4.4005,-4.4005,-4.4005,-4.4005,-4.4005,-4.4005,-4.4005,-4.4005,-4.4005,-4.3986,-4.3912,-4.3726,-4.3708,-4.3503,-4.3318,-4.2816,-4.2463,-4.2036,-4.0996,-3.9955,-3.9305,-3.9101,-3.9101,-3.9101,-3.9101,-3.9073,-3.9031,-3.8808,-3.84,-3.7984,-3.7641,-3.7276,-3.6828,-3.6449,-3.6113,-3.5685,-3.5133,-3.4853,-3.4669,-3.4192,-3.3762,-3.3721,-3.3739,-3.353,-3.3244,-3.2965,-3.2657,-3.2318,-3.2249,-3.2212,-3.2047,-3.238,-3.2526,-3.2691,-3.2844,-3.3118,-3.3294,-3.3317,-3.3613,-3.4235,-3.4912,-3.5447,-3.5583,-3.5616,-3.5616,-3.5554,-3.5509,-3.5402,-3.5293,-3.4864,-3.4243,-3.3751,-3.3145,-3.2586,-3.2382,-3.2064,-3.1824,-3.1682,-3.1553,-3.1524,-3.1496,-3.1496,-3.1496,-3.1496,-3.1496,-3.1496,-3.1496,-3.1496,-3.1467,-3.1467,-3.1438,-3.1438,-3.1438,-3.1467,-3.097,-3.0178,-2.9704,-2.9348,-2.878,-2.8051,-2.7703,-2.7537,-2.7061,-2.6589,-2.6679,-2.6816,-2.6589,-4.4508,-4.4444,-4.4329,-4.4195,-4.4119,-4.4119,-4.407,-4.4005,-4.4005,-4.4005,-4.4005,-4.4005,-4.4005,-4.4005,-4.4005,-4.4005,-4.4005,-4.4005,-4.4005,-4.4005,-4.4005,-4.4005,-4.4005,-4.3559,-4.3169,-4.2723,-4.1906,-4.0903,-3.9825,-3.9287,-3.9157,-3.9101,-3.9101,-3.9073,-3.9064,-3.9008,-3.8813,-3.8433,-3.8359,-3.8211,-3.7766,-3.7438,-3.7013,-3.6431,-3.6053,-3.5754,-3.5648,-3.5399,-3.4871,-3.4546,-3.4417,-3.4334,-3.4189,-3.396,-3.3525,-3.2881,-3.2807,-3.2827,-3.2733,-3.3154,-3.3429,-3.3402,-3.3662,-3.3922,-3.4133,-3.4219,-3.4384,-3.4928,-3.5267,-3.5616,-3.5616,-3.5616,-3.5616,-3.5616,-3.5616,-3.5616,-3.5554,-3.5356,-3.4951,-3.4456,-3.3869,-3.3365,-3.3013,-3.2652,-3.2188,-3.191,-3.1682,-3.1611,-3.1582,-3.1496,-3.1496,-3.1496,-3.1496,-3.1496,-3.1496,-3.1496,-3.1496,-3.1496,-3.1496,-3.1496,-3.1496,-3.1496,-3.1409,-3.0999,-3.0644,-3.0194,-2.9628,-2.8876,-2.862,-2.8363,-2.8071,-2.7723,-2.7317,-2.7108,-2.7007,-4.4788,-4.4751,-4.4481,-4.434,-4.4266,-4.4244,-4.415,-4.407,-4.4036,-4.402,-4.4005,-4.4005,-4.4005,-4.4005,-4.4005,-4.4005,-4.4005,-4.4005,-4.4005,-4.4005,-4.4005,-4.4005,-4.4005,-4.3949,-4.367,-4.3206,-4.2686,-4.1962,-4.0457,-3.9751,-3.9342,-3.9138,-3.9101,-3.9101,-3.9101,-3.9069,-3.9101,-3.9101,-3.9101,-3.9101,-3.8901,-3.8401,-3.7752,-3.7004,-3.6754,-3.6624,-3.6577,-3.624,-3.5844,-3.5426,-3.5261,-3.5247,-3.5261,-3.5261,-3.4699,-3.3797,-3.375,-3.3811,-3.3881,-3.4164,-3.4441,-3.4402,-3.4375,-3.4703,-3.4924,-3.5053,-3.5094,-3.5548,-3.5616,-3.5616,-3.5616,-3.5616,-3.5616,-3.5616,-3.5616,-3.5616,-3.5616,-3.5532,-3.5503,-3.5038,-3.4512,-3.4103,-3.3751,-3.3261,-3.2799,-3.2489,-3.2284,-3.1979,-3.191,-3.1553,-3.1496,-3.1496,-3.1496,-3.1496,-3.1496,-3.1496,-3.1496,-3.1496,-3.1496,-3.1496,-3.1496,-3.1496,-3.1409,-3.1322,-3.1087,-3.0644,-3.0147,-2.9797,-2.9473,-2.9223,-2.9115,-2.878,-2.8214,-2.7966,-2.7901,-4.5096,-4.503,-4.477,-4.4604,-4.453,-4.4378,-4.424,-4.418,-4.4165,-4.4104,-4.402,-4.4005,-4.4005,-4.4005,-4.4005,-4.4005,-4.4005,-4.4005,-4.4005,-4.4005,-4.4005,-4.4005,-4.4005,-4.4005,-4.3949,-4.3615,-4.3132,-4.1906,-4.0773,-4.0304,-3.9751,-3.925,-3.9101,-3.9101,-3.9101,-3.9101,-3.9101,-3.9101,-3.9101,-3.9101,-3.9069,-3.8869,-3.8682,-3.8371,-3.7874,-3.7466,-3.7331,-3.6934,-3.6409,-3.6229,-3.6138,-3.6138,-3.6156,-3.6156,-3.6105,-3.5831,-3.5605,-3.5305,-3.5132,-3.5364,-3.5579,-3.5586,-3.5691,-3.5924,-3.5805,-3.5693,-3.5613,-3.5744,-3.5684,-3.5616,-3.5616,-3.5616,-3.5616,-3.5616,-3.5616,-3.5616,-3.5616,-3.5616,-3.5594,-3.5571,-3.5045,-3.4745,-3.4415,-3.3903,-3.3417,-3.313,-3.2853,-3.2559,-3.2231,-3.1923,-3.1524,-3.1496,-3.1496,-3.1496,-3.1496,-3.1496,-3.1496,-3.1496,-3.1496,-3.1496,-3.1496,-3.1496,-3.1496,-3.1409,-3.1204,-3.1175,-3.0911,-3.0584,-3.0269,-3.0042,-2.9905,-2.9473,-2.8939,-2.8812,-2.878,-4.5454,-4.5314,-4.5077,-4.4931,-4.4849,-4.4636,-4.4481,-4.4402,-4.427,-4.4169,-4.4104,-4.4039,-4.4005,-4.4005,-4.4005,-4.4005,-4.4005,-4.4005,-4.4005,-4.4005,-4.4005,-4.4005,-4.4005,-4.4005,-4.4005,-4.3912,-4.3522,-4.2667,-4.1456,-4.0527,-3.9955,-3.9231,-3.9101,-3.9101,-3.9101,-3.9101,-3.9101,-3.9101,-3.9101,-3.9101,-3.9087,-3.9059,-3.9031,-3.897,-3.851,-3.829,-3.8085,-3.7985,-3.7445,-3.7158,-3.6997,-3.6997,-3.6997,-3.7033,-3.711,-3.7646,-3.7519,-3.7014,-3.6382,-3.656,-3.6664,-3.6675,-3.6646,-3.6419,-3.6191,-3.6014,-3.5844,-3.5706,-3.5661,-3.56,-3.56,-3.5616,-3.5616,-3.5616,-3.5616,-3.5532,-3.5532,-3.56,-3.5616,-3.5616,-3.5526,-3.5029,-3.4645,-3.4372,-3.4014,-3.3878,-3.3521,-3.313,-3.2788,-3.2437,-3.1979,-3.1511,-3.1511,-3.1496,-3.1496,-3.1496,-3.1496,-3.1496,-3.1496,-3.1496,-3.1496,-3.1496,-3.1496,-3.1496,-3.1409,-3.1409,-3.1482,-3.1292,-3.0866,-3.0763,-3.0673,-3.0238,-2.9827,-2.9721,-2.9566,-4.5696,-4.5549,-4.5352,-4.5263,-4.5182,-4.4919,-4.4795,-4.4688,-4.4458,-4.4325,-4.4252,-4.4147,-4.4055,-4.4039,-4.4039,-4.4005,-4.4005,-4.4005,-4.4005,-4.4005,-4.4005,-4.4005,-4.4005,-4.4005,-4.4005,-4.3986,-4.3596,-4.276,-4.1702,-4.0773,-3.997,-3.9138,-3.9101,-3.9101,-3.9101,-3.9064,-3.9027,-3.8692,-3.8692,-3.8581,-3.8432,-3.8377,-3.8381,-3.841,-3.841,-3.8372,-3.8301,-3.8128,-3.7669,-3.7316,-3.7357,-3.7412,-3.7401,-3.7643,-3.7973,-3.8377,-3.8386,-3.8125,-3.7582,-3.7499,-3.7631,-3.7523,-3.7283,-3.6841,-3.6371,-3.6199,-3.6023,-3.58,-3.5689,-3.5644,-3.5622,-3.5616,-3.5616,-3.5616,-3.56,-3.5481,-3.5329,-3.5233,-3.4962,-3.4636,-3.4602,-3.4754,-3.4527,-3.4591,-3.4535,-3.4511,-3.4219,-3.3751,-3.3313,-3.2922,-3.2449,-3.1966,-3.184,-3.1739,-3.1524,-3.1524,-3.1496,-3.1496,-3.1496,-3.1496,-3.1496,-3.1496,-3.1496,-3.1496,-3.1496,-3.1496,-3.1467,-3.1496,-3.1467,-3.1248,-3.1058,-3.1014,-3.0792,-3.0644,-3.0359,-4.58,-4.5759,-4.5549,-4.5472,-4.5454,-4.5263,-4.5137,-4.5041,-4.4782,-4.4617,-4.4503,-4.4321,-4.4195,-4.4169,-4.407,-4.4023,-4.4005,-4.4005,-4.4005,-4.4005,-4.4005,-4.4005,-4.4005,-4.4005,-4.3949,-4.3782,-4.3373,-4.2537,-4.159,-4.0736,-3.9918,-3.9231,-3.9101,-3.9101,-3.9045,-3.8952,-3.8637,-3.8247,-3.8042,-3.7647,-3.7299,-3.7095,-3.7068,-3.6978,-3.6864,-3.6744,-3.6713,-3.6883,-3.6892,-3.6656,-3.7102,-3.7349,-3.7375,-3.7749,-3.812,-3.8212,-3.8285,-3.8111,-3.7917,-3.796,-3.803,-3.793,-3.7649,-3.7194,-3.6591,-3.6614,-3.6402,-3.5784,-3.5423,-3.5406,-3.5441,-3.5566,-3.5245,-3.516,-3.4974,-3.4839,-3.4692,-3.4573,-3.4269,-3.3744,-3.3728,-3.4032,-3.4146,-3.4163,-3.4544,-3.4572,-3.4721,-3.4309,-3.3726,-3.3277,-3.2922,-3.2532,-3.2342,-3.2064,-3.1625,-3.1553,-3.1496,-3.1496,-3.1496,-3.1496,-3.1496,-3.1496,-3.1496,-3.1496,-3.1496,-3.1496,-3.1496,-3.1496,-3.1496,-3.1496,-3.1438,-3.1278,-3.1248,-3.1117,-3.0866,-4.5807,-4.58,-4.5723,-4.5692,-4.5685,-4.5463,-4.5352,-4.5294,-4.5055,-4.4819,-4.4585,-4.4476,-4.435,-4.4226,-4.4169,-4.407,-4.4005,-4.4005,-4.4005,-4.4005,-4.4005,-4.4005,-4.4005,-4.3912,-4.3782,-4.3336,-4.2853,-4.2036,-4.0884,-4.0457,-3.99,-3.9361,-3.9101,-3.9101,-3.9008,-3.8674,-3.8191,-3.7856,-3.7411,-3.6959,-3.6866,-3.6718,-3.6692,-3.6666,-3.6666,-3.6626,-3.6615,-3.6564,-3.6505,-3.6505,-3.6703,-3.6789,-3.682,-3.718,-3.7331,-3.7367,-3.7386,-3.7386,-3.7588,-3.7893,-3.8366,-3.8101,-3.7895,-3.7434,-3.6554,-3.6201,-3.5632,-3.51,-3.4719,-3.4687,-3.4415,-3.4295,-3.4129,-3.4213,-3.423,-3.4167,-3.3998,-3.3863,-3.3626,-3.3119,-3.3271,-3.3558,-3.3626,-3.3689,-3.4165,-3.4583,-3.4804,-3.4842,-3.4235,-3.3767,-3.3433,-3.3055,-3.2846,-3.2547,-3.2104,-3.1809,-3.1553,-3.1524,-3.1553,-3.1496,-3.1496,-3.1496,-3.1496,-3.1496,-3.1496,-3.1496,-3.1496,-3.1496,-3.1496,-3.1496,-3.1496,-3.1467,-3.1467,-3.1496,-3.1278,-4.5807,-4.5807,-4.5807,-4.5807,-4.5766,-4.5669,-4.5574,-4.556,-4.5333,-4.5074,-4.4776,-4.477,-4.461,-4.4407,-4.4292,-4.4207,-4.4082,-4.402,-4.4005,-4.4005,-4.4005,-4.4005,-4.3931,-4.3689,-4.3299,-4.2779,-4.211,-4.1311,-4.0527,-4.016,-3.964,-3.925,-3.9101,-3.9101,-3.8915,-3.8353,-3.7814,-3.7405,-3.6829,-3.6147,-3.6012,-3.5887,-3.5882,-3.5813,-3.5776,-3.5751,-3.5681,-3.5618,-3.5621,-3.5684,-3.5851,-3.5979,-3.6048,-3.613,-3.6248,-3.6285,-3.6266,-3.6266,-3.6615,-3.7118,-3.7848,-3.7458,-3.7446,-3.6879,-3.6236,-3.574,-3.5402,-3.4697,-3.4189,-3.3782,-3.369,-3.3747,-3.3647,-3.3778,-3.3744,-3.3643,-3.3271,-3.3072,-3.2852,-3.2544,-3.2662,-3.2594,-3.273,-3.2831,-3.3651,-3.4139,-3.4477,-3.4715,-3.4771,-3.4374,-3.4111,-3.3723,-3.3324,-3.2991,-3.2641,-3.2269,-3.1905,-3.1824,-3.1768,-3.1524,-3.1496,-3.1451,-3.1466,-3.1496,-3.1496,-3.1496,-3.1496,-3.1496,-3.1496,-3.1496,-3.1496,-3.1496,-3.1496,-3.1496,-3.1496,-4.5807,-4.5807,-4.5807,-4.5807,-4.5807,-4.58,-4.5793,-4.5737,-4.5558,-4.5362,-4.5161,-4.5107,-4.4919,-4.4688,-4.4565,-4.4439,-4.4258,-4.4124,-4.4094,-4.4121,-4.4109,-4.4051,-4.3776,-4.3423,-4.289,-4.2426,-4.1571,-4.0736,-4.0267,-3.9658,-3.9231,-3.9157,-3.9101,-3.9082,-3.9008,-3.8284,-3.7522,-3.6742,-3.603,-3.5324,-3.4736,-3.4624,-3.4661,-3.4692,-3.468,-3.4723,-3.4748,-3.4692,-3.4679,-3.4665,-3.5016,-3.5146,-3.5147,-3.5689,-3.5917,-3.5991,-3.6046,-3.6119,-3.6248,-3.6321,-3.6384,-3.6597,-3.6738,-3.6322,-3.5869,-3.5568,-3.5244,-3.4393,-3.4158,-3.3998,-3.3886,-3.3587,-3.3305,-3.3113,-3.3066,-3.2882,-3.2513,-3.2327,-3.2104,-3.1985,-3.1596,-3.1326,-3.1562,-3.1968,-3.2959,-3.3595,-3.4052,-3.4403,-3.4632,-3.4674,-3.4362,-3.4113,-3.3648,-3.3351,-3.2956,-3.2571,-3.2262,-3.2185,-3.181,-3.133,-3.1179,-3.1152,-3.1227,-3.1391,-3.1496,-3.1496,-3.1496,-3.1496,-3.1496,-3.1496,-3.1496,-3.1496,-3.1496,-3.1496,-3.1496,-4.5807,-4.5807,-4.5807,-4.5807,-4.5807,-4.5807,-4.5807,-4.5793,-4.5703,-4.5566,-4.5427,-4.5371,-4.5203,-4.4966,-4.4849,-4.4745,-4.4591,-4.4584,-4.4538,-4.4498,-4.4365,-4.4294,-4.3993,-4.3353,-4.2582,-4.185,-4.088,-4.0086,-3.9491,-3.9244,-3.9147,-3.9101,-3.9165,-3.9101,-3.8878,-3.8302,-3.7503,-3.6705,-3.5937,-3.5138,-3.4327,-3.4234,-3.4216,-3.4216,-3.4216,-3.4216,-3.4197,-3.4161,-3.4136,-3.4099,-3.4491,-3.4444,-3.4392,-3.4862,-3.4757,-3.4724,-3.4688,-3.4633,-3.4633,-3.4724,-3.522,-3.5771,-3.6105,-3.5805,-3.5378,-3.5024,-3.4566,-3.4038,-3.368,-3.3406,-3.302,-3.2606,-3.2294,-3.2139,-3.2008,-3.1828,-3.1599,-3.1562,-3.1478,-3.1461,-3.1207,-3.119,-3.1326,-3.1461,-3.2232,-3.279,-3.3191,-3.3542,-3.3818,-3.4253,-3.4268,-3.4176,-3.39,-3.3607,-3.3242,-3.2649,-3.193,-3.1537,-3.1087,-3.0521,-3.0528,-3.0769,-3.0776,-3.0806,-3.118,-3.1496,-3.1496,-3.1496,-3.1496,-3.1496,-3.1496,-3.1496,-3.1496,-3.1496,-3.1496,-4.5807,-4.5807,-4.5807,-4.5807,-4.5807,-4.5807,-4.5807,-4.5807,-4.58,-4.5723,-4.5626,-4.5602,-4.5454,-4.5235,-4.5142,-4.5011,-4.4884,-4.4837,-4.4819,-4.4776,-4.4637,-4.4565,-4.4221,-4.353,-4.2766,-4.1827,-4.1004,-4.0225,-3.9514,-3.9383,-3.9377,-3.9371,-3.9338,-3.9383,-3.9095,-3.8463,-3.7689,-3.6946,-3.6235,-3.5287,-3.4736,-3.4457,-3.4216,-3.4216,-3.4216,-3.4216,-3.4185,-3.4185,-3.4179,-3.4136,-3.4074,-3.4011,-3.3972,-3.3908,-3.3847,-3.3847,-3.382,-3.3844,-3.3899,-3.3917,-3.4523,-3.5128,-3.5422,-3.5165,-3.4697,-3.441,-3.4101,-3.3618,-3.3114,-3.2943,-3.277,-3.2281,-3.1986,-3.1877,-3.1637,-3.1481,-3.128,-3.1297,-3.1258,-3.1207,-3.119,-3.119,-3.119,-3.1258,-3.1559,-3.1952,-3.2307,-3.2664,-3.3073,-3.354,-3.39,-3.3795,-3.3723,-3.3409,-3.2988,-3.2498,-3.1754,-3.0999,-3.0565,-3.0202,-3.0186,-3.0467,-3.038,-3.0323,-3.0687,-3.1047,-3.1391,-3.1496,-3.1496,-3.1496,-3.1496,-3.1496,-3.1496,-3.1496,-3.1496,-4.5807,-4.5807,-4.5807,-4.5807,-4.5807,-4.5807,-4.5807,-4.5807,-4.5807,-4.58,-4.5793,-4.5786,-4.565,-4.5507,-4.5445,-4.5285,-4.511,-4.5022,-4.4977,-4.4915,-4.4891,-4.4837,-4.4478,-4.3805,-4.2856,-4.2141,-4.129,-4.0283,-3.9802,-3.9687,-3.9698,-3.9742,-3.9675,-3.9656,-3.9315,-3.8839,-3.8126,-3.7504,-3.6783,-3.5889,-3.5312,-3.4736,-3.442,-3.429,-3.4216,-3.4216,-3.4185,-3.4161,-3.4136,-3.4099,-3.4061,-3.4023,-3.3985,-3.3934,-3.3908,-3.3881,-3.3829,-3.3834,-3.3807,-3.3807,-3.3844,-3.4266,-3.41,-3.388,-3.3922,-3.3973,-3.3854,-3.3698,-3.3408,-3.3288,-3.3121,-3.2745,-3.2384,-3.2144,-3.1861,-3.162,-3.1349,-3.1249,-3.1227,-3.119,-3.119,-3.119,-3.119,-3.1224,-3.1258,-3.141,-3.1765,-3.2013,-3.2424,-3.2892,-3.3186,-3.3108,-3.3056,-3.3056,-3.2668,-3.2246,-3.1621,-3.083,-3.068,-3.0382,-3.0338,-3.0124,-2.9981,-2.9981,-3.0261,-3.0612,-3.0987,-3.1301,-3.1496,-3.1496,-3.1496,-3.1496,-3.1496,-3.1496,-3.1496,-4.5807,-4.5807,-4.5807,-4.5807,-4.5807,-4.5807,-4.5807,-4.5807,-4.5807,-4.5807,-4.5807,-4.5807,-4.5757,-4.5715,-4.57,-4.5607,-4.5537,-4.5473,-4.5465,-4.5391,-4.5222,-4.514,-4.4576,-4.365,-4.2743,-4.1912,-4.1051,-4.0279,-3.9914,-3.9829,-3.984,-3.9797,-3.9882,-3.9861,-3.9702,-3.9418,-3.8865,-3.8271,-3.7578,-3.6746,-3.5889,-3.5287,-3.4816,-3.4469,-3.427,-3.4258,-3.4197,-3.4185,-3.4161,-3.4161,-3.4111,-3.4074,-3.4061,-3.4011,-3.3959,-3.3908,-3.3868,-3.3873,-3.382,-3.3807,-3.382,-3.382,-3.3807,-3.3807,-3.3825,-3.3807,-3.3807,-3.3721,-3.3666,-3.355,-3.3451,-3.3151,-3.2825,-3.2583,-3.2247,-3.1879,-3.162,-3.1389,-3.1312,-3.119,-3.119,-3.119,-3.119,-3.119,-3.1224,-3.119,-3.1309,-3.1543,-3.181,-3.2279,-3.2474,-3.2437,-3.2513,-3.2542,-3.2361,-3.1983,-3.1347,-3.0773,-3.0635,-3.0364,-2.9935,-2.9708,-2.956,-2.9657,-2.9951,-3.0301,-3.0657,-3.0928,-3.1256,-3.1451,-3.1481,-3.1481,-3.1496,-3.1496,-3.1496,-4.5336,-4.5374,-4.5691,-4.5807,-4.5807,-4.5807,-4.5807,-4.5807,-4.5807,-4.5807,-4.5807,-4.5807,-4.5812,-4.5791,-4.5803,-4.5761,-4.5723,-4.568,-4.5676,-4.559,-4.553,-4.5159,-4.4461,-4.3703,-4.2889,-4.197,-4.1197,-4.0635,-4.0215,-4.0101,-4.012,-4.0138,-4.011,-4.0091,-4.0063,-4.0024,-3.9746,-3.9121,-3.8441,-3.7633,-3.6832,-3.5975,-3.5255,-3.4797,-3.4572,-3.4323,-3.4233,-3.4221,-3.4221,-3.4228,-3.4167,-3.4136,-3.4124,-3.4074,-3.4011,-3.3959,-3.3934,-3.3921,-3.3913,-3.3873,-3.386,-3.3847,-3.382,-3.3807,-3.3807,-3.3807,-3.3807,-3.378,-3.3793,-3.3748,-3.3666,-3.355,-3.3321,-3.3063,-3.2648,-3.223,-3.1897,-3.1584,-3.1391,-3.1232,-3.119,-3.119,-3.119,-3.119,-3.119,-3.119,-3.119,-3.1292,-3.1424,-3.1644,-3.1793,-3.1766,-3.1931,-3.2045,-3.1866,-3.172,-3.1262,-3.0845,-3.0745,-3.0391,-2.9726,-2.9535,-2.9611,-2.9648,-2.9687,-2.9947,-3.0141,-3.0642,-3.0987,-3.1122,-3.1256,-3.1376,-3.1406,-3.1496,-3.1496,-4.4478,-4.4555,-4.5381,-4.5645,-4.571,-4.5749,-4.5807,-4.5807,-4.5807,-4.5807,-4.5807,-4.5807,-4.5807,-4.5812,-4.5812,-4.5798,-4.5776,-4.5788,-4.5754,-4.5696,-4.5684,-4.5316,-4.4655,-4.4201,-4.3024,-4.2184,-4.1481,-4.0817,-4.0646,-4.0496,-4.0454,-4.0588,-4.0539,-4.0462,-4.043,-4.0446,-4.023,-3.9928,-3.9197,-3.8429,-3.7849,-3.6885,-3.5791,-3.545,-3.4997,-3.4539,-3.4363,-3.4281,-3.4239,-3.4269,-3.4245,-3.4257,-3.4173,-3.4148,-3.4074,-3.4036,-3.4011,-3.3972,-3.3947,-3.3926,-3.3881,-3.3855,-3.3847,-3.382,-3.3807,-3.3807,-3.3807,-3.3807,-3.3807,-3.3807,-3.3739,-3.3694,-3.3522,-3.3335,-3.2999,-3.2567,-3.2162,-3.1787,-3.1411,-3.1252,-3.119,-3.119,-3.119,-3.119,-3.119,-3.119,-3.119,-3.119,-3.1224,-3.1292,-3.1326,-3.134,-3.1489,-3.1655,-3.1463,-3.1318,-3.116,-3.0929,-3.0855,-3.0695,-3.0279,-2.9995,-2.9775,-2.9579,-2.9363,-2.9416,-2.9629,-3.0096,-3.0432,-3.0507,-3.0717,-3.1107,-3.1256,-3.1182,-3.1406,-4.3614,-4.3704,-4.4543,-4.4891,-4.4968,-4.5555,-4.5787,-4.5807,-4.5807,-4.5749,-4.5807,-4.5807,-4.5807,-4.5807,-4.5807,-4.5812,-4.5812,-4.5798,-4.5783,-4.5723,-4.5734,-4.5067,-4.4342,-4.3698,-4.2842,-4.2005,-4.1311,-4.0875,-4.067,-4.06,-4.06,-4.06,-4.06,-4.0586,-4.0579,-4.0593,-4.053,-4.0407,-3.9999,-3.925,-3.8567,-3.7661,-3.669,-3.5998,-3.5331,-3.4839,-3.4682,-3.4711,-3.4713,-3.4713,-3.4564,-3.4409,-3.4209,-3.4197,-3.4148,-3.4099,-3.4111,-3.4074,-3.3985,-3.3952,-3.3926,-3.3842,-3.3834,-3.382,-3.3807,-3.3807,-3.3807,-3.3807,-3.3807,-3.3807,-3.3807,-3.3775,-3.3734,-3.3536,-3.3364,-3.289,-3.2436,-3.195,-3.1468,-3.1293,-3.1213,-3.119,-3.119,-3.119,-3.119,-3.119,-3.119,-3.119,-3.119,-3.1224,-3.1241,-3.1258,-3.1241,-3.1272,-3.1114,-3.1114,-3.1092,-3.1072,-3.1012,-3.0895,-3.074,-3.0438,-3.0054,-2.9351,-2.9015,-2.9173,-2.9352,-2.9477,-2.9768,-2.9858,-3.0058,-3.0447,-3.0372,-3.0253,-3.0791,-4.2725,-4.2841,-4.3653,-4.4014,-4.4117,-4.4504,-4.4678,-4.4678,-4.4697,-4.491,-4.5323,-4.5606,-4.5807,-4.5807,-4.5807,-4.5807,-4.5807,-4.58,-4.5793,-4.5759,-4.5339,-4.4622,-4.3912,-4.3086,-4.2158,-4.1366,-4.0995,-4.0666,-4.0635,-4.0654,-4.0654,-4.0635,-4.0635,-4.0628,-4.0602,-4.0621,-4.0628,-4.0581,-4.0473,-4.0035,-3.923,-3.824,-3.7319,-3.6521,-3.5761,-3.5182,-3.4917,-3.4908,-3.4908,-3.4898,-3.4781,-3.4701,-3.4567,-3.4545,-3.4446,-3.4374,-3.4316,-3.4233,-3.4086,-3.3985,-3.3965,-3.3913,-3.3842,-3.3873,-3.3807,-3.3807,-3.3807,-3.3807,-3.3807,-3.3807,-3.3807,-3.3793,-3.3775,-3.3666,-3.3522,-3.3258,-3.2682,-3.2127,-3.1657,-3.1295,-3.1235,-3.1232,-3.1213,-3.119,-3.119,-3.119,-3.119,-3.119,-3.119,-3.119,-3.119,-3.119,-3.119,-3.119,-3.1171,-3.1171,-3.1171,-3.1151,-3.1131,-3.1035,-3.0878,-3.0679,-3.0316,-2.9727,-2.9312,-2.9218,-2.935,-2.9343,-2.9222,-2.9301,-2.9507,-2.9714,-2.9577,-2.9457,-2.9921,-4.1854,-4.197,-4.2783,-4.3131,-4.3169,-4.3305,-4.3382,-4.3382,-4.3343,-4.3743,-4.4427,-4.5104,-4.551,-4.578,-4.5807,-4.5807,-4.5807,-4.5807,-4.58,-4.5413,-4.4942,-4.407,-4.3187,-4.2368,-4.164,-4.1112,-4.0758,-4.07,-4.0726,-4.0726,-4.0726,-4.0726,-4.07,-4.0674,-4.0661,-4.0668,-4.0681,-4.0668,-4.0614,-4.0595,-3.981,-3.8796,-3.7889,-3.6991,-3.6096,-3.5255,-3.5046,-3.4992,-3.5001,-3.4973,-3.4982,-3.4898,-3.4831,-3.4782,-3.468,-3.4594,-3.4517,-3.4374,-3.4203,-3.4099,-3.4049,-3.3998,-3.3947,-3.3881,-3.3847,-3.3834,-3.3834,-3.3807,-3.3807,-3.3807,-3.3807,-3.3807,-3.3807,-3.3748,-3.3652,-3.3541,-3.2921,-3.2334,-3.186,-3.143,-3.1334,-3.1332,-3.1252,-3.123,-3.121,-3.121,-3.119,-3.119,-3.119,-3.119,-3.119,-3.119,-3.119,-3.119,-3.119,-3.119,-3.119,-3.119,-3.1151,-3.1112,-3.1035,-3.0898,-3.0638,-3.0241,-2.9896,-2.9666,-2.9304,-2.9164,-2.9014,-2.8961,-2.8826,-2.8989,-2.8955,-2.8895,-2.9079,-4.1029,-4.1081,-4.1912,-4.2241,-4.2357,-4.2957,-4.3305,-4.3305,-4.3247,-4.3421,-4.3556,-4.3769,-4.4407,-4.5787,-4.5807,-4.5749,-4.5606,-4.5645,-4.5258,-4.4806,-4.4388,-4.3453,-4.2595,-4.1989,-4.1474,-4.1049,-4.0752,-4.0778,-4.0771,-4.0778,-4.0784,-4.0778,-4.0778,-4.0778,-4.0778,-4.0778,-4.0752,-4.0746,-4.072,-4.0694,-4.0127,-3.9178,-3.8252,-3.7317,-3.636,-3.5712,-3.5388,-3.5379,-3.5383,-3.5339,-3.5226,-3.5089,-3.5019,-3.4973,-3.487,-3.4751,-3.4678,-3.4465,-3.4298,-3.4173,-3.4099,-3.4023,-3.3972,-3.3928,-3.3908,-3.3881,-3.3855,-3.3802,-3.382,-3.382,-3.382,-3.3807,-3.3807,-3.3707,-3.3625,-3.3451,-3.3078,-3.2569,-3.2109,-3.1768,-3.1579,-3.1466,-3.1312,-3.1291,-3.1252,-3.1232,-3.1193,-3.1173,-3.119,-3.119,-3.119,-3.119,-3.119,-3.119,-3.119,-3.119,-3.119,-3.119,-3.119,-3.1151,-3.1151,-3.1171,-3.0898,-3.0555,-3.0288,-3.0044,-2.9679,-2.9372,-2.9061,-2.8931,-2.8406,-2.8233,-2.8293,-2.8357,-2.8568]},{"header":{"parameterUnit":"m.s-1","parameterCategory":1,"la1":31.0,"la2":29.5877,"lo1":-88.7671,"lo2":-86.6584,"dy":0.0162,"dx":0.0185,"nx":115,"ny":88,"refTime":"2023-02-22T18:00:00:Z","depth":0,"parameterNumber":3,"parameterNumberName":"V-component_of_WINDS"},"data":[0.0,0.0,0.0,0.0,0.0,0.0,0.0,0.0,0.0,0.0,0.0,0.0,0.0,0.0,0.0,0.0,0.0,0.0,0.0,0.0,0.0,0.0,0.0,0.0,0.0,0.0,0.0,0.0,0.0,0.0,0.0,0.0,0.0,0.0,0.0,0.0,0.0,0.0,0.0,0.0,0.0,0.0,0.0,0.0,0.0,0.0,0.0,0.0,0.0,0.0,0.0,0.0,0.0,0.0,0.0,0.0,0.0,0.0,0.0,0.0,0.0,0.0,0.0,0.0,0.0,0.0,0.0,0.0,0.0,0.0,0.0,0.0,0.0,0.0,0.0,0.0,0.0,0.0,0.0,0.0,0.0,0.0,0.0,0.0,0.0,0.0,0.0,0.0,0.0,0.0,0.0,0.0,0.0,0.0,0.0,0.0,0.0,0.0,0.0,0.0,0.0,0.0,0.0,0.0,0.0,0.0,0.0,0.0,0.0,0.0,0.0,0.0,0.0,0.0,0.0,0.0,0.0,0.0,0.0,0.0,0.0,0.0,0.0,0.0,0.0,0.0,0.0,0.0,0.0,0.0,0.0,0.0,0.0,0.0,0.0,0.0,0.0,0.0,0.0,0.0,0.0,0.0,0.0,0.0,0.0,0.0,0.0,0.0,0.0,0.0,0.0,0.0,0.0,0.0,0.0,0.0,0.0,0.0,0.0,0.0,0.0,0.0,0.0,0.0,0.0,0.0,0.0,0.0,0.0,0.0,0.0,0.0,0.0,0.0,0.0,0.0,0.0,0.0,0.0,0.0,0.0,0.0,0.0,0.0,0.0,0.0,0.0,0.0,0.0,0.0,0.0,0.0,0.0,0.0,0.0,0.0,0.0,0.0,0.0,0.0,0.0,0.0,0.0,0.0,0.0,0.0,0.0,0.0,0.0,0.0,0.0,0.0,0.0,0.0,0.0,0.0,0.0,0.0,0.0,0.0,0.0,0.0,0.0,0.0,0.0,0.0,0.0,0.0,0.0,0.0,0.0,0.0,0.0,0.0,0.0,0.0,0.0,0.0,0.0,0.0,0.0,0.0,0.0,0.0,0.0,0.0,0.0,0.0,0.0,0.0,0.0,0.0,0.0,0.0,0.0,0.0,0.0,0.0,0.0,0.0,0.0,0.0,0.0,0.0,0.0,0.0,0.0,0.0,0.0,0.0,0.0,0.0,0.0,0.0,0.0,0.0,0.0,0.0,0.0,0.0,0.0,0.0,0.0,0.0,0.0,0.0,0.0,0.0,0.0,0.0,0.0,0.0,0.0,0.0,0.0,0.0,0.0,0.0,0.0,0.0,0.0,0.0,0.0,0.0,0.0,0.0,0.0,0.0,0.0,0.0,0.0,0.0,0.0,0.0,0.0,0.0,0.0,0.0,0.0,0.0,0.0,0.0,0.0,0.0,0.0,0.0,0.0,0.0,0.0,0.0,0.0,0.0,0.0,0.0,0.0,0.0,0.0,0.0,0.0,0.0,0.0,0.0,0.0,0.0,0.0,0.0,0.0,0.0,0.0,0.0,0.0,0.0,0.0,0.0,0.0,0.0,0.0,0.0,0.0,0.0,0.0,0.0,0.0,0.0,0.0,0.0,0.0,0.0,0.0,0.0,0.0,0.0,0.0,0.0,0.0,0.0,0.0,0.0,0.0,0.0,0.0,0.0,0.0,0.0,0.0,0.0,0.0,0.0,0.0,0.0,0.0,0.0,0.0,0.0,0.0,0.0,0.0,0.0,0.0,0.0,0.0,0.0,0.0,0.0,0.0,0.0,0.0,0.0,0.0,0.0,0.0,0.0,0.0,0.0,0.0,0.0,0.0,0.0,0.0,0.0,0.0,0.0,0.0,0.0,0.0,0.0,0.0,0.0,0.0,0.0,0.0,0.0,0.0,0.0,0.0,0.0,0.0,0.0,0.0,0.0,0.0,0.0,0.0,0.0,0.0,0.0,0.0,0.0,0.0,0.0,0.0,0.0,0.0,0.0,0.0,0.0,0.0,0.0,0.0,0.0,0.0,0.0,0.0,0.0,0.0,0.0,0.0,0.0,0.0,0.0,0.0,0.0,0.0,0.0,0.0,0.0,0.0,0.0,0.0,0.0,0.0,0.0,0.0,0.0,0.0,0.0,0.0,0.0,0.0,0.0,0.0,0.0,0.0,0.0,0.0,0.0,0.0,0.0,0.0,0.0,0.0,0.0,0.0,0.0,0.0,0.0,0.0,0.0,0.0,0.0,0.0,0.0,0.0,0.0,0.0,0.0,0.0,0.0,0.0,0.0,0.0,0.0,0.0,0.0,0.0,0.0,0.0,0.0,0.0,0.0,0.0,0.0,0.0,0.0,0.0,0.0,0.0,0.0,0.0,0.0,0.0,0.0,0.0,0.0,0.0,0.0,0.0,0.0,0.0,0.0,0.0,0.0,0.0,0.0,0.0,0.0,0.0,0.0,0.0,0.0,0.0,0.0,0.0,0.0,0.0,0.0,0.0,0.0,0.0,0.0,0.0,0.0,0.0,0.0,0.0,0.0,0.0,0.0,0.0,0.0,0.0,0.0,0.0,0.0,0.0,0.0,0.0,0.0,0.0,0.0,0.0,0.0,0.0,0.0,0.0,0.0,0.0,0.0,0.0,0.0,0.0,0.0,0.0,0.0,0.0,0.0,0.0,0.0,0.0,0.0,0.0,0.0,0.0,0.0,0.0,0.0,0.0,0.0,0.0,0.0,0.0,0.0,0.0,0.0,0.0,0.0,0.0,0.0,0.0,0.0,0.0,0.0,0.0,0.0,0.0,0.0,0.0,0.0,0.0,0.0,0.0,0.0,0.0,0.0,0.0,0.0,0.0,0.0,0.0,0.0,0.0,0.0,0.0,0.0,0.0,0.0,0.0,0.0,0.0,0.0,0.0,0.0,0.0,0.0,0.0,0.0,0.0,0.0,0.0,0.0,0.0,0.0,0.0,0.0,0.0,0.0,0.0,0.0,0.0,0.0,0.0,0.0,0.0,0.0,0.0,0.0,0.0,0.0,0.0,0.0,0.0,0.0,0.0,0.0,0.0,0.0,0.0,0.0,0.0,0.0,0.0,0.0,0.0,0.0,0.0,0.0,0.0,0.0,0.0,0.0,0.0,0.0,0.0,0.0,0.0,0.0,0.0,0.0,0.0,0.0,0.0,0.0,0.0,0.0,0.0,0.0,0.0,0.0,0.0,0.0,0.0,0.0,0.0,0.0,0.0,0.0,0.0,0.0,0.0,0.0,0.0,0.0,0.0,0.0,0.0,0.0,0.0,0.0,0.0,0.0,0.0,0.0,0.0,0.0,0.0,0.0,0.0,0.0,0.0,0.0,0.0,0.0,0.0,0.0,0.0,0.0,0.0,0.0,0.0,0.0,0.0,0.0,0.0,0.0,0.0,0.0,0.0,0.0,0.0,0.0,0.0,0.0,0.0,0.0,0.0,0.0,0.0,0.0,0.0,0.0,0.0,0.0,0.0,0.0,0.0,0.0,0.0,0.0,0.0,0.0,0.0,0.0,0.0,0.0,0.0,0.0,0.0,0.0,0.0,0.0,0.0,0.0,0.0,0.0,0.0,0.0,0.0,0.0,0.0,0.0,0.0,0.0,0.0,0.0,0.0,0.0,0.0,0.0,0.0,0.0,0.0,0.0,0.0,0.0,0.0,0.0,0.0,0.0,0.0,0.0,0.0,0.0,0.0,0.0,0.0,0.0,0.0,0.0,0.0,0.0,0.0,0.0,0.0,0.0,0.0,0.0,0.0,0.0,0.0,0.0,0.0,0.0,0.0,0.0,0.0,0.0,0.0,0.0,0.0,0.0,0.0,0.0,0.0,0.0,0.0,0.0,0.0,0.0,0.0,0.0,0.0,0.0,0.0,0.0,0.0,0.0,0.0,0.0,0.0,0.0,0.0,0.0,0.0,0.0,0.0,0.0,0.0,0.0,0.0,0.0,0.0,0.0,0.0,0.0,0.0,0.0,0.0,0.0,0.0,0.0,0.0,0.0,0.0,0.0,0.0,0.0,0.0,0.0,0.0,0.0,0.0,0.0,0.0,0.0,0.0,0.0,0.0,0.0,0.0,0.0,0.0,0.0,0.0,0.0,0.0,0.0,0.0,0.0,0.0,0.0,0.0,0.0,0.0,0.0,0.0,0.0,0.0,0.0,0.0,0.0,0.0,0.0,0.0,0.0,0.0,0.0,0.0,0.0,0.0,0.0,0.0,0.0,0.0,0.0,0.0,0.0,-1.4485,0.0,0.0,0.0,0.0,0.0,0.0,0.0,0.0,0.0,0.0,0.0,0.0,0.0,0.0,0.0,0.0,0.0,0.0,0.0,0.0,0.0,0.0,0.0,0.0,0.0,0.0,0.0,0.0,0.0,0.0,0.0,0.0,0.0,0.0,0.0,0.0,0.0,0.0,0.0,0.0,0.0,0.0,0.0,0.0,0.0,0.0,0.0,0.0,0.0,0.0,0.0,0.0,0.0,0.0,0.0,0.0,0.0,0.0,0.0,0.0,0.0,0.0,0.0,0.0,0.0,0.0,0.0,0.0,0.0,0.0,0.0,0.0,0.0,0.0,0.0,0.0,0.0,0.0,0.0,0.0,0.0,0.0,0.0,0.0,0.0,0.0,0.0,0.0,0.0,0.0,0.0,0.0,0.0,0.0,0.0,0.0,0.0,0.0,0.0,0.0,0.0,0.0,0.0,0.0,0.0,0.0,0.0,0.0,0.0,0.0,-1.4485,-1.4485,-1.4485,-1.4485,-1.4485,0.0,0.0,0.0,0.0,0.0,0.0,0.0,0.0,0.0,0.0,0.0,0.0,0.0,0.0,0.0,0.0,0.0,0.0,0.0,0.0,0.0,0.0,0.0,0.0,0.0,0.0,0.0,0.0,0.0,0.0,0.0,0.0,0.0,0.0,0.0,0.0,0.0,0.0,0.0,0.0,0.0,0.0,0.0,0.0,0.0,0.0,0.0,0.0,0.0,0.0,0.0,0.0,0.0,0.0,0.0,0.0,0.0,0.0,0.0,0.0,0.0,0.0,0.0,0.0,0.0,0.0,0.0,0.0,0.0,0.0,0.0,0.0,0.0,0.0,0.0,0.0,0.0,0.0,0.0,0.0,0.0,0.0,0.0,0.0,0.0,0.0,0.0,0.0,0.0,0.0,0.0,0.0,0.0,0.0,0.0,0.0,0.0,0.0,0.0,0.0,0.0,0.0,0.0,0.0,0.0,0.0,0.0,0.0,0.0,0.0,0.0,0.0,-1.4485,-1.4485,-1.4485,0.0,0.0,0.0,0.0,0.0,0.0,0.0,0.0,0.0,0.0,0.0,0.0,0.0,0.0,0.0,0.0,0.0,0.0,0.0,0.0,0.0,0.0,0.0,0.0,0.0,0.0,0.0,0.0,0.0,0.0,0.0,0.0,0.0,0.0,0.0,0.0,0.0,0.0,0.0,0.0,0.0,0.0,0.0,0.0,0.0,0.0,0.0,0.0,0.0,0.0,0.0,0.0,0.0,0.0,0.0,0.0,0.0,0.0,0.0,0.0,0.0,0.0,0.0,0.0,0.0,0.0,0.0,0.0,0.0,0.0,0.0,0.0,0.0,0.0,0.0,0.0,0.0,0.0,0.0,0.0,0.0,0.0,0.0,0.0,0.0,0.0,0.0,0.0,0.0,0.0,0.0,0.0,0.0,0.0,0.0,0.0,0.0,0.0,0.0,0.0,0.0,0.0,0.0,0.0,0.0,0.0,0.0,0.0,0.0,0.0,-1.4485,-1.4485,-1.4485,0.0,-1.4485,0.0,0.0,0.0,0.0,0.0,0.0,0.0,0.0,0.0,0.0,0.0,0.0,0.0,0.0,0.0,0.0,0.0,0.0,0.0,0.0,0.0,0.0,0.0,0.0,0.0,0.0,0.0,0.0,0.0,0.0,0.0,0.0,0.0,0.0,0.0,0.0,0.0,0.0,0.0,0.0,0.0,0.0,0.0,0.0,0.0,0.0,0.0,0.0,0.0,0.0,0.0,0.0,0.0,0.0,0.0,0.0,0.0,0.0,0.0,0.0,0.0,0.0,0.0,0.0,0.0,0.0,0.0,0.0,0.0,0.0,0.0,0.0,0.0,0.0,0.0,0.0,0.0,0.0,0.0,0.0,0.0,0.0,0.0,0.0,0.0,0.0,0.0,0.0,0.0,0.0,0.0,0.0,0.0,0.0,0.0,0.0,0.0,0.0,0.0,0.0,0.0,0.0,0.0,0.0,0.0,0.0,0.0,0.0,0.0,0.0,-1.4485,-1.4485,-1.4485,-1.4485,0.0,0.0,0.0,0.0,0.0,0.0,0.0,0.0,0.0,0.0,0.0,0.0,0.0,0.0,0.0,0.0,0.0,0.0,0.0,0.0,0.0,0.0,0.0,0.0,0.0,0.0,0.0,0.0,0.0,0.0,0.0,0.0,0.0,0.0,0.0,0.0,0.0,0.0,0.0,0.0,0.0,0.0,0.0,0.0,0.0,0.0,0.0,0.0,0.0,0.0,0.0,0.0,0.0,0.0,0.0,0.0,0.0,0.0,0.0,0.0,0.0,0.0,0.0,0.0,0.0,0.0,0.0,0.0,0.0,0.0,0.0,0.0,0.0,0.0,0.0,0.0,0.0,0.0,0.0,0.0,0.0,0.0,0.0,0.0,0.0,0.0,0.0,0.0,0.0,0.0,0.0,0.0,0.0,0.0,0.0,0.0,0.0,0.0,0.0,0.0,0.0,0.0,0.0,0.0,0.0,0.0,0.0,0.0,0.0,0.0,-1.4485,-1.4485,-1.4485,-1.4485,-1.4485,-1.4485,0.0,0.0,0.0,0.0,0.0,0.0,0.0,0.0,0.0,0.0,0.0,0.0,0.0,0.0,0.0,0.0,0.0,0.0,0.0,0.0,0.0,0.0,0.0,0.0,0.0,0.0,0.0,0.0,0.0,0.0,0.0,0.0,0.0,0.0,0.0,0.0,0.0,0.0,0.0,0.0,0.0,0.0,0.0,0.0,0.0,0.0,0.0,0.0,0.0,0.0,0.0,0.0,0.0,0.0,0.0,0.0,0.0,0.0,0.0,0.0,0.0,0.0,0.0,0.0,0.0,0.0,0.0,0.0,0.0,0.0,0.0,0.0,0.0,0.0,0.0,0.0,0.0,0.0,0.0,0.0,0.0,0.0,0.0,0.0,0.0,0.0,0.0,0.0,0.0,0.0,0.0,0.0,0.0,0.0,0.0,0.0,0.0,0.0,0.0,0.0,0.0,0.0,0.0,0.0,0.0,0.0,0.0,0.0,-1.4485,-1.4506,-1.4506,-1.4467,-1.4485,-1.4485,0.0,0.0,0.0,0.0,0.0,0.0,0.0,0.0,0.0,0.0,0.0,0.0,0.0,0.0,0.0,0.0,0.0,0.0,0.0,0.0,0.0,0.0,0.0,0.0,0.0,0.0,0.0,0.0,0.0,0.0,0.0,0.0,0.0,0.0,0.0,0.0,0.0,0.0,0.0,0.0,0.0,0.0,0.0,0.0,0.0,0.0,0.0,0.0,0.0,0.0,0.0,0.0,0.0,0.0,0.0,0.0,0.0,0.0,0.0,0.0,0.0,0.0,0.0,0.0,0.0,0.0,0.0,0.0,0.0,0.0,0.0,0.0,0.0,0.0,0.0,0.0,0.0,0.0,0.0,0.0,0.0,0.0,0.0,0.0,0.0,0.0,0.0,0.0,0.0,0.0,0.0,0.0,0.0,0.0,0.0,0.0,0.0,0.0,0.0,0.0,0.0,0.0,0.0,0.0,0.0,0.0,0.0,0.0,0.0,-1.4476,-1.4249,-1.4012,-1.3745,-1.3727,-1.3727,0.0,0.0,0.0,0.0,0.0,0.0,0.0,0.0,0.0,0.0,0.0,0.0,0.0,0.0,0.0,0.0,0.0,0.0,0.0,0.0,0.0,0.0,0.0,0.0,0.0,0.0,0.0,0.0,0.0,0.0,0.0,0.0,0.0,0.0,0.0,0.0,0.0,0.0,0.0,0.0,0.0,0.0,0.0,0.0,0.0,0.0,0.0,0.0,0.0,0.0,0.0,0.0,0.0,0.0,0.0,0.0,0.0,0.0,0.0,0.0,0.0,0.0,0.0,0.0,0.0,0.0,0.0,0.0,0.0,0.0,0.0,0.0,0.0,0.0,0.0,0.0,0.0,0.0,0.0,0.0,0.0,0.0,0.0,0.0,0.0,0.0,0.0,0.0,0.0,0.0,0.0,0.0,0.0,0.0,0.0,0.0,0.0,0.0,0.0,0.0,0.0,0.0,0.0,0.0,0.0,0.0,0.0,0.0,0.0,-1.4112,0.0,-1.3589,-1.3314,-1.3296,-1.3296,0.0,0.0,0.0,0.0,0.0,0.0,0.0,0.0,0.0,0.0,0.0,0.0,0.0,0.0,0.0,0.0,0.0,0.0,0.0,0.0,0.0,0.0,0.0,0.0,0.0,0.0,0.0,0.0,0.0,0.0,0.0,0.0,0.0,0.0,0.0,0.0,0.0,0.0,0.0,0.0,0.0,0.0,0.0,0.0,0.0,0.0,0.0,0.0,0.0,0.0,0.0,0.0,0.0,0.0,0.0,0.0,0.0,0.0,0.0,0.0,0.0,0.0,0.0,0.0,0.0,0.0,0.0,0.0,0.0,0.0,0.0,0.0,0.0,0.0,0.0,0.0,0.0,0.0,0.0,0.0,0.0,0.0,0.0,0.0,0.0,0.0,0.0,0.0,0.0,0.0,0.0,0.0,0.0,0.0,0.0,0.0,0.0,0.0,0.0,0.0,0.0,0.0,0.0,0.0,0.0,0.0,0.0,0.0,-1.37,-1.3314,-1.3296,-1.3268,-1.3277,-1.325,-1.3286,0.0,0.0,0.0,0.0,0.0,0.0,0.0,0.0,0.0,0.0,0.0,0.0,0.0,0.0,0.0,0.0,0.0,0.0,0.0,0.0,0.0,0.0,0.0,0.0,0.0,0.0,0.0,0.0,0.0,0.0,0.0,0.0,0.0,0.0,0.0,0.0,0.0,0.0,0.0,0.0,0.0,0.0,0.0,0.0,0.0,0.0,0.0,0.0,0.0,0.0,0.0,0.0,0.0,0.0,0.0,0.0,0.0,0.0,0.0,0.0,0.0,0.0,0.0,0.0,0.0,0.0,0.0,0.0,0.0,0.0,0.0,0.0,0.0,0.0,0.0,0.0,0.0,0.0,0.0,0.0,0.0,0.0,0.0,0.0,0.0,0.0,0.0,0.0,0.0,0.0,0.0,0.0,0.0,0.0,0.0,0.0,0.0,0.0,0.0,0.0,0.0,0.0,0.0,0.0,0.0,0.0,0.0,0.0,0.0,-1.2891,-1.2891,-1.2753,-1.2496,-1.2478,-1.2478,0.0,0.0,0.0,0.0,0.0,0.0,0.0,0.0,0.0,0.0,0.0,0.0,0.0,0.0,0.0,0.0,0.0,0.0,0.0,0.0,0.0,0.0,0.0,0.0,0.0,0.0,0.0,0.0,0.0,0.0,0.0,0.0,0.0,0.0,0.0,0.0,0.0,0.0,0.0,0.0,0.0,0.0,0.0,0.0,0.0,0.0,0.0,0.0,0.0,0.0,0.0,0.0,0.0,0.0,0.0,0.0,0.0,0.0,0.0,0.0,0.0,0.0,0.0,0.0,0.0,0.0,0.0,0.0,0.0,0.0,0.0,0.0,0.0,0.0,0.0,0.0,0.0,0.0,0.0,0.0,0.0,0.0,0.0,0.0,0.0,0.0,0.0,0.0,0.0,0.0,0.0,0.0,0.0,0.0,0.0,0.0,0.0,0.0,0.0,0.0,0.0,0.0,0.0,0.0,0.0,0.0,0.0,0.0,0.0,-1.268,-1.2689,-1.2569,-1.2321,-1.2312,-1.2248,-1.211,0.0,0.0,0.0,0.0,0.0,0.0,0.0,0.0,0.0,0.0,0.0,0.0,0.0,0.0,0.0,0.0,0.0,0.0,0.0,0.0,0.0,0.0,0.0,0.0,0.0,0.0,0.0,0.0,0.0,0.0,0.0,0.0,0.0,0.0,0.0,0.0,0.0,0.0,0.0,0.0,0.0,0.0,0.0,0.0,0.0,0.0,0.0,0.0,0.0,0.0,0.0,0.0,0.0,0.0,0.0,0.0,0.0,0.0,0.0,0.0,0.0,0.0,0.0,0.0,0.0,0.0,0.0,0.0,0.0,0.0,0.0,0.0,0.0,0.0,0.0,0.0,0.0,0.0,0.0,0.0,0.0,0.0,0.0,0.0,0.0,0.0,0.0,0.0,0.0,0.0,0.0,0.0,0.0,0.0,0.0,0.0,0.0,0.0,0.0,0.0,0.0,0.0,0.0,0.0,0.0,0.0,0.0,0.0,-1.2726,-1.2744,-1.2753,-1.2726,-1.2698,-1.2514,0.0,0.0,0.0,0.0,0.0,0.0,0.0,0.0,0.0,0.0,0.0,0.0,0.0,0.0,0.0,0.0,0.0,0.0,0.0,0.0,0.0,0.0,0.0,0.0,0.0,0.0,0.0,0.0,0.0,0.0,0.0,0.0,0.0,0.0,0.0,0.0,0.0,0.0,0.0,0.0,0.0,0.0,0.0,0.0,0.0,0.0,0.0,0.0,0.0,0.0,0.0,0.0,0.0,0.0,0.0,0.0,0.0,0.0,0.0,0.0,0.0,0.0,0.0,0.0,0.0,0.0,0.0,0.0,0.0,0.0,0.0,0.0,0.0,0.0,0.0,0.0,0.0,0.0,0.0,0.0,0.0,0.0,0.0,0.0,0.0,0.0,0.0,0.0,0.0,0.0,0.0,0.0,0.0,0.0,0.0,0.0,0.0,0.0,0.0,0.0,0.0,0.0,0.0,0.0,0.0,0.0,0.0,0.0,0.0,-1.3121,-1.3442,-1.3451,-1.314,-1.2854,-1.2643,0.0,0.0,0.0,0.0,0.0,0.0,0.0,0.0,0.0,0.0,0.0,0.0,0.0,0.0,0.0,0.0,0.0,0.0,0.0,0.0,0.0,0.0,0.0,0.0,0.0,0.0,0.0,0.0,0.0,0.0,0.0,0.0,0.0,0.0,0.0,0.0,0.0,0.0,0.0,0.0,0.0,0.0,0.0,0.0,0.0,0.0,0.0,0.0,0.0,0.0,0.0,0.0,0.0,0.0,0.0,0.0,0.0,0.0,0.0,0.0,0.0,0.0,0.0,0.0,0.0,0.0,0.0,0.0,0.0,0.0,0.0,0.0,0.0,0.0,0.0,0.0,0.0,0.0,0.0,0.0,0.0,0.0,0.0,0.0,0.0,0.0,0.0,0.0,0.0,0.0,0.0,0.0,0.0,0.0,0.0,0.0,0.0,0.0,0.0,0.0,0.0,0.0,0.0,0.0,0.0,0.0,0.0,0.0,-1.3066,-1.3296,-1.3855,-1.4029,-1.3818,-1.3241,-1.2873,0.0,0.0,0.0,0.0,0.0,0.0,0.0,0.0,0.0,0.0,0.0,0.0,0.0,0.0,0.0,0.0,0.0,0.0,0.0,0.0,0.0,0.0,0.0,0.0,0.0,0.0,0.0,0.0,0.0,0.0,0.0,0.0,0.0,0.0,0.0,0.0,0.0,0.0,0.0,0.0,0.0,0.0,0.0,0.0,0.0,0.0,0.0,0.0,0.0,0.0,0.0,0.0,0.0,0.0,0.0,0.0,0.0,0.0,0.0,0.0,0.0,0.0,0.0,0.0,0.0,0.0,0.0,0.0,0.0,0.0,0.0,0.0,0.0,0.0,0.0,0.0,0.0,0.0,0.0,0.0,0.0,0.0,0.0,0.0,0.0,0.0,0.0,0.0,0.0,0.0,0.0,0.0,0.0,0.0,0.0,0.0,0.0,0.0,0.0,0.0,0.0,0.0,0.0,0.0,0.0,0.0,0.0,0.0,-1.3296,-1.3305,-1.4093,-1.4485,-1.4467,-1.3717,-1.3148,0.0,0.0,0.0,0.0,0.0,0.0,0.0,0.0,0.0,0.0,0.0,0.0,0.0,0.0,0.0,0.0,0.0,0.0,0.0,0.0,0.0,0.0,0.0,0.0,0.0,0.0,0.0,0.0,0.0,0.0,0.0,0.0,0.0,0.0,0.0,0.0,0.0,0.0,0.0,0.0,0.0,0.0,0.0,0.0,0.0,0.0,0.0,0.0,0.0,0.0,0.0,0.0,0.0,0.0,0.0,0.0,0.0,0.0,0.0,0.0,0.0,0.0,0.0,0.0,0.0,0.0,0.0,0.0,0.0,0.0,0.0,0.0,0.0,0.0,0.0,0.0,0.0,0.0,0.0,0.0,0.0,0.0,0.0,0.0,0.0,0.0,0.0,0.0,0.0,0.0,0.0,0.0,0.0,0.0,0.0,0.0,0.0,0.0,0.0,0.0,0.0,0.0,0.0,0.0,0.0,0.0,0.0,0.0,-1.3296,-1.3305,-1.4093,-1.4485,-1.4506,-1.3802,-1.3422,0.0,0.0,0.0,0.0,0.0,0.0,0.0,0.0,0.0,0.0,0.0,0.0,0.0,0.0,0.0,0.0,0.0,0.0,0.0,0.0,0.0,0.0,0.0,0.0,0.0,0.0,0.0,0.0,0.0,0.0,0.0,0.0,0.0,0.0,0.0,0.0,0.0,0.0,0.0,0.0,0.0,0.0,0.0,0.0,0.0,0.0,0.0,0.0,-1.9116,0.0,0.0,0.0,0.0,0.0,0.0,0.0,0.0,0.0,0.0,0.0,0.0,0.0,0.0,0.0,0.0,0.0,0.0,0.0,0.0,0.0,0.0,0.0,0.0,0.0,0.0,0.0,0.0,0.0,0.0,0.0,0.0,0.0,0.0,0.0,0.0,0.0,0.0,0.0,0.0,0.0,0.0,0.0,0.0,0.0,0.0,0.0,0.0,0.0,0.0,0.0,0.0,0.0,0.0,0.0,0.0,0.0,0.0,0.0,-1.3387,-1.358,-1.4194,-1.4485,-1.4488,-1.3895,-1.3577,0.0,0.0,0.0,0.0,0.0,0.0,0.0,0.0,0.0,0.0,0.0,0.0,0.0,0.0,0.0,0.0,0.0,0.0,0.0,0.0,0.0,0.0,0.0,0.0,0.0,0.0,0.0,0.0,0.0,0.0,0.0,0.0,0.0,0.0,0.0,0.0,0.0,0.0,0.0,0.0,0.0,0.0,0.0,0.0,0.0,0.0,0.0,0.0,0.0,0.0,0.0,0.0,0.0,0.0,0.0,0.0,0.0,0.0,0.0,0.0,0.0,0.0,0.0,0.0,0.0,0.0,0.0,0.0,0.0,0.0,0.0,0.0,0.0,0.0,0.0,0.0,0.0,0.0,0.0,0.0,0.0,0.0,0.0,0.0,0.0,0.0,0.0,0.0,0.0,0.0,0.0,0.0,0.0,0.0,0.0,0.0,0.0,0.0,0.0,0.0,0.0,0.0,0.0,0.0,0.0,0.0,0.0,-1.3209,-1.3534,-1.393,-1.4354,-1.4565,-1.4556,-1.4026,-1.3676,-1.3549,0.0,0.0,0.0,0.0,0.0,0.0,0.0,0.0,0.0,0.0,0.0,0.0,0.0,0.0,0.0,0.0,0.0,0.0,0.0,0.0,0.0,0.0,0.0,0.0,0.0,0.0,0.0,0.0,0.0,0.0,0.0,0.0,0.0,0.0,0.0,0.0,0.0,0.0,-1.9116,-1.9116,0.0,0.0,0.0,0.0,0.0,0.0,0.0,0.0,-1.9116,0.0,0.0,0.0,0.0,0.0,0.0,0.0,0.0,0.0,0.0,0.0,0.0,0.0,0.0,0.0,0.0,0.0,0.0,0.0,0.0,0.0,0.0,0.0,0.0,0.0,0.0,0.0,0.0,0.0,0.0,0.0,0.0,0.0,0.0,0.0,0.0,0.0,0.0,0.0,0.0,0.0,0.0,0.0,0.0,0.0,0.0,0.0,0.0,0.0,0.0,0.0,0.0,0.0,0.0,0.0,0.0,-1.2905,-1.3387,-1.3773,-1.4081,-1.4607,-1.4921,-1.4893,-1.424,-1.3873,-1.3807,0.0,0.0,0.0,0.0,0.0,0.0,0.0,0.0,0.0,0.0,0.0,0.0,0.0,0.0,0.0,0.0,0.0,0.0,0.0,0.0,0.0,0.0,0.0,0.0,0.0,0.0,0.0,0.0,0.0,0.0,0.0,0.0,0.0,0.0,0.0,0.0,0.0,0.0,0.0,-1.9116,-1.9116,0.0,0.0,0.0,0.0,0.0,0.0,0.0,0.0,-1.9116,0.0,0.0,0.0,0.0,0.0,0.0,0.0,0.0,0.0,0.0,0.0,0.0,0.0,0.0,0.0,0.0,0.0,0.0,0.0,0.0,0.0,0.0,0.0,0.0,0.0,0.0,0.0,0.0,0.0,0.0,0.0,0.0,0.0,0.0,0.0,0.0,0.0,0.0,0.0,0.0,0.0,0.0,0.0,0.0,0.0,0.0,0.0,0.0,0.0,0.0,0.0,0.0,0.0,0.0,0.0,-1.338,-1.3526,-1.3913,-1.4562,-1.4837,-1.5009,-1.499,-1.4286,-1.388,0.0,0.0,0.0,0.0,0.0,0.0,0.0,0.0,0.0,0.0,0.0,0.0,0.0,0.0,0.0,0.0,0.0,0.0,0.0,0.0,0.0,0.0,0.0,0.0,0.0,0.0,0.0,0.0,0.0,0.0,0.0,0.0,0.0,0.0,0.0,0.0,0.0,0.0,0.0,0.0,-1.9116,-1.9116,-1.9116,0.0,0.0,0.0,0.0,0.0,0.0,-1.9116,-1.9116,0.0,0.0,0.0,0.0,0.0,0.0,0.0,0.0,0.0,0.0,0.0,0.0,0.0,0.0,0.0,0.0,0.0,0.0,0.0,0.0,0.0,0.0,0.0,0.0,0.0,0.0,0.0,0.0,0.0,0.0,0.0,0.0,0.0,0.0,0.0,0.0,0.0,0.0,0.0,0.0,0.0,0.0,0.0,0.0,0.0,0.0,0.0,0.0,0.0,0.0,0.0,0.0,0.0,0.0,0.0,-1.3798,-1.3796,-1.4194,-1.4991,-1.5059,-1.5088,-1.5069,-1.4331,-1.3944,0.0,0.0,0.0,0.0,0.0,0.0,0.0,0.0,0.0,0.0,0.0,0.0,0.0,0.0,0.0,0.0,0.0,0.0,0.0,0.0,0.0,0.0,0.0,0.0,0.0,0.0,0.0,0.0,0.0,0.0,0.0,0.0,0.0,0.0,0.0,0.0,0.0,0.0,0.0,0.0,0.0,-1.9116,-1.9116,-1.9116,0.0,0.0,0.0,0.0,-1.9275,-1.9188,0.0,0.0,0.0,0.0,0.0,0.0,0.0,0.0,0.0,0.0,0.0,0.0,0.0,0.0,0.0,0.0,0.0,0.0,0.0,0.0,0.0,0.0,0.0,0.0,0.0,0.0,0.0,0.0,0.0,0.0,0.0,0.0,0.0,0.0,0.0,0.0,0.0,0.0,0.0,0.0,0.0,0.0,0.0,0.0,0.0,0.0,0.0,0.0,0.0,0.0,0.0,0.0,0.0,0.0,0.0,0.0,-1.371,-1.4347,-1.4838,-1.5157,-1.5313,-1.5362,-1.5342,-1.4525,-1.4077,0.0,0.0,0.0,0.0,0.0,0.0,0.0,0.0,0.0,0.0,0.0,0.0,0.0,0.0,0.0,0.0,0.0,0.0,0.0,0.0,0.0,0.0,0.0,0.0,0.0,0.0,0.0,0.0,0.0,0.0,0.0,0.0,0.0,0.0,0.0,0.0,0.0,0.0,0.0,0.0,0.0,-1.9116,-1.9116,-1.9116,-1.9116,0.0,0.0,-1.9304,-1.9885,-1.9493,0.0,0.0,0.0,0.0,0.0,0.0,0.0,0.0,0.0,0.0,0.0,0.0,0.0,0.0,0.0,0.0,0.0,0.0,0.0,0.0,0.0,0.0,0.0,0.0,0.0,0.0,0.0,0.0,0.0,0.0,0.0,0.0,0.0,0.0,0.0,0.0,0.0,0.0,0.0,0.0,0.0,0.0,0.0,0.0,0.0,0.0,0.0,0.0,0.0,0.0,0.0,0.0,0.0,0.0,0.0,-1.3415,-1.3944,-1.4423,-1.4905,-1.5284,-1.5362,-1.542,-1.541,-1.4552,-1.4114,0.0,0.0,0.0,0.0,0.0,0.0,0.0,0.0,0.0,0.0,0.0,0.0,0.0,0.0,0.0,0.0,0.0,0.0,0.0,0.0,0.0,0.0,0.0,0.0,0.0,0.0,0.0,0.0,0.0,0.0,0.0,0.0,0.0,0.0,0.0,0.0,0.0,0.0,0.0,0.0,0.0,0.0,-1.9671,-1.9443,0.0,0.0,0.0,-1.9832,-2.0109,0.0,0.0,0.0,0.0,0.0,0.0,0.0,0.0,0.0,0.0,0.0,0.0,0.0,0.0,0.0,0.0,0.0,0.0,0.0,0.0,0.0,0.0,0.0,0.0,0.0,0.0,0.0,0.0,0.0,0.0,0.0,0.0,0.0,0.0,0.0,0.0,0.0,0.0,0.0,0.0,0.0,0.0,0.0,0.0,0.0,0.0,0.0,0.0,0.0,0.0,0.0,0.0,0.0,0.0,0.0,0.0,0.0,-1.4077,-1.4547,-1.5002,-1.54,-1.542,-1.542,-1.54,-1.466,0.0,0.0,0.0,0.0,0.0,0.0,0.0,0.0,0.0,0.0,0.0,0.0,0.0,0.0,0.0,0.0,0.0,0.0,0.0,0.0,0.0,0.0,0.0,0.0,0.0,0.0,0.0,-1.7115,0.0,0.0,0.0,0.0,0.0,0.0,0.0,0.0,0.0,0.0,0.0,0.0,0.0,0.0,-1.9675,-2.0099,-1.9783,-1.9651,0.0,0.0,-2.0216,-2.0376,-2.041,-2.045,0.0,0.0,0.0,0.0,0.0,0.0,0.0,0.0,0.0,0.0,0.0,0.0,0.0,0.0,0.0,0.0,0.0,0.0,0.0,0.0,0.0,0.0,0.0,0.0,0.0,0.0,0.0,0.0,0.0,0.0,0.0,0.0,0.0,0.0,0.0,0.0,0.0,0.0,0.0,0.0,0.0,0.0,0.0,0.0,0.0,0.0,0.0,0.0,0.0,0.0,0.0,0.0,0.0,0.0,0.0,-1.4133,-1.4923,-1.5342,-1.542,-1.542,-1.542,-1.54,-1.4971,-1.4551,0.0,0.0,0.0,0.0,0.0,0.0,0.0,0.0,0.0,0.0,0.0,0.0,0.0,0.0,0.0,0.0,0.0,0.0,0.0,0.0,0.0,0.0,0.0,0.0,0.0,0.0,0.0,0.0,0.0,0.0,0.0,0.0,0.0,0.0,0.0,0.0,0.0,0.0,0.0,0.0,0.0,-2.0133,-2.0108,-2.0059,-2.0045,0.0,0.0,-2.0311,-2.0863,-2.0936,-2.1027,-2.121,0.0,0.0,0.0,0.0,0.0,0.0,0.0,0.0,0.0,0.0,0.0,0.0,0.0,0.0,0.0,0.0,0.0,0.0,0.0,0.0,0.0,0.0,0.0,0.0,0.0,0.0,0.0,0.0,0.0,0.0,0.0,0.0,0.0,0.0,0.0,0.0,0.0,0.0,0.0,0.0,0.0,0.0,0.0,0.0,0.0,0.0,0.0,0.0,0.0,0.0,0.0,0.0,0.0,-1.4034,-1.398,-1.4848,-1.5284,-1.5254,-1.5284,-1.5313,-1.542,-1.501,-1.458,0.0,0.0,0.0,0.0,0.0,0.0,0.0,0.0,0.0,0.0,0.0,0.0,0.0,0.0,0.0,0.0,0.0,0.0,0.0,0.0,0.0,0.0,0.0,0.0,0.0,0.0,0.0,0.0,-1.8456,-1.8726,-1.9049,0.0,0.0,0.0,0.0,0.0,0.0,0.0,0.0,0.0,0.0,-2.0337,-2.0741,-2.0429,0.0,0.0,-2.0449,-2.0284,-2.0641,-2.0661,-2.0828,-2.1441,-2.1213,0.0,0.0,0.0,0.0,0.0,0.0,0.0,0.0,0.0,0.0,0.0,0.0,0.0,0.0,0.0,0.0,0.0,0.0,0.0,0.0,0.0,0.0,0.0,0.0,0.0,0.0,0.0,0.0,0.0,0.0,0.0,0.0,0.0,0.0,0.0,0.0,0.0,0.0,0.0,0.0,0.0,0.0,0.0,0.0,0.0,0.0,0.0,0.0,0.0,0.0,0.0,0.0,-1.3899,-1.389,-1.4773,-1.5205,-1.5205,-1.5235,-1.5313,-1.5371,-1.5127,-1.4775,0.0,0.0,0.0,0.0,0.0,0.0,0.0,0.0,0.0,0.0,0.0,0.0,0.0,0.0,0.0,0.0,0.0,0.0,0.0,0.0,0.0,0.0,0.0,0.0,0.0,0.0,0.0,0.0,-1.8779,-1.912,-1.9157,0.0,0.0,0.0,0.0,0.0,0.0,0.0,0.0,0.0,0.0,-2.0372,-2.0814,-2.0483,-2.0372,-2.0825,-2.0543,-2.0294,-2.0453,-2.0739,-2.1124,-2.157,0.0,0.0,0.0,0.0,0.0,0.0,0.0,0.0,0.0,0.0,0.0,0.0,0.0,0.0,0.0,0.0,0.0,0.0,0.0,0.0,0.0,0.0,0.0,0.0,0.0,0.0,0.0,0.0,0.0,0.0,0.0,0.0,0.0,0.0,0.0,0.0,0.0,0.0,0.0,0.0,0.0,0.0,0.0,0.0,0.0,0.0,0.0,0.0,0.0,0.0,0.0,0.0,0.0,-1.3782,-1.3899,-1.4773,-1.5205,-1.5205,-1.5342,-1.5381,-1.541,-1.54,-1.5205,-1.4775,0.0,0.0,0.0,0.0,0.0,0.0,0.0,0.0,0.0,0.0,0.0,0.0,0.0,0.0,0.0,0.0,0.0,0.0,0.0,0.0,0.0,0.0,0.0,0.0,0.0,0.0,-1.7868,-1.8592,-1.9157,0.0,0.0,0.0,0.0,0.0,0.0,0.0,0.0,0.0,0.0,-1.973,-2.0191,-2.0137,-2.0167,-2.0231,-2.0226,-2.0308,-2.0391,-2.0405,-2.1403,-2.2093,0.0,0.0,0.0,0.0,0.0,0.0,0.0,0.0,0.0,0.0,0.0,0.0,0.0,0.0,0.0,0.0,0.0,0.0,0.0,0.0,0.0,0.0,0.0,0.0,0.0,0.0,0.0,0.0,-1.3085,0.0,0.0,0.0,0.0,0.0,0.0,0.0,0.0,0.0,0.0,0.0,-1.2909,-1.2909,0.0,0.0,0.0,0.0,0.0,0.0,0.0,0.0,0.0,0.0,0.0,0.0,-1.3899,-1.3919,-1.4744,-1.5205,-1.5205,-1.5235,-1.5313,-1.541,-1.542,-1.5215,-1.4833,0.0,0.0,0.0,0.0,0.0,0.0,0.0,0.0,0.0,0.0,0.0,0.0,0.0,0.0,0.0,0.0,0.0,0.0,0.0,0.0,0.0,0.0,0.0,0.0,0.0,-1.8669,0.0,0.0,0.0,0.0,0.0,0.0,0.0,0.0,0.0,0.0,0.0,-1.9284,-1.9232,-1.9759,-2.0186,-2.0284,-2.0235,-2.0235,0.0,0.0,0.0,0.0,0.0,0.0,0.0,0.0,0.0,0.0,0.0,0.0,0.0,0.0,-2.3873,-2.4006,-2.44,-2.4699,-2.4684,0.0,0.0,0.0,0.0,0.0,0.0,0.0,0.0,0.0,0.0,0.0,0.0,0.0,0.0,0.0,0.0,-1.3497,0.0,0.0,0.0,0.0,0.0,0.0,0.0,0.0,-1.3296,-1.3296,-1.3296,-1.3296,-1.3296,0.0,-1.3296,-1.302,0.0,0.0,0.0,0.0,0.0,0.0,0.0,0.0,-1.3747,-1.3793,-1.4659,-1.5127,-1.5147,-1.5205,-1.5313,-1.541,-1.542,-1.5283,-1.501,-1.4745,-1.461,0.0,0.0,0.0,0.0,0.0,0.0,0.0,0.0,0.0,0.0,0.0,0.0,0.0,0.0,0.0,0.0,0.0,0.0,0.0,0.0,0.0,0.0,0.0,-1.8707,0.0,0.0,0.0,0.0,0.0,0.0,0.0,0.0,0.0,-1.9232,-1.9228,-1.9246,-1.9246,-1.9588,-1.987,-1.9932,0.0,0.0,0.0,0.0,0.0,0.0,0.0,-2.152,-2.2414,-2.2999,-2.3565,-2.4193,-2.4298,-2.4298,-2.4298,0.0,0.0,-2.3999,-2.4338,-2.4775,-2.516,-2.5584,-2.5731,-2.5455,-2.5637,-2.5709,0.0,0.0,0.0,0.0,0.0,0.0,0.0,0.0,-1.3835,-1.3901,0.0,-1.3901,0.0,0.0,0.0,0.0,0.0,0.0,0.0,0.0,-1.3351,-1.3341,-1.3369,-1.3351,-1.3341,-1.3332,-1.336,-1.3341,-1.3341,-1.3069,0.0,0.0,0.0,0.0,0.0,0.0,-1.3377,-1.3596,-1.4535,-1.5009,-1.5029,-1.5274,-1.542,-1.542,-1.542,-1.541,-1.5391,-1.5441,-1.5485,-1.5482,-1.5607,0.0,0.0,0.0,0.0,0.0,0.0,0.0,0.0,0.0,0.0,0.0,0.0,0.0,0.0,0.0,0.0,0.0,0.0,0.0,0.0,-1.7323,0.0,0.0,0.0,0.0,0.0,0.0,0.0,0.0,0.0,0.0,-1.9178,-1.9149,-1.9116,-1.912,0.0,0.0,0.0,0.0,-2.0502,-2.0454,-2.1124,-2.1675,-2.1749,-2.2278,-2.2748,-2.2808,0.0,0.0,-2.548,-2.56,-2.557,-2.5585,-2.554,-2.5382,-2.4799,-2.5007,-2.5598,-2.6628,-2.7089,-2.7681,-2.8148,-2.797,-2.8117,-1.3201,0.0,0.0,0.0,0.0,-1.3189,-1.3553,-1.4116,-1.4184,-1.4243,-1.4332,-1.4332,0.0,0.0,0.0,0.0,0.0,0.0,-1.4157,-1.4167,-1.4128,-1.4157,-1.4138,-1.4167,-1.4157,-1.4167,-1.4128,-1.4167,-1.4139,-1.3792,-1.3295,-1.2733,0.0,0.0,0.0,0.0,-1.3826,-1.4286,-1.485,-1.5167,-1.5264,-1.5352,-1.542,-1.542,-1.542,-1.542,-1.542,-1.5399,-1.5437,-1.5512,-1.5541,0.0,0.0,0.0,0.0,0.0,0.0,0.0,0.0,0.0,0.0,0.0,0.0,0.0,0.0,0.0,0.0,0.0,0.0,0.0,-1.8452,-1.8465,-1.8576,0.0,0.0,0.0,0.0,0.0,0.0,0.0,0.0,0.0,-1.9822,-1.9505,-1.9265,0.0,0.0,-2.0029,-2.0216,-2.0666,-2.1053,-2.1159,0.0,0.0,0.0,-2.3086,-2.3598,-2.4476,-2.5007,-2.5405,-2.557,-2.56,-2.56,-2.5615,-2.56,-2.5666,-2.5959,-2.5723,-2.5674,-2.5956,-2.6392,-2.6782,-2.6955,-2.7446,-2.7927,-1.3853,-1.3661,-1.3412,-1.3312,-1.3333,-1.3556,-1.3835,-1.4207,-1.4336,-1.4426,-1.4485,-1.4485,-1.4368,-1.413,-1.413,0.0,0.0,0.0,-1.4485,-1.4485,-1.4485,-1.4485,-1.4485,-1.4485,-1.4485,-1.4485,-1.4485,-1.4485,-1.4506,-1.4258,-1.38,-1.3194,0.0,0.0,-1.3052,-1.3532,-1.396,-1.4336,-1.4849,-1.5147,-1.5245,-1.5332,-1.542,-1.542,-1.542,-1.542,-1.542,-1.542,-1.5427,-1.5443,-1.5474,-1.5404,0.0,0.0,0.0,0.0,0.0,0.0,0.0,0.0,0.0,0.0,0.0,-1.6231,0.0,0.0,0.0,0.0,-1.7266,-1.807,-1.8759,-1.8752,0.0,0.0,0.0,0.0,0.0,0.0,0.0,-1.9856,-1.9914,-2.0118,-2.0464,-2.0294,-2.0137,-2.018,-2.046,-2.073,-2.0882,0.0,-2.2167,-2.2194,-2.2695,-2.334,-2.4082,-2.4283,-2.4686,-2.5691,-2.5941,-2.6123,-2.6348,-2.6393,-2.6393,-2.6378,-2.6393,-2.6512,-2.6926,-2.6671,-2.6546,-2.6909,-2.7416,-2.7782,-2.7979,-2.8435,-2.8805,-1.4717,-1.4656,-1.41,-1.3774,-1.3666,-1.4138,-1.4267,-1.4138,-1.4457,-1.4577,-1.4616,-1.4577,-1.4588,-1.4561,-1.4561,0.0,0.0,-1.4485,-1.4485,-1.4485,-1.4485,-1.4485,-1.4485,-1.4485,-1.4485,-1.4485,-1.4485,-1.4485,-1.4485,-1.4485,-1.4313,-1.3928,-1.3571,-1.336,-1.3341,-1.3681,-1.3911,-1.392,-1.4607,-1.498,-1.5029,-1.5274,-1.542,-1.542,-1.542,-1.542,-1.542,-1.542,-1.542,-1.54,-1.5499,-1.5571,-1.5547,0.0,0.0,0.0,0.0,0.0,0.0,0.0,0.0,0.0,0.0,0.0,0.0,0.0,0.0,0.0,-1.7149,0.0,-1.8197,-1.8588,0.0,0.0,0.0,-2.0378,-2.093,-2.0988,-2.0988,-2.0988,0.0,0.0,0.0,0.0,-2.155,-2.1621,-2.1586,-2.153,-2.1389,-2.2725,-2.365,-2.3511,-2.4655,-2.5561,-2.5576,-2.5681,-2.5974,-2.6557,-2.6686,-2.6881,-2.739,-2.7525,-2.757,-2.751,-2.757,-2.7555,-2.7585,-2.7585,-2.7993,-2.8826,-2.9345,-2.9805,-3.0036,-3.021,-3.0298,-1.4717,-1.4667,-1.4552,-1.453,-1.4568,-1.4705,-1.492,-1.5151,-1.5255,-1.5319,-1.5414,-1.5414,-1.5239,-1.4964,-1.4964,-1.479,-1.4485,-1.4485,-1.4485,-1.4485,-1.4485,-1.4485,-1.4485,-1.4485,-1.4485,-1.4485,-1.4485,-1.4485,-1.4485,-1.4485,-1.446,-1.4368,-1.4268,-1.391,-1.3332,-1.369,-1.3949,-1.4053,-1.451,-1.4902,-1.5156,-1.5303,-1.542,-1.542,-1.542,-1.542,-1.542,-1.542,-1.542,-1.541,-1.5839,-1.5811,-1.5112,-1.585,0.0,0.0,0.0,0.0,0.0,0.0,0.0,0.0,0.0,-1.6132,-1.6457,0.0,-1.661,0.0,-1.8066,-1.8811,-1.9272,-1.9737,0.0,0.0,-2.0441,-2.0828,-2.0988,-2.0988,-2.0988,-2.0988,-2.0988,-2.1233,-2.1827,-2.228,-2.2805,-2.3407,-2.3142,-2.2848,-2.297,-2.3961,-2.4834,-2.5012,-2.5288,-2.5661,-2.6288,-2.6821,-2.7136,-2.7345,-2.736,-2.742,-2.757,-2.7585,-2.7585,-2.7585,-2.7585,-2.7585,-2.7585,-2.8189,-2.8732,-2.9051,-2.9205,-2.9296,-2.9416,-3.0006,-3.0489,-1.518,-1.5189,-1.518,-1.5265,-1.5433,-1.5116,-1.5171,-1.5375,-1.5528,-1.5624,-1.5689,-1.5689,-1.557,-1.5368,-1.5368,-1.5249,-1.5029,-1.4854,-1.4772,-1.4763,-1.4568,-1.4485,-1.4485,-1.4485,-1.4485,-1.4485,-1.4485,-1.4485,-1.4485,-1.4485,-1.4485,-1.4485,-1.4485,-1.4194,-1.3598,-1.381,-1.3939,-1.4005,-1.4452,-1.4872,-1.5186,-1.5254,-1.5342,-1.5371,-1.5234,-1.5137,-1.5127,-1.4941,-1.4918,-1.5169,-1.5491,-1.5444,-1.4989,-1.5714,-1.5816,0.0,0.0,0.0,0.0,0.0,0.0,0.0,0.0,0.0,0.0,0.0,-1.7157,0.0,-1.8777,0.0,-1.9688,-1.9962,-2.0087,-2.0075,-2.0679,-2.1205,-2.1477,-2.173,-2.1837,-2.1837,-2.1837,-2.2142,-2.2848,-2.3241,-2.3693,-2.4361,-2.4476,-2.4429,-2.4292,-2.5044,-2.5726,-2.5847,-2.6143,-2.6514,-2.6991,-2.7345,-2.7585,-2.7585,-2.7585,-2.7585,-2.7585,-2.7585,-2.7585,-2.7585,-2.7585,-2.7585,-2.761,-2.7993,-2.8487,-2.8709,-2.8935,-2.9234,-2.9639,-3.0151,-3.0489,-1.5805,-1.5805,-1.5805,-1.5903,-1.6018,-1.5514,-1.5331,-1.5373,-1.5649,-1.578,-1.5803,-1.5845,-1.5817,-1.5771,-1.5771,-1.5735,-1.567,-1.5331,-1.5175,-1.5157,-1.4818,-1.4662,-1.4662,-1.4671,-1.4634,-1.4588,-1.4588,-1.4561,-1.4485,-1.4485,-1.4485,-1.4485,-1.4485,-1.4304,-1.3892,-1.3873,-1.3929,-1.3994,-1.4451,-1.4872,-1.5156,-1.5186,-1.5206,-1.5264,-1.4952,-1.4756,-1.4697,-1.4309,-1.4317,-1.4767,-1.4913,-1.5007,-1.5006,-1.5508,-1.5594,0.0,-1.5611,0.0,0.0,0.0,0.0,0.0,0.0,0.0,0.0,-1.7182,-1.7919,-1.9562,-1.9329,-1.9281,-1.9768,-1.9792,-1.9854,-1.9913,-2.0688,-2.1475,-2.2123,-2.2569,-2.2863,-2.3004,-2.3018,-2.3287,-2.3891,-2.4174,-2.4489,-2.4917,-2.5558,-2.5794,-2.5428,-2.5948,-2.6441,-2.6366,-2.7051,-2.7465,-2.751,-2.757,-2.7585,-2.7585,-2.7585,-2.7585,-2.7585,-2.7585,-2.7585,-2.7585,-2.7585,-2.7585,-2.7585,-2.7675,-2.787,-2.828,-2.8803,-2.9438,-3.0113,-3.0405,-3.0489,-1.5805,-1.5805,-1.5805,-1.5832,-1.585,-1.5913,-1.5991,-1.6094,-1.6155,-1.6292,-1.6455,-1.6601,-1.6471,-1.6202,-1.6193,-1.6019,-1.568,-1.5615,-1.5579,-1.557,-1.5505,-1.546,-1.5469,-1.5469,-1.5294,-1.5001,-1.4992,-1.4827,-1.4485,-1.4485,-1.4485,-1.4485,-1.4485,-1.4295,0.0,0.0,0.0,0.0,-1.459,-1.4813,-1.5029,-1.5029,-1.4955,-1.4771,-1.4684,0.0,-1.4152,-1.4126,-1.4158,-1.4274,-1.5077,0.0,0.0,0.0,0.0,0.0,0.0,0.0,0.0,0.0,0.0,0.0,-1.7339,-1.7398,-1.7663,-1.8153,-1.8659,-1.9106,-1.9447,-1.9699,-1.9788,-2.0204,-2.0428,-2.0478,-2.0989,-2.157,-2.2123,-2.2301,-2.2671,-2.3612,-2.3717,-2.3949,-2.4549,-2.512,-2.5483,-2.5643,-2.6195,-2.657,-2.6454,-2.6744,-2.7052,-2.7172,-2.7424,-2.76,-2.7585,-2.7585,-2.7585,-2.7585,-2.7585,-2.7585,-2.7585,-2.7585,-2.7585,-2.7585,-2.7585,-2.76,-2.7615,-2.7879,-2.818,-2.8295,-2.9044,-2.9705,-2.9919,-3.0258,-3.0489,-1.6242,0.0,-1.6107,-1.5968,0.0,-1.5903,-1.6,-1.607,-1.6342,-1.6551,-1.6751,-1.6864,-1.6798,-1.6615,-1.6606,-1.6486,-1.6285,-1.6092,-1.6001,-1.5991,-1.578,-1.5689,-1.5689,-1.5689,-1.5579,-1.5395,-1.5395,-1.5294,-1.5102,-1.5093,-1.5001,-1.4799,-1.4799,-1.4598,-1.4203,-1.4194,-1.4203,-1.4203,-1.4484,-1.4666,-1.4843,-1.4872,-1.4827,-1.4802,0.0,0.0,0.0,0.0,0.0,0.0,0.0,0.0,0.0,0.0,0.0,-1.5727,-1.6188,-1.6754,-1.7311,-1.7684,-1.7979,-1.8195,-1.8256,-1.8273,-1.8204,-1.8821,-1.9257,-1.9396,-1.966,-1.9798,-1.9824,-2.0055,-2.0207,-2.0232,-2.0671,-2.132,-2.2104,-2.249,-2.3088,-2.4105,-2.4355,-2.4588,-2.5226,-2.5546,-2.5948,-2.6253,-2.6588,-2.6794,-2.6846,-2.7026,-2.7258,-2.7448,-2.7564,-2.76,-2.7585,-2.7585,-2.7585,-2.7585,-2.7585,-2.7585,-2.7585,-2.7585,-2.7585,-2.7585,-2.7585,-2.7675,-2.8034,-2.8283,-2.8626,-2.9177,-2.9699,-3.0133,-3.0329,-3.0727,-3.095,-1.6271,-1.6042,-1.6033,-1.583,-1.5519,-1.5527,-1.5671,-1.5914,0.0,0.0,0.0,-1.6864,-1.6908,-1.6908,-1.6908,-1.6908,-1.689,-1.6569,-1.6389,-1.637,-1.6065,-1.59,-1.5909,-1.59,-1.5872,-1.5799,-1.5799,-1.5762,-1.5689,-1.5689,-1.5524,-1.523,-1.5203,-1.501,-1.4643,-1.4616,-1.4414,-1.4029,-1.4341,-1.4556,-1.4706,-1.4686,-1.4717,-1.4857,-1.4468,-1.4308,-1.439,-1.4055,-1.4131,-1.4688,-1.4775,-1.4852,-1.4879,-1.5311,-1.5616,-1.5757,-1.6188,-1.6871,-1.7789,-1.8069,-1.8426,-1.8963,-1.9013,-1.8937,-1.8756,-1.9253,-1.963,-1.9798,-1.9798,-1.9798,-1.9798,-1.9899,-1.9949,-1.9987,-2.0425,-2.1183,-2.2182,-2.2779,-2.354,-2.4579,-2.4896,-2.5216,-2.5865,-2.5981,-2.6166,-2.666,-2.6791,-2.682,-2.6858,-2.7052,-2.731,-2.7509,-2.76,-2.7585,-2.7585,-2.7585,-2.7585,-2.7585,-2.7705,-2.7779,-2.7794,-2.7869,-2.7944,-2.8064,-2.7959,-2.8229,-2.8637,-2.8783,-2.9109,-2.9988,-3.0278,-3.0392,-3.0713,-3.1253,-3.1524,-1.4647,-1.4602,-1.4602,-1.4541,-1.4497,-1.4497,-1.5134,-1.6138,-1.6304,-1.6473,-1.6647,-1.6839,-1.6908,-1.6908,-1.6908,-1.6908,-1.6908,-1.6844,-1.6826,0.0,-1.6762,-1.6734,-1.6734,-1.6734,-1.656,-1.6257,-1.623,-1.6037,-1.5725,-1.5698,-1.5652,-1.5615,-1.5606,-1.5404,-1.5056,-1.5019,-1.4818,-1.4433,-1.4478,-1.4565,-1.4715,-1.4577,-1.442,-1.4241,-1.4185,-1.3979,-1.367,-1.3714,-1.3828,-1.406,-1.4437,-1.4687,-1.4818,-1.5218,-1.5425,-1.5483,-1.6002,-1.6399,-1.6592,-1.7516,-1.8374,-1.8922,-1.9013,-1.9083,-1.927,-1.9371,-1.9539,-1.9773,-1.9811,-1.9798,-1.9823,-2.0277,-2.0566,-2.0591,-2.1048,-2.165,-2.2298,-2.2855,-2.3687,-2.4831,-2.5368,-2.5894,-2.6445,-2.6617,-2.662,-2.675,-2.6794,-2.6846,-2.6951,-2.7093,-2.731,-2.7524,-2.7585,-2.7585,-2.7585,-2.7585,-2.7615,-2.7585,-2.8094,-2.8397,-2.8457,-2.8843,-2.9142,-2.9277,-2.9187,-2.9292,-2.9457,-2.9472,-2.9589,-2.9873,-3.0156,-3.0322,-3.0156,-3.1088,-3.1939,-1.4772,-1.4572,-1.4565,-1.4471,-1.4326,-1.4326,-1.4739,-1.5473,-1.5512,-1.6133,-1.7025,-1.6965,-1.6908,-1.6908,-1.6908,-1.6908,-1.6908,-1.6908,-1.6908,-1.6908,-1.6908,-1.6908,-1.6908,-1.6908,-1.6782,-1.6642,-1.6633,-1.6541,-1.6358,-1.6349,-1.6248,-1.6028,-1.5799,-1.5597,-1.5432,-1.5423,-1.5221,-1.4836,-1.4625,-1.4536,-1.4586,-1.4536,-1.4444,-1.4318,-1.4309,-1.4255,-1.4175,-1.4223,-1.4308,-1.4496,-1.4773,-1.4946,-1.5042,-1.5255,-1.5555,-1.5853,-1.614,-1.6443,-1.6782,-1.7589,-1.8348,-1.8934,-1.9013,-1.9066,-1.9275,-1.9342,-1.9486,-1.9694,-2.0022,-2.0275,-2.0314,-2.0805,-2.1144,-2.1144,-2.1355,-2.1984,-2.3055,-2.3487,-2.4281,-2.5649,-2.6159,-2.6471,-2.6777,-2.6794,-2.6794,-2.6794,-2.6794,-2.6846,-2.6977,-2.7055,-2.7196,-2.7423,-2.7564,-2.76,-2.7585,-2.7585,-2.775,-2.8079,-2.8382,-2.8742,-2.9026,-2.9445,-2.9592,-2.9621,-2.9621,-2.9756,-3.0011,-3.0088,-3.0223,-3.0597,-3.0766,-3.0807,-3.0827,-3.1561,-3.2379,-1.4621,-1.4315,-1.4308,-1.4175,-1.394,-1.3933,-1.4251,-1.4791,-1.4756,-1.561,-1.6947,-1.6732,-1.6546,-1.6501,-1.6501,-1.6448,-1.6368,-1.6368,-1.6368,-1.6403,-1.6586,-1.6656,-1.6691,-1.6795,-1.6908,-1.6908,-1.6908,-1.6908,-1.6908,-1.6908,-1.6752,-1.645,-1.612,-1.5918,-1.5835,-1.5826,-1.5634,-1.5239,-1.4937,-1.4689,-1.4494,-1.4485,-1.4485,-1.4485,-1.4485,-1.4536,-1.4627,-1.4656,-1.4754,-1.4902,-1.5068,-1.5156,-1.5205,-1.5342,-1.5604,-1.6026,-1.6112,-1.6425,-1.7146,-1.7644,-1.8201,-1.8934,-1.9107,-1.9233,-1.9325,-1.9568,-1.9754,-1.9863,-2.042,-2.0826,-2.0943,-2.137,-2.1681,-2.171,-2.1794,-2.24,-2.3611,-2.3997,-2.4573,-2.5972,-2.6299,-2.6392,-2.6553,-2.6594,-2.6647,-2.6753,-2.6794,-2.6832,-2.6925,-2.6977,-2.7107,-2.7273,-2.7437,-2.7564,-2.7564,-2.7754,-2.8023,-2.8547,-2.8891,-2.928,-2.9699,-2.9894,-3.0043,-3.0133,-3.0088,-3.0283,-3.0642,-3.0731,-3.0898,-3.1271,-3.1389,-3.1435,-3.1405,-3.1762,-3.2516,-1.2942,-1.2881,-1.2947,-1.2863,-1.2862,-1.2862,-1.3474,-1.4352,-1.4246,-1.4838,-1.5866,-1.5697,-1.5485,-1.5294,-1.5307,-1.5182,-1.4944,-1.4824,-1.4875,-1.4991,-1.5578,-1.5903,-1.5991,-1.6551,-1.6908,-1.6874,-1.6908,-1.6908,-1.6908,-1.6908,-1.689,-1.6853,-1.6807,-1.6597,-1.6303,-1.6257,-1.6056,-1.5684,-1.5597,-1.5239,-1.4531,-1.4485,-1.4485,-1.4485,-1.4485,-1.4506,-1.4506,-1.4515,-1.4586,-1.4715,-1.4902,-1.5068,-1.5176,-1.5342,-1.5439,-1.5497,-1.5497,-1.5979,-1.7062,-1.7246,-1.7804,-1.889,-1.9483,-1.9736,-1.976,-2.0294,-2.0575,-2.0541,-2.0856,-2.1225,-2.1443,-2.1907,-2.2205,-2.223,-2.2623,-2.303,-2.3297,-2.3732,-2.4182,-2.4308,-2.5021,-2.537,-2.5879,-2.6029,-2.626,-2.6753,-2.6794,-2.6806,-2.6832,-2.6925,-2.6977,-2.7081,-2.7248,-2.7446,-2.7571,-2.8066,-2.8461,-2.8712,-2.9579,-3.0148,-3.0432,-3.0866,-3.1286,-3.0971,-3.1167,-3.1197,-3.1271,-3.1406,-3.1376,-3.1436,-3.1496,-3.1496,-3.1496,-3.1582,-3.2076,-1.2705,-1.2705,-1.2705,-1.2705,-1.2705,-1.2705,-1.3039,-1.3613,-1.3552,-1.3833,-1.431,-1.4268,-1.4619,-1.533,-1.536,-1.5235,-1.5146,-1.5109,-1.5146,-1.5122,-1.5316,-1.5393,-1.5449,-1.5963,-1.6263,-1.6298,-1.6691,-1.6908,-1.6908,-1.6908,-1.6908,-1.6908,-1.6908,-1.6826,-1.6679,-1.6661,-1.6459,-1.6083,-1.6056,-1.578,-1.5249,-1.4974,-1.4744,-1.4543,-1.4485,-1.4485,-1.4485,-1.4485,-1.4536,-1.4586,-1.4852,-1.5029,-1.5098,-1.5284,-1.542,-1.542,-1.542,-1.594,-1.7129,-1.7492,-1.8194,-1.9401,-1.9961,-2.0273,-2.0298,-2.0824,-2.1146,-2.119,-2.1416,-2.1626,-2.1848,-2.2338,-2.2693,-2.2765,-2.2982,-2.3245,-2.3691,-2.3927,-2.4205,-2.4567,-2.4851,-2.5077,-2.537,-2.5688,-2.6138,-2.6647,-2.6794,-2.6753,-2.6806,-2.6832,-2.6873,-2.6943,-2.7334,-2.7753,-2.7954,-2.8226,-2.8812,-2.9537,-3.0118,-3.0552,-3.1032,-3.1241,-3.1481,-3.1496,-3.1496,-3.1496,-3.1451,-3.1496,-3.1496,-3.1496,-3.1496,-3.1496,-3.1496,-3.1496,-3.1866,-1.2705,-1.2705,-1.2705,-1.2705,-1.2705,-1.2705,-1.279,-1.2966,-1.3052,-1.3185,-1.3313,-1.3398,-1.3945,-1.4825,-1.4904,-1.49,-1.4848,-1.4887,-1.4887,-1.4857,-1.4858,-1.4893,-1.4945,-1.5463,-1.5738,-1.5793,-1.6182,-1.6334,-1.6281,-1.6254,-1.6368,-1.6551,-1.6586,-1.6691,-1.6874,-1.6908,-1.6771,-1.6471,-1.6477,-1.6276,-1.5881,-1.5588,-1.5239,-1.4873,-1.4726,-1.4671,-1.4671,-1.4579,-1.4485,-1.4515,-1.4764,-1.4902,-1.4931,-1.5196,-1.5362,-1.543,-1.5527,-1.6045,-1.707,-1.7585,-1.8324,-1.9343,-1.9913,-2.0346,-2.0576,-2.0997,-2.1433,-2.1747,-2.1867,-2.1986,-2.2286,-2.2625,-2.2896,-2.3017,-2.3047,-2.3275,-2.3734,-2.3839,-2.3972,-2.4423,-2.4366,-2.4595,-2.4794,-2.5258,-2.5825,-2.6353,-2.6541,-2.6674,-2.6796,-2.6924,-2.707,-2.707,-2.7686,-2.8111,-2.8335,-2.8797,-2.9387,-3.0063,-3.0627,-3.0972,-3.1406,-3.1466,-3.1496,-3.1496,-3.1496,-3.1496,-3.1496,-3.1496,-3.1496,-3.1496,-3.1496,-3.1496,-3.1496,-3.1496,-3.1653,-1.2705,-1.2705,-1.2705,-1.2705,-1.2705,-1.2705,-1.2705,-1.2753,-1.2966,-1.31,-1.3137,-1.3313,-1.3464,-1.3555,-1.355,-1.3393,-1.3366,-1.3445,-1.3491,-1.3564,-1.407,-1.4345,-1.4384,-1.5142,-1.5502,-1.5407,-1.5423,-1.5207,-1.4864,-1.4804,-1.5117,-1.5789,-1.5833,-1.6184,-1.6656,-1.6726,-1.6864,-1.6775,-1.6766,-1.6645,-1.634,-1.6233,-1.6046,-1.5652,-1.5267,-1.5074,-1.5038,-1.4726,-1.4504,-1.4494,-1.4673,-1.4734,-1.4754,-1.5048,-1.5312,-1.5469,-1.582,-1.6327,-1.6956,-1.7439,-1.7975,-1.8577,-1.9234,-1.9676,-2.0274,-2.0818,-2.1397,-2.2075,-2.2077,-2.2286,-2.2531,-2.2616,-2.2769,-2.2909,-2.2909,-2.3017,-2.3155,-2.3245,-2.3155,-2.3275,-2.3352,-2.3649,-2.4118,-2.4652,-2.5258,-2.5784,-2.5962,-2.6194,-2.6753,-2.7277,-2.7608,-2.7782,-2.8171,-2.8573,-2.8434,-2.9102,-2.9984,-3.063,-3.1047,-3.1391,-3.1451,-3.1496,-3.1496,-3.1496,-3.1496,-3.1496,-3.1496,-3.1496,-3.1496,-3.1496,-3.1496,-3.1496,-3.1496,-3.1496,-3.1611,-1.2705,-1.2705,-1.2705,-1.2705,-1.2705,-1.2705,-1.2705,-1.2705,-1.279,-1.2833,-1.2881,-1.2918,-1.3052,-1.3215,-1.3163,-1.332,-1.352,-1.3685,-1.3774,-1.3789,-1.3845,-1.387,-1.3929,-1.4438,-1.4717,-1.4772,-1.5134,-1.5202,-1.4938,-1.4906,-1.4932,-1.4991,-1.5029,-1.518,-1.5392,-1.5428,-1.5683,-1.6149,-1.6193,-1.6332,-1.6595,-1.6697,-1.6615,-1.645,-1.5817,-1.5478,-1.551,-1.5331,-1.5148,-1.49,-1.5004,-1.5086,-1.5135,-1.5645,-1.6035,-1.6208,-1.6406,-1.6733,-1.7359,-1.7843,-1.8354,-1.897,-1.9508,-1.9866,-2.0219,-2.0735,-2.123,-2.1494,-2.1956,-2.2259,-2.234,-2.2463,-2.2604,-2.2836,-2.2909,-2.2939,-2.3078,-2.3095,-2.3095,-2.3095,-2.3095,-2.3365,-2.3897,-2.4305,-2.4652,-2.5258,-2.5967,-2.6469,-2.6887,-2.7649,-2.8304,-2.8419,-2.8855,-2.9275,-2.9327,-2.9687,-3.0316,-3.0932,-3.1376,-3.1436,-3.1496,-3.1496,-3.1496,-3.1496,-3.1496,-3.1496,-3.1496,-3.1496,-3.1496,-3.1496,-3.1496,-3.1496,-3.1496,-3.1496,-3.1496,-1.2705,-1.2705,-1.2705,-1.2705,-1.2705,-1.2705,-1.2705,-1.2705,-1.2705,-1.2705,-1.2705,-1.2705,-1.279,-1.2966,-1.3052,-1.3222,-1.3525,-1.3737,-1.3913,-1.3935,-1.375,-1.3705,-1.3789,-1.4081,-1.4257,-1.4275,-1.4658,-1.4756,-1.4494,-1.4396,-1.4379,-1.4392,-1.4312,-1.4394,-1.453,-1.4601,-1.4895,-1.5321,-1.5436,-1.5648,-1.6149,-1.6438,-1.6542,-1.6505,-1.6224,-1.601,-1.59,-1.5771,-1.5579,-1.5372,-1.5379,-1.5451,-1.5542,-1.604,-1.6414,-1.657,-1.6811,-1.7103,-1.7525,-1.7997,-1.8447,-1.8826,-1.9186,-1.9474,-1.9737,-2.0387,-2.0805,-2.1167,-2.1757,-2.2197,-2.2216,-2.2278,-2.2451,-2.2696,-2.2787,-2.2878,-2.3017,-2.3078,-2.3095,-2.3095,-2.3095,-2.3335,-2.3688,-2.3944,-2.4334,-2.4889,-2.5838,-2.6442,-2.6842,-2.7796,-2.8656,-2.8728,-2.9406,-2.9886,-3.0046,-3.0308,-3.057,-3.1084,-3.1392,-3.1481,-3.1496,-3.1496,-3.1496,-3.1496,-3.1496,-3.1496,-3.1496,-3.1496,-3.1496,-3.1496,-3.1496,-3.1496,-3.1496,-3.1496,-3.1496,-1.2705,-1.2705,-1.2705,-1.2705,-1.2705,-1.2705,-1.2705,-1.2705,-1.2705,-1.2705,-1.2705,-1.2705,-1.2705,-1.2747,-1.2973,-1.3094,-1.3137,-1.3307,-1.3519,-1.3688,-1.3675,-1.3789,-1.3999,-1.4001,-1.4072,-1.4065,-1.3809,-1.3534,-1.3404,-1.3238,-1.3366,-1.3767,-1.3623,-1.3783,-1.4494,-1.435,-1.4494,-1.4601,-1.4601,-1.4645,-1.4708,-1.5507,-1.5903,-1.5939,-1.648,-1.6661,-1.6331,-1.5964,-1.5771,-1.5707,-1.573,-1.5762,-1.5923,-1.6181,-1.6322,-1.6597,-1.7028,-1.7363,-1.7455,-1.7801,-1.8075,-1.8166,-1.809,-1.8462,-1.9021,-1.9661,-2.0291,-2.0805,-2.1506,-2.2061,-2.2061,-2.2092,-2.2204,-2.2389,-2.2586,-2.2739,-2.2909,-2.3017,-2.3095,-2.3108,-2.3158,-2.3133,-2.3276,-2.3757,-2.4356,-2.4845,-2.5529,-2.6131,-2.6661,-2.7776,-2.847,-2.8792,-2.9316,-2.9843,-3.0333,-3.0762,-3.097,-3.1205,-3.1365,-3.1482,-3.1467,-3.1467,-3.1496,-3.1496,-3.1496,-3.1496,-3.1496,-3.1496,-3.1496,-3.1496,-3.1496,-3.1496,-3.1496,-3.1496,-3.1496,-1.2705,-1.2705,-1.2705,-1.2705,-1.2705,-1.2705,-1.2705,-1.2705,-1.2705,-1.2705,-1.2705,-1.2705,-1.2705,-1.2705,-1.279,-1.2839,-1.2839,-1.2918,-1.3137,-1.3434,-1.3476,-1.3525,-1.361,-1.3652,-1.3695,-1.3815,-1.3911,-1.3794,-1.35,-1.336,-1.3331,-1.3137,-1.3068,-1.3007,-1.3046,-1.3025,-1.3237,-1.3781,-1.3818,-1.407,-1.4601,-1.5365,-1.5798,-1.5868,-1.6517,-1.6835,-1.6716,-1.6597,-1.637,-1.6138,-1.612,-1.6186,-1.6379,-1.6702,-1.701,-1.7264,-1.747,-1.7702,-1.7822,-1.792,-1.8008,-1.8008,-1.8008,-1.8076,-1.8337,-1.8977,-1.9431,-1.9726,-2.0323,-2.0912,-2.1293,-2.1431,-2.1714,-2.2328,-2.2451,-2.2616,-2.2848,-2.3042,-2.3095,-2.3158,-2.3446,-2.369,-2.3828,-2.423,-2.4639,-2.49,-2.5703,-2.6443,-2.6776,-2.7687,-2.8492,-2.8624,-2.9146,-2.9532,-2.9962,-3.0312,-3.0538,-3.0925,-3.1234,-3.1424,-3.1409,-3.1467,-3.1467,-3.1496,-3.1496,-3.1496,-3.1496,-3.1496,-3.1496,-3.1496,-3.1496,-3.1496,-3.1496,-3.1496,-3.1496,-1.2705,-1.2717,-1.2813,-1.2862,-1.288,-1.2958,-1.3,-1.3006,-1.3006,-1.3006,-1.3012,-1.3006,-1.3006,-1.3006,-1.3006,-1.2952,-1.2868,-1.2868,-1.2936,-1.3149,-1.327,-1.3313,-1.3398,-1.3398,-1.3434,-1.3568,-1.3743,-1.3736,-1.3518,-1.3434,-1.3198,-1.2929,-1.2711,-1.2551,-1.2353,-1.2314,-1.2592,-1.2996,-1.3062,-1.328,-1.381,-1.453,-1.4931,-1.5046,-1.5648,-1.6158,-1.6438,-1.6517,-1.6504,-1.6519,-1.6498,-1.66,-1.672,-1.7027,-1.7304,-1.7467,-1.7638,-1.7774,-1.7896,-1.793,-1.8008,-1.8008,-1.8008,-1.8008,-1.8144,-1.862,-1.9011,-1.911,-1.9704,-2.0291,-2.0645,-2.0996,-2.1345,-2.1839,-2.2223,-2.2512,-2.286,-2.3156,-2.336,-2.3528,-2.3935,-2.4243,-2.4418,-2.4757,-2.5084,-2.5237,-2.5957,-2.6633,-2.6817,-2.7453,-2.7873,-2.8233,-2.8524,-2.8985,-2.9529,-2.9808,-3.0068,-3.0553,-3.1087,-3.1234,-3.1351,-3.1438,-3.1496,-3.1496,-3.1496,-3.1496,-3.1496,-3.1496,-3.1496,-3.1496,-3.1496,-3.1496,-3.1496,-3.1496,-3.1496,-1.2753,-1.2783,-1.3037,-1.3145,-1.3175,-1.3375,-1.3447,-1.3489,-1.3477,-1.3453,-1.342,-1.3435,-1.3465,-1.3438,-1.3423,-1.332,-1.3131,-1.3091,-1.297,-1.2887,-1.2991,-1.3137,-1.327,-1.3307,-1.3349,-1.3392,-1.3434,-1.3434,-1.3419,-1.3233,-1.2991,-1.2958,-1.2673,-1.2402,-1.2356,-1.2315,-1.2308,-1.2342,-1.2335,-1.2372,-1.2519,-1.3208,-1.36,-1.3673,-1.4394,-1.5073,-1.5613,-1.5868,-1.6219,-1.6786,-1.6853,-1.6844,-1.6925,-1.7072,-1.7166,-1.7235,-1.751,-1.7638,-1.774,-1.7862,-1.7974,-1.8008,-1.8008,-1.8008,-1.811,-1.8496,-1.8811,-1.8844,-1.9408,-1.9868,-2.0063,-2.053,-2.0982,-2.1314,-2.2091,-2.2616,-2.2929,-2.3381,-2.376,-2.4023,-2.4474,-2.4838,-2.485,-2.5322,-2.5586,-2.5757,-2.6177,-2.6447,-2.6625,-2.7043,-2.7324,-2.7604,-2.7822,-2.8214,-2.868,-2.8871,-2.9125,-2.9763,-3.0418,-3.0896,-3.1234,-3.1409,-3.1496,-3.1496,-3.1496,-3.1496,-3.1496,-3.1496,-3.1496,-3.1496,-3.1496,-3.1496,-3.1496,-3.1496,-3.1496,-1.3302,-1.3314,-1.3381,-1.3417,-1.3378,-1.3495,-1.3474,-1.3519,-1.348,-1.355,-1.348,-1.3468,-1.3544,-1.3474,-1.3532,-1.3471,-1.3387,-1.3224,-1.3065,-1.2988,-1.2826,-1.2845,-1.2918,-1.3094,-1.3179,-1.3179,-1.3307,-1.3398,-1.3392,-1.3267,-1.3134,-1.2985,-1.286,-1.2573,-1.2235,-1.219,-1.2105,-1.2079,-1.2077,-1.215,-1.2409,-1.3062,-1.3499,-1.3564,-1.4171,-1.4637,-1.4966,-1.5507,-1.6149,-1.6839,-1.6908,-1.6908,-1.6908,-1.6968,-1.7072,-1.7176,-1.727,-1.7432,-1.7672,-1.775,-1.7828,-1.7974,-1.8008,-1.8008,-1.8008,-1.8168,-1.8259,-1.8303,-1.8506,-1.8808,-1.9273,-1.9825,-2.0618,-2.1989,-2.2624,-2.3009,-2.3215,-2.3678,-2.4151,-2.4375,-2.4855,-2.5182,-2.5477,-2.5845,-2.6197,-2.6248,-2.6348,-2.6487,-2.6555,-2.6624,-2.6939,-2.6803,-2.6973,-2.7384,-2.7749,-2.7901,-2.8247,-2.8857,-2.9594,-3.0403,-3.0866,-3.1351,-3.1438,-3.1496,-3.1496,-3.1496,-3.1496,-3.1496,-3.1496,-3.1496,-3.1496,-3.1496,-3.1496,-3.1496,-3.1496,-1.3468,-1.348,-1.3634,-1.3682,-1.3694,-1.3797,-1.3845,-1.3845,-1.3845,-1.3845,-1.3839,-1.3845,-1.3845,-1.3839,-1.3845,-1.3779,-1.367,-1.3525,-1.336,-1.3203,-1.3012,-1.2837,-1.2784,-1.2881,-1.2918,-1.2924,-1.3052,-1.3094,-1.3088,-1.3094,-1.3001,-1.2864,-1.2822,-1.2644,-1.2368,-1.2234,-1.219,-1.2167,-1.2125,-1.2187,-1.2342,-1.2732,-1.2915,-1.3062,-1.3455,-1.3738,-1.4171,-1.4895,-1.5648,-1.6298,-1.6726,-1.6908,-1.6908,-1.6908,-1.6968,-1.7072,-1.7141,-1.7295,-1.7476,-1.7613,-1.775,-1.7862,-1.794,-1.8008,-1.8008,-1.8008,-1.8008,-1.8042,-1.812,-1.8424,-1.8827,-1.9496,-2.0578,-2.1797,-2.2795,-2.3311,-2.3502,-2.4079,-2.4525,-2.4876,-2.531,-2.5738,-2.5963,-2.6298,-2.6436,-2.6474,-2.6436,-2.6487,-2.6487,-2.6487,-2.6487,-2.6487,-2.6555,-2.7007,-2.7351,-2.7571,-2.7901,-2.8427,-2.8794,-2.967,-3.0478,-3.1073,-3.1292,-3.138,-3.1438,-3.1496,-3.1496,-3.1496,-3.1496,-3.1496,-3.1496,-3.1496,-3.1496,-3.1496,-3.1496,-1.3552,-1.3616,-1.3845,-1.3948,-1.3978,-1.4183,-1.4244,-1.428,-1.425,-1.425,-1.425,-1.428,-1.422,-1.4298,-1.4195,-1.4147,-1.3942,-1.3851,-1.3694,-1.3483,-1.3254,-1.3061,-1.2892,-1.279,-1.2753,-1.2747,-1.2705,-1.2747,-1.279,-1.2747,-1.2705,-1.2711,-1.2672,-1.2638,-1.2541,-1.2489,-1.2441,-1.24,-1.2324,-1.2291,-1.2325,-1.2415,-1.2452,-1.2489,-1.2489,-1.2842,-1.3419,-1.4106,-1.4832,-1.5515,-1.6333,-1.6726,-1.6839,-1.6908,-1.6908,-1.6943,-1.7072,-1.7166,-1.7235,-1.751,-1.7681,-1.775,-1.7896,-1.8008,-1.8008,-1.8008,-1.8047,-1.8154,-1.8393,-1.8623,-1.8974,-1.9706,-2.0549,-2.1514,-2.2603,-2.3294,-2.3873,-2.4461,-2.4991,-2.5321,-2.5847,-2.6195,-2.643,-2.6487,-2.6487,-2.6487,-2.6487,-2.6487,-2.6487,-2.6487,-2.6487,-2.6487,-2.6589,-2.6714,-2.7027,-2.7317,-2.7703,-2.8117,-2.8279,-2.8935,-2.9979,-3.0569,-3.094,-3.1131,-3.1029,-3.1204,-3.1496,-3.1496,-3.1496,-3.1496,-3.1496,-3.1496,-3.1496,-3.1496,-3.1496,-1.3951,-1.4135,-1.4189,-1.4214,-1.422,-1.4274,-1.4298,-1.4298,-1.4298,-1.4298,-1.4298,-1.4298,-1.4298,-1.4298,-1.4298,-1.4256,-1.4165,-1.4002,-1.3761,-1.3532,-1.3471,-1.3411,-1.323,-1.2946,-1.2729,-1.2723,-1.2705,-1.2705,-1.2705,-1.2705,-1.2705,-1.2681,-1.2669,-1.2686,-1.2649,-1.2635,-1.2565,-1.2505,-1.2477,-1.2408,-1.2341,-1.2301,-1.2288,-1.2305,-1.2305,-1.2378,-1.2666,-1.3317,-1.3818,-1.4243,-1.5223,-1.6149,-1.6691,-1.6839,-1.6874,-1.6908,-1.6943,-1.7038,-1.721,-1.7382,-1.7598,-1.7716,-1.7862,-1.8008,-1.8008,-1.8037,-1.8193,-1.8373,-1.8559,-1.8939,-1.9502,-1.9809,-2.0508,-2.1412,-2.1988,-2.2496,-2.322,-2.439,-2.5153,-2.561,-2.5834,-2.6119,-2.6418,-2.6487,-2.6487,-2.6487,-2.6487,-2.6487,-2.6487,-2.6487,-2.6487,-2.6487,-2.6521,-2.6611,-2.6714,-2.696,-2.7217,-2.7537,-2.7736,-2.7914,-2.8953,-2.9563,-2.9735,-3.0117,-3.051,-3.0792,-3.1219,-3.1496,-3.1496,-3.1496,-3.1496,-3.1496,-3.1496,-3.1496,-3.1496,-1.3979,-1.4118,-1.425,-1.4298,-1.4298,-1.4298,-1.4298,-1.4298,-1.4298,-1.4298,-1.4298,-1.4298,-1.4298,-1.4298,-1.4298,-1.4298,-1.4274,-1.4159,-1.3948,-1.3755,-1.3688,-1.3628,-1.3495,-1.3248,-1.3037,-1.2916,-1.2759,-1.2711,-1.2705,-1.2705,-1.2705,-1.2705,-1.2705,-1.2681,-1.2697,-1.2675,-1.2622,-1.255,-1.2524,-1.2454,-1.2395,-1.2352,-1.23,-1.2294,-1.2305,-1.2305,-1.2378,-1.2666,-1.3098,-1.36,-1.4286,-1.5259,-1.6158,-1.6412,-1.6551,-1.6839,-1.6908,-1.6934,-1.7072,-1.7245,-1.7451,-1.7598,-1.7769,-1.8032,-1.8198,-1.8301,-1.8516,-1.8867,-1.916,-1.9494,-2.0127,-2.0215,-2.0668,-2.1064,-2.1614,-2.1983,-2.2585,-2.3793,-2.4862,-2.5241,-2.5558,-2.5968,-2.6258,-2.6383,-2.6487,-2.6487,-2.6487,-2.6487,-2.6487,-2.6487,-2.6487,-2.6487,-2.6487,-2.6521,-2.6521,-2.6611,-2.6714,-2.6905,-2.7027,-2.7142,-2.7617,-2.7999,-2.8312,-2.9002,-2.9858,-3.0419,-3.0837,-3.1146,-3.1409,-3.1467,-3.1467,-3.1496,-3.1496,-3.1496,-3.1496,-1.3835,-1.3931,-1.416,-1.425,-1.4298,-1.4298,-1.4298,-1.4298,-1.4298,-1.4298,-1.4298,-1.4298,-1.4298,-1.4298,-1.4298,-1.4298,-1.4298,-1.4286,-1.4123,-1.3984,-1.3966,-1.387,-1.3713,-1.3586,-1.3447,-1.3224,-1.2946,-1.2801,-1.2717,-1.2705,-1.2705,-1.2705,-1.2705,-1.2729,-1.2723,-1.2715,-1.2715,-1.2679,-1.2637,-1.2565,-1.2489,-1.2454,-1.2407,-1.2459,-1.2432,-1.2418,-1.2398,-1.2462,-1.2622,-1.3273,-1.3317,-1.4106,-1.5046,-1.5621,-1.5939,-1.6621,-1.6656,-1.6726,-1.6961,-1.7181,-1.742,-1.753,-1.7833,-1.816,-1.8537,-1.8724,-1.8965,-1.9346,-1.9717,-2.0088,-2.0556,-2.0546,-2.0556,-2.076,-2.127,-2.1576,-2.1869,-2.2898,-2.3683,-2.4373,-2.5004,-2.5558,-2.5968,-2.6245,-2.6383,-2.6487,-2.6487,-2.6487,-2.6487,-2.6487,-2.6487,-2.6487,-2.6487,-2.6487,-2.6487,-2.6487,-2.6555,-2.6589,-2.6611,-2.6645,-2.6726,-2.704,-2.7617,-2.8505,-2.93,-2.9766,-3.0269,-3.0688,-3.097,-3.1263,-3.1482,-3.1496,-3.1496,-3.1496,-3.1496,-1.3491,-1.3883,-1.3931,-1.407,-1.4298,-1.4298,-1.4298,-1.4298,-1.4298,-1.4298,-1.4298,-1.4298,-1.4298,-1.4298,-1.4298,-1.4298,-1.4298,-1.4292,-1.4268,-1.4208,-1.4201,-1.4135,-1.4075,-1.3912,-1.3797,-1.3658,-1.332,-1.2982,-1.2771,-1.2705,-1.2705,-1.2705,-1.2705,-1.279,-1.2918,-1.3032,-1.2895,-1.2848,-1.2823,-1.2744,-1.2546,-1.2506,-1.2523,-1.2681,-1.2657,-1.2685,-1.2619,-1.2445,-1.2372,-1.2482,-1.2489,-1.3039,-1.3855,-1.4505,-1.5141,-1.5806,-1.6123,-1.6369,-1.6816,-1.7398,-1.766,-1.7889,-1.8299,-1.8689,-1.8933,-1.909,-1.9358,-1.9766,-2.0156,-2.0517,-2.0595,-2.0615,-2.0615,-2.0683,-2.076,-2.0905,-2.1049,-2.168,-2.2611,-2.3305,-2.4192,-2.5004,-2.53,-2.5734,-2.606,-2.6233,-2.6418,-2.6452,-2.6487,-2.6487,-2.6487,-2.6487,-2.6487,-2.6487,-2.6487,-2.6487,-2.6521,-2.6521,-2.6555,-2.6555,-2.6555,-2.6521,-2.704,-2.7835,-2.8312,-2.8652,-2.9223,-2.995,-3.0299,-3.045,-3.0925,-3.1409,-3.1307,-3.119,-3.1409,-1.25,-1.2797,-1.3394,-1.3829,-1.407,-1.407,-1.416,-1.4298,-1.4298,-1.4298,-1.4298,-1.4298,-1.4298,-1.4298,-1.4298,-1.4298,-1.4298,-1.4298,-1.4298,-1.4298,-1.4298,-1.4298,-1.4298,-1.4153,-1.4026,-1.3882,-1.3616,-1.329,-1.294,-1.2765,-1.2723,-1.2705,-1.2705,-1.279,-1.2881,-1.2863,-1.2893,-1.2859,-1.2835,-1.2785,-1.2636,-1.2572,-1.2609,-1.2678,-1.2811,-1.2837,-1.2843,-1.2841,-1.2692,-1.2616,-1.2569,-1.2794,-1.3124,-1.3548,-1.4144,-1.5028,-1.5692,-1.6188,-1.6723,-1.7397,-1.7962,-1.8136,-1.8515,-1.8852,-1.9115,-1.936,-1.9702,-2.0166,-2.0361,-2.0615,-2.0615,-2.0615,-2.0615,-2.0615,-2.0615,-2.0615,-2.0683,-2.0982,-2.1576,-2.2322,-2.3169,-2.3854,-2.4373,-2.4886,-2.5546,-2.5955,-2.6233,-2.6349,-2.6383,-2.6487,-2.6487,-2.6487,-2.6487,-2.6487,-2.6487,-2.6487,-2.6487,-2.6487,-2.6487,-2.6487,-2.6487,-2.6487,-2.6589,-2.7007,-2.7351,-2.7789,-2.8363,-2.9129,-2.938,-2.9628,-2.9905,-3.0254,-3.0673,-3.0911,-3.0999,-1.1219,-1.1365,-1.2597,-1.3292,-1.3534,-1.3738,-1.3973,-1.416,-1.4202,-1.425,-1.4298,-1.4298,-1.4298,-1.4298,-1.4298,-1.4298,-1.4298,-1.4298,-1.4298,-1.4298,-1.4298,-1.4298,-1.4298,-1.428,-1.4189,-1.4039,-1.387,-1.3634,-1.3145,-1.2916,-1.2783,-1.2717,-1.2705,-1.2705,-1.2705,-1.2741,-1.2705,-1.2705,-1.2705,-1.2705,-1.2687,-1.2709,-1.2678,-1.2696,-1.288,-1.3014,-1.3087,-1.3101,-1.3046,-1.2938,-1.2878,-1.2916,-1.2878,-1.2878,-1.332,-1.4303,-1.5381,-1.5901,-1.6479,-1.7314,-1.7929,-1.8004,-1.8471,-1.8891,-1.9259,-1.9631,-1.9956,-2.042,-2.0615,-2.0615,-2.0615,-2.0615,-2.0615,-2.0615,-2.0615,-2.0615,-2.0615,-2.0722,-2.0809,-2.1471,-2.2199,-2.2787,-2.3305,-2.4,-2.466,-2.5099,-2.5394,-2.5838,-2.5955,-2.6418,-2.6487,-2.6487,-2.6487,-2.6487,-2.6487,-2.6487,-2.6487,-2.6487,-2.6487,-2.6487,-2.6487,-2.6487,-2.6589,-2.6692,-2.6905,-2.7351,-2.7868,-2.8214,-2.8524,-2.878,-2.8862,-2.9223,-2.9797,-3.0056,-3.0117,-0.9998,-1.0293,-1.137,-1.2004,-1.2349,-1.3093,-1.3684,-1.3877,-1.3925,-1.4118,-1.425,-1.4298,-1.4298,-1.4298,-1.4298,-1.4298,-1.4298,-1.4298,-1.4298,-1.4298,-1.4298,-1.4298,-1.4298,-1.4298,-1.428,-1.4171,-1.4014,-1.3616,-1.3248,-1.3047,-1.2916,-1.2753,-1.2705,-1.2705,-1.2705,-1.2705,-1.2705,-1.2705,-1.2705,-1.2705,-1.2741,-1.2911,-1.3037,-1.3165,-1.3226,-1.3267,-1.3357,-1.3306,-1.3207,-1.3186,-1.3153,-1.3153,-1.316,-1.316,-1.3186,-1.3531,-1.4115,-1.485,-1.5642,-1.6773,-1.7497,-1.7791,-1.853,-1.9303,-1.9643,-1.9887,-2.0149,-2.0274,-2.0498,-2.0615,-2.0615,-2.0615,-2.0615,-2.0615,-2.0615,-2.0615,-2.0615,-2.0615,-2.0654,-2.0693,-2.1423,-2.1869,-2.2349,-2.3084,-2.3781,-2.4181,-2.4588,-2.504,-2.5523,-2.5908,-2.6452,-2.6487,-2.6487,-2.6487,-2.6487,-2.6487,-2.6487,-2.6487,-2.6487,-2.6487,-2.6487,-2.6487,-2.6487,-2.6589,-2.6769,-2.6803,-2.7108,-2.7417,-2.7736,-2.7953,-2.8071,-2.8524,-2.9066,-2.9192,-2.9223,-0.8219,-0.8962,-0.9993,-1.0632,-1.0974,-1.196,-1.2597,-1.2942,-1.3588,-1.3979,-1.4118,-1.4256,-1.4298,-1.4298,-1.4298,-1.4298,-1.4298,-1.4298,-1.4298,-1.4298,-1.4298,-1.4298,-1.4298,-1.4298,-1.4298,-1.4268,-1.4141,-1.3863,-1.342,-1.3119,-1.2982,-1.2747,-1.2705,-1.2705,-1.2705,-1.2705,-1.2705,-1.2705,-1.2705,-1.2705,-1.2747,-1.2833,-1.2918,-1.3039,-1.3119,-1.3278,-1.3393,-1.3498,-1.3444,-1.3433,-1.342,-1.342,-1.342,-1.3433,-1.3507,-1.3749,-1.3981,-1.4534,-1.521,-1.6325,-1.6805,-1.7199,-1.8072,-1.8908,-1.9548,-1.9912,-2.0177,-2.0459,-2.0537,-2.0605,-2.0605,-2.0615,-2.0615,-2.0615,-2.0615,-2.0566,-2.0566,-2.0605,-2.0615,-2.0615,-2.0615,-2.0996,-2.1439,-2.2056,-2.2674,-2.3121,-2.3635,-2.4181,-2.4707,-2.5229,-2.5838,-2.6499,-2.6499,-2.6487,-2.6487,-2.6487,-2.6487,-2.6487,-2.6487,-2.6487,-2.6487,-2.6487,-2.6487,-2.6487,-2.6589,-2.6589,-2.6533,-2.6726,-2.7129,-2.7217,-2.7317,-2.7769,-2.8182,-2.8266,-2.8427,-0.688,-0.7673,-0.8764,-0.9312,-0.9604,-1.0681,-1.1272,-1.1609,-1.2748,-1.334,-1.3582,-1.3919,-1.4208,-1.4256,-1.4256,-1.4298,-1.4298,-1.4298,-1.4298,-1.4298,-1.4298,-1.4298,-1.4298,-1.4298,-1.4298,-1.4292,-1.4165,-1.3894,-1.355,-1.3248,-1.2939,-1.2717,-1.2705,-1.2705,-1.2705,-1.2693,-1.2681,-1.2572,-1.2572,-1.2536,-1.2487,-1.2469,-1.2517,-1.2619,-1.2805,-1.2979,-1.3188,-1.3268,-1.3339,-1.3398,-1.3458,-1.3478,-1.3567,-1.3701,-1.3821,-1.3968,-1.4114,-1.4255,-1.4851,-1.5628,-1.6265,-1.6657,-1.7188,-1.8118,-1.9085,-1.945,-1.9814,-2.0255,-2.045,-2.0527,-2.0566,-2.0615,-2.0615,-2.0615,-2.0605,-2.0537,-2.0449,-2.0342,-2.0185,-2.0048,-2.0028,-2.0116,-2.0542,-2.1042,-2.158,-2.2092,-2.2649,-2.3305,-2.3927,-2.4528,-2.5182,-2.5886,-2.6072,-2.6164,-2.6452,-2.6452,-2.6487,-2.6487,-2.6487,-2.6487,-2.6487,-2.6487,-2.6487,-2.6487,-2.6487,-2.6487,-2.6521,-2.6487,-2.6521,-2.6748,-2.6939,-2.696,-2.7183,-2.7351,-2.7637,-0.6437,-0.6584,-0.7673,-0.812,-0.8219,-0.9312,-0.9903,-1.0243,-1.1321,-1.1955,-1.2446,-1.3286,-1.3829,-1.3979,-1.416,-1.4304,-1.4298,-1.4298,-1.4298,-1.4298,-1.4298,-1.4298,-1.4298,-1.4298,-1.428,-1.4226,-1.4093,-1.3821,-1.3513,-1.3236,-1.297,-1.2747,-1.2705,-1.2705,-1.2687,-1.2656,-1.2554,-1.2427,-1.2361,-1.2187,-1.2119,-1.2053,-1.2134,-1.2283,-1.2379,-1.2428,-1.2641,-1.2745,-1.2838,-1.2981,-1.3184,-1.3364,-1.3465,-1.3693,-1.3874,-1.3908,-1.3935,-1.4013,-1.4365,-1.4905,-1.5413,-1.576,-1.6322,-1.7196,-1.8094,-1.8355,-1.8899,-1.9683,-1.9889,-2.0236,-2.0411,-2.0586,-2.04,-2.0351,-2.0243,-2.0165,-2.0029,-1.9961,-1.9785,-1.9482,-1.9473,-1.9648,-1.9764,-2.0275,-2.0705,-2.1186,-2.1907,-2.2547,-2.3342,-2.4011,-2.4528,-2.5075,-2.5382,-2.5734,-2.6302,-2.6418,-2.6487,-2.6487,-2.6487,-2.6487,-2.6487,-2.6487,-2.6487,-2.6487,-2.6487,-2.6487,-2.6487,-2.6487,-2.6487,-2.6487,-2.6555,-2.6714,-2.6748,-2.6871,-2.7129,-0.6387,-0.6437,-0.6833,-0.7033,-0.7083,-0.817,-0.8662,-0.8958,-1.0092,-1.1175,-1.1999,-1.2543,-1.319,-1.3732,-1.3979,-1.416,-1.4298,-1.4298,-1.4298,-1.4298,-1.4298,-1.4298,-1.4298,-1.4268,-1.4226,-1.4081,-1.3924,-1.3658,-1.3284,-1.3145,-1.2964,-1.2789,-1.2705,-1.2705,-1.2674,-1.2566,-1.2409,-1.23,-1.2155,-1.1964,-1.1934,-1.1886,-1.1966,-1.2046,-1.2046,-1.2166,-1.2384,-1.2412,-1.2525,-1.2703,-1.2907,-1.3073,-1.322,-1.3487,-1.3587,-1.3601,-1.3607,-1.3607,-1.3681,-1.4262,-1.4776,-1.5394,-1.5794,-1.6228,-1.6997,-1.7559,-1.796,-1.8565,-1.9146,-1.9525,-1.957,-1.9701,-1.9754,-1.9803,-1.9813,-1.9727,-1.9629,-1.9551,-1.9414,-1.9121,-1.9209,-1.9375,-1.9414,-1.95,-1.9925,-2.0371,-2.1068,-2.1825,-2.266,-2.3316,-2.3793,-2.4348,-2.4695,-2.5087,-2.5652,-2.6047,-2.6418,-2.6452,-2.6418,-2.6487,-2.6487,-2.6487,-2.6487,-2.6487,-2.6487,-2.6487,-2.6487,-2.6487,-2.6487,-2.6487,-2.6487,-2.6521,-2.6521,-2.6487,-2.6714,-0.6387,-0.6387,-0.6387,-0.6387,-0.6534,-0.7182,-0.7524,-0.7726,-0.8863,-1.0096,-1.1268,-1.137,-1.2058,-1.2996,-1.3383,-1.3727,-1.4058,-1.425,-1.4298,-1.4298,-1.4298,-1.4298,-1.4274,-1.4195,-1.4069,-1.39,-1.3682,-1.3423,-1.3119,-1.3049,-1.288,-1.2753,-1.2705,-1.2705,-1.2644,-1.2415,-1.2241,-1.2109,-1.1922,-1.1745,-1.1657,-1.1661,-1.1615,-1.1636,-1.1624,-1.1702,-1.1852,-1.1917,-1.2092,-1.233,-1.2563,-1.2785,-1.2942,-1.3061,-1.3193,-1.3206,-1.32,-1.32,-1.3327,-1.3601,-1.4104,-1.4472,-1.4609,-1.5134,-1.585,-1.6477,-1.6602,-1.7252,-1.7988,-1.8581,-1.8626,-1.9045,-1.9377,-1.9502,-1.9482,-1.9424,-1.9209,-1.9046,-1.8919,-1.8789,-1.8857,-1.8818,-1.8896,-1.8955,-1.9527,-2.0009,-2.0664,-2.1326,-2.1939,-2.2483,-2.2846,-2.3449,-2.4045,-2.4468,-2.4933,-2.5381,-2.5836,-2.606,-2.6129,-2.6452,-2.6487,-2.6449,-2.6461,-2.6487,-2.6487,-2.6487,-2.6487,-2.6487,-2.6487,-2.6487,-2.6487,-2.6487,-2.6487,-2.6487,-2.6487,-0.6387,-0.6387,-0.6387,-0.6387,-0.6387,-0.6437,-0.6487,-0.6734,-0.7624,-0.8715,-0.9702,-0.9948,-1.0681,-1.1609,-1.215,-1.2743,-1.3426,-1.3859,-1.3956,-1.3806,-1.3908,-1.4154,-1.4118,-1.4004,-1.3936,-1.3785,-1.3507,-1.3236,-1.3035,-1.2886,-1.2747,-1.2723,-1.2705,-1.2699,-1.2674,-1.2439,-1.2192,-1.1938,-1.1663,-1.1435,-1.1286,-1.125,-1.1262,-1.123,-1.1268,-1.1324,-1.1374,-1.1482,-1.1645,-1.1809,-1.2228,-1.2446,-1.2619,-1.2902,-1.3073,-1.31,-1.312,-1.3146,-1.3193,-1.322,-1.3333,-1.3547,-1.3782,-1.3943,-1.4401,-1.4778,-1.5142,-1.5901,-1.6845,-1.751,-1.8018,-1.857,-1.8795,-1.8974,-1.8899,-1.8984,-1.8724,-1.8617,-1.8535,-1.8467,-1.8242,-1.8086,-1.8223,-1.8457,-1.9125,-1.9739,-2.0309,-2.0825,-2.1274,-2.1614,-2.1891,-2.2525,-2.318,-2.357,-2.4054,-2.4767,-2.5263,-2.5487,-2.5644,-2.5769,-2.6104,-2.6197,-2.626,-2.6399,-2.6487,-2.6487,-2.6487,-2.6487,-2.6487,-2.6487,-2.6487,-2.6487,-2.6487,-2.6487,-2.6487,-0.6387,-0.6387,-0.6387,-0.6387,-0.6387,-0.6387,-0.6387,-0.6487,-0.683,-0.7574,-0.8368,-0.8665,-0.9505,-1.0485,-1.0974,-1.1468,-1.2052,-1.2155,-1.2247,-1.2393,-1.2931,-1.3173,-1.3293,-1.3513,-1.3682,-1.3598,-1.3233,-1.2832,-1.2831,-1.2515,-1.2625,-1.2705,-1.2443,-1.2705,-1.2632,-1.2445,-1.2186,-1.1926,-1.1633,-1.1375,-1.1154,-1.1123,-1.1117,-1.1117,-1.1117,-1.1117,-1.1111,-1.1223,-1.1298,-1.1409,-1.1834,-1.2029,-1.2179,-1.2431,-1.2607,-1.2639,-1.2625,-1.2605,-1.2605,-1.2639,-1.2819,-1.3019,-1.3186,-1.3209,-1.3404,-1.3885,-1.4185,-1.4536,-1.5393,-1.5934,-1.6194,-1.6928,-1.7352,-1.7678,-1.7834,-1.8191,-1.8198,-1.8223,-1.8174,-1.8164,-1.8018,-1.8008,-1.8086,-1.8164,-1.8703,-1.9027,-1.9502,-1.9906,-2.032,-2.0581,-2.0897,-2.1563,-2.2173,-2.2615,-2.3114,-2.3612,-2.4061,-2.4254,-2.4452,-2.466,-2.5054,-2.559,-2.5824,-2.585,-2.6163,-2.6487,-2.6487,-2.6487,-2.6487,-2.6487,-2.6487,-2.6487,-2.6487,-2.6487,-2.6487,-0.6387,-0.6387,-0.6387,-0.6387,-0.6387,-0.6387,-0.6387,-0.6387,-0.6437,-0.6833,-0.7329,-0.7478,-0.8219,-0.9255,-0.9698,-1.0288,-1.0828,-1.1023,-1.1175,-1.1268,-1.1804,-1.215,-1.2368,-1.2585,-1.2414,-1.2489,-1.2243,-1.1915,-1.1564,-1.1666,-1.1617,-1.1569,-1.1746,-1.1526,-1.1673,-1.1805,-1.2246,-1.2005,-1.173,-1.1423,-1.1286,-1.1196,-1.1117,-1.1117,-1.1117,-1.1117,-1.1149,-1.1149,-1.1229,-1.1298,-1.1484,-1.1669,-1.1781,-1.1966,-1.2194,-1.2194,-1.2268,-1.2318,-1.2338,-1.2345,-1.2565,-1.2786,-1.2893,-1.2799,-1.2714,-1.3037,-1.3133,-1.3455,-1.4013,-1.441,-1.4848,-1.5614,-1.6254,-1.6594,-1.7088,-1.7495,-1.7969,-1.7979,-1.8047,-1.8018,-1.8008,-1.8008,-1.8008,-1.8047,-1.8267,-1.8447,-1.8652,-1.9049,-1.9433,-1.9756,-2.0068,-2.0659,-2.1073,-2.1386,-2.1783,-2.2231,-2.265,-2.299,-2.3242,-2.349,-2.4173,-2.4727,-2.4988,-2.5331,-2.5749,-2.6109,-2.6399,-2.6487,-2.6487,-2.6487,-2.6487,-2.6487,-2.6487,-2.6487,-2.6487,-0.6387,-0.6387,-0.6387,-0.6387,-0.6387,-0.6387,-0.6387,-0.6387,-0.6387,-0.6437,-0.6487,-0.6537,-0.7179,-0.7922,-0.8269,-0.9008,-0.9846,-1.0239,-1.0435,-1.0783,-1.0881,-1.1023,-1.109,-1.1125,-1.1283,-1.0849,-1.063,-1.07,-1.0062,-1.0356,-1.0313,-1.0139,-1.0399,-1.0394,-1.0764,-1.1229,-1.1838,-1.1735,-1.1553,-1.1402,-1.1346,-1.1286,-1.1184,-1.1141,-1.1117,-1.1117,-1.1149,-1.1223,-1.1298,-1.1409,-1.1521,-1.1632,-1.1744,-1.1892,-1.1966,-1.204,-1.2187,-1.2231,-1.2305,-1.2305,-1.2318,-1.2472,-1.2412,-1.2331,-1.2388,-1.2533,-1.2573,-1.2767,-1.3244,-1.3491,-1.3846,-1.4665,-1.5446,-1.5939,-1.6498,-1.7079,-1.7691,-1.7906,-1.7983,-1.8008,-1.8008,-1.8008,-1.8008,-1.8027,-1.8047,-1.8135,-1.834,-1.8576,-1.8956,-1.9278,-1.9548,-1.9795,-2.0108,-2.0108,-2.0512,-2.0991,-2.1228,-2.1587,-2.2036,-2.2379,-2.3122,-2.3748,-2.4116,-2.455,-2.5223,-2.5686,-2.6059,-2.6323,-2.6487,-2.6487,-2.6487,-2.6487,-2.6487,-2.6487,-2.6487,-0.6387,-0.6387,-0.6387,-0.6387,-0.6387,-0.6387,-0.6387,-0.6387,-0.6387,-0.6387,-0.6387,-0.6387,-0.6736,-0.7138,-0.7238,-0.7683,-0.7978,-0.8223,-0.8375,-0.8772,-0.9509,-0.9801,-1.0087,-1.0278,-1.0459,-1.0401,-1.014,-0.9763,-0.9859,-0.9792,-0.9749,-0.9923,-0.9575,-0.9662,-0.9899,-1.0378,-1.0778,-1.1155,-1.1087,-1.1278,-1.1402,-1.1295,-1.1229,-1.1158,-1.1011,-1.1049,-1.1111,-1.1149,-1.1223,-1.1223,-1.1372,-1.1484,-1.1521,-1.1669,-1.1818,-1.1966,-1.2077,-1.212,-1.2268,-1.2305,-1.2268,-1.2268,-1.2305,-1.2305,-1.2311,-1.2305,-1.2305,-1.2482,-1.2629,-1.2879,-1.3135,-1.3774,-1.4486,-1.5021,-1.5685,-1.6463,-1.7079,-1.7579,-1.7716,-1.8008,-1.8008,-1.8008,-1.8008,-1.8008,-1.8027,-1.8008,-1.8076,-1.8257,-1.8458,-1.8778,-1.8986,-1.9203,-1.9343,-1.9409,-1.9445,-1.984,-1.997,-2.0175,-2.0664,-2.1163,-2.1699,-2.2336,-2.3043,-2.3802,-2.4525,-2.5145,-2.5724,-2.6009,-2.6285,-2.6449,-2.6474,-2.6474,-2.6487,-2.6487,-2.6487,-0.6372,-0.6377,-0.6371,-0.6387,-0.6387,-0.6387,-0.6387,-0.6387,-0.6387,-0.6387,-0.6387,-0.6387,-0.6489,-0.6639,-0.6692,-0.6839,-0.7089,-0.7235,-0.7388,-0.7783,-0.8131,-0.8421,-0.8844,-0.914,-0.9116,-0.9209,-0.9086,-0.8637,-0.8823,-0.8707,-0.8619,-0.8532,-0.8663,-0.875,-0.8698,-0.869,-0.913,-0.989,-1.048,-1.0969,-1.1129,-1.1127,-1.1074,-1.1097,-1.0901,-1.0781,-1.0999,-1.1037,-1.1037,-1.108,-1.1267,-1.1298,-1.1335,-1.1484,-1.1669,-1.1818,-1.1892,-1.1929,-1.2009,-1.212,-1.2157,-1.2194,-1.2268,-1.2305,-1.2305,-1.2305,-1.2305,-1.2378,-1.2342,-1.2409,-1.2629,-1.2879,-1.3462,-1.4034,-1.4879,-1.5763,-1.6428,-1.7104,-1.7535,-1.7896,-1.8008,-1.8008,-1.8008,-1.8008,-1.8008,-1.8008,-1.8008,-1.8066,-1.8189,-1.8316,-1.8448,-1.8572,-1.8715,-1.8829,-1.8864,-1.8918,-1.9111,-1.9228,-1.9352,-1.9831,-2.0335,-2.1018,-2.1811,-2.2801,-2.3827,-2.4468,-2.5123,-2.5711,-2.6059,-2.6172,-2.6285,-2.6386,-2.6411,-2.6487,-2.6487,-0.63,-0.6311,-0.6327,-0.6415,-0.6373,-0.6379,-0.6387,-0.6387,-0.6387,-0.6387,-0.6387,-0.6387,-0.6387,-0.6489,-0.6489,-0.6589,-0.6739,-0.6792,-0.6889,-0.7135,-0.7338,-0.7532,-0.7573,-0.7446,-0.7828,-0.7533,-0.7361,-0.7519,-0.703,-0.7095,-0.7224,-0.6792,-0.6966,-0.718,-0.7356,-0.7268,-0.7683,-0.8396,-0.9501,-1.0297,-1.0496,-1.0533,-1.0517,-1.0838,-1.045,-1.0067,-1.0588,-1.085,-1.0919,-1.0887,-1.0962,-1.0925,-1.1186,-1.126,-1.1484,-1.1595,-1.1669,-1.1781,-1.1855,-1.1972,-1.204,-1.2114,-1.2194,-1.2268,-1.2305,-1.2305,-1.2305,-1.2305,-1.2305,-1.2305,-1.2489,-1.2556,-1.2952,-1.3426,-1.4135,-1.5057,-1.5948,-1.6724,-1.7501,-1.7862,-1.8008,-1.8008,-1.8008,-1.8008,-1.8008,-1.8008,-1.8008,-1.8008,-1.8027,-1.8066,-1.8086,-1.814,-1.8272,-1.8414,-1.8394,-1.8448,-1.8446,-1.8492,-1.8539,-1.8764,-1.9429,-2.0042,-2.0608,-2.1888,-2.32,-2.3821,-2.4424,-2.5086,-2.5536,-2.5598,-2.5774,-2.616,-2.6285,-2.6223,-2.6411,-0.613,-0.6191,-0.626,-0.6309,-0.632,-0.6352,-0.6384,-0.6387,-0.6387,-0.6379,-0.6387,-0.6387,-0.6387,-0.6387,-0.6387,-0.6489,-0.6489,-0.6589,-0.6689,-0.6833,-0.6886,-0.6987,-0.7073,-0.7019,-0.6929,-0.6841,-0.6728,-0.6611,-0.6532,-0.6476,-0.6476,-0.6476,-0.6476,-0.6564,-0.6609,-0.652,-0.6782,-0.7261,-0.8047,-0.9107,-0.9527,-0.9608,-0.9617,-0.9561,-0.9178,-0.9132,-0.9415,-0.9382,-0.9301,-0.9301,-0.9911,-1.0438,-1.1074,-1.1111,-1.126,-1.1409,-1.1372,-1.1484,-1.1744,-1.1898,-1.1972,-1.215,-1.2231,-1.2268,-1.2305,-1.2305,-1.2305,-1.2305,-1.2305,-1.2305,-1.2305,-1.2335,-1.2445,-1.2915,-1.3353,-1.4386,-1.5428,-1.6411,-1.7398,-1.775,-1.793,-1.8008,-1.8008,-1.8008,-1.8008,-1.8008,-1.8008,-1.8008,-1.8008,-1.8027,-1.8037,-1.8047,-1.8037,-1.81,-1.81,-1.81,-1.8178,-1.8212,-1.8313,-1.8472,-1.8654,-1.9252,-1.9987,-2.1374,-2.2567,-2.2998,-2.3558,-2.4516,-2.4868,-2.4943,-2.5222,-2.5548,-2.5485,-2.5385,-2.5837,-0.6005,-0.6021,-0.6135,-0.6235,-0.62,-0.6255,-0.6279,-0.6279,-0.6282,-0.6312,-0.6319,-0.641,-0.6387,-0.6387,-0.6387,-0.6387,-0.6387,-0.6437,-0.6487,-0.6584,-0.6624,-0.6669,-0.6661,-0.6632,-0.663,-0.6506,-0.6355,-0.6305,-0.6254,-0.6257,-0.6257,-0.6254,-0.6254,-0.6299,-0.634,-0.6343,-0.6299,-0.6473,-0.7,-0.7556,-0.8294,-0.8346,-0.8873,-0.8768,-0.8585,-0.8406,-0.8665,-0.8703,-0.8703,-0.8742,-0.9198,-0.942,-0.983,-0.9906,-1.0244,-1.055,-1.0738,-1.0999,-1.1446,-1.1744,-1.1861,-1.2009,-1.215,-1.212,-1.2305,-1.2305,-1.2305,-1.2305,-1.2305,-1.2305,-1.2305,-1.2342,-1.2335,-1.2629,-1.2952,-1.3564,-1.4851,-1.6062,-1.701,-1.7706,-1.7852,-1.7896,-1.793,-1.8008,-1.8008,-1.8008,-1.8008,-1.8008,-1.8008,-1.8008,-1.8008,-1.8008,-1.8008,-1.8008,-1.8042,-1.8042,-1.8042,-1.8076,-1.811,-1.8236,-1.8462,-1.8754,-1.9407,-2.0574,-2.1394,-2.1719,-2.242,-2.3445,-2.4089,-2.4208,-2.4541,-2.4933,-2.4763,-2.4662,-2.5051,-0.5882,-0.5899,-0.6013,-0.6062,-0.6067,-0.6086,-0.6097,-0.6097,-0.6092,-0.6196,-0.6244,-0.6339,-0.6396,-0.6434,-0.6387,-0.6387,-0.6387,-0.6387,-0.6437,-0.6382,-0.6366,-0.639,-0.6358,-0.6285,-0.627,-0.6236,-0.6091,-0.6083,-0.6041,-0.6041,-0.6041,-0.6041,-0.6083,-0.6124,-0.6213,-0.6169,-0.608,-0.6169,-0.6387,-0.6384,-0.6707,-0.7059,-0.7838,-0.8116,-0.8002,-0.7735,-0.8131,-0.836,-0.8322,-0.8437,-0.8399,-0.8742,-0.8927,-0.9117,-0.9496,-0.9879,-1.0143,-1.055,-1.1031,-1.1409,-1.1558,-1.1706,-1.1855,-1.204,-1.2194,-1.2231,-1.2231,-1.2305,-1.2305,-1.2305,-1.2305,-1.2305,-1.2305,-1.2409,-1.2666,-1.2959,-1.4314,-1.564,-1.6585,-1.7467,-1.7638,-1.7681,-1.7862,-1.794,-1.7974,-1.7974,-1.8008,-1.8008,-1.8008,-1.8008,-1.8008,-1.8008,-1.8008,-1.8008,-1.8008,-1.8008,-1.8008,-1.8008,-1.8076,-1.8144,-1.8236,-1.8428,-1.8821,-1.9452,-2.0118,-2.0628,-2.1339,-2.2277,-2.2822,-2.3296,-2.371,-2.4003,-2.4135,-2.4085,-2.4292,-0.5721,-0.5773,-0.589,-0.5937,-0.5953,-0.6037,-0.6086,-0.6086,-0.6078,-0.6102,-0.6121,-0.6151,-0.6241,-0.6384,-0.6387,-0.6379,-0.641,-0.6415,-0.6361,-0.6347,-0.6238,-0.6155,-0.6081,-0.6041,-0.5921,-0.586,-0.5863,-0.5822,-0.5866,-0.5822,-0.5777,-0.5822,-0.5822,-0.5822,-0.5822,-0.5822,-0.5863,-0.5908,-0.5949,-0.5991,-0.6087,-0.6337,-0.6315,-0.6454,-0.637,-0.6337,-0.6479,-0.6637,-0.6718,-0.6949,-0.7407,-0.794,-0.8246,-0.8437,-0.8856,-0.9311,-0.9576,-1.025,-1.0732,-1.1186,-1.1409,-1.1632,-1.1781,-1.1848,-1.1966,-1.204,-1.2114,-1.2261,-1.2268,-1.2268,-1.2268,-1.2305,-1.2305,-1.2519,-1.2739,-1.3135,-1.3998,-1.5144,-1.614,-1.6802,-1.7235,-1.7442,-1.7716,-1.7794,-1.7862,-1.7896,-1.7964,-1.7998,-1.8008,-1.8008,-1.8008,-1.8008,-1.8008,-1.8008,-1.8008,-1.8008,-1.8008,-1.8008,-1.8008,-1.8076,-1.8076,-1.8042,-1.8428,-1.8954,-1.9342,-1.9791,-2.0541,-2.1145,-2.1602,-2.21,-2.2646,-2.3016,-2.322,-2.348,-2.3654]}]]